<?xml version="1.0" encoding="UTF-8" standalone="no" ?>
<gpx xmlns="http://www.topografix.com/GPX/1/1" xmlns:xsi="http://www.w3.org/2001/XMLSchema-instance" xsi:schemaLocation="http://www.topografix.com/GPX/1/1 http://www.topografix.com/GPX/1/1/gpx.xsd" version="1.1" creator="VisuGPX - https://www.visugpx.com">
  <metadata>
    <name>Cycl'Isques 2017</name>
    <desc><![CDATA[Contrôle du parcours de 97 kms de la Cycl'Isques 2017]]></desc>
  </metadata>
  <trk>
    <name><![CDATA[OR-7171891--Isques:La Cycl'Iques 2017-97kms]]></name>
    <trkseg>
      <trkpt lat="50.67696" lon="1.6468">
        <ele>22</ele>
        <time>2017-03-21T12:47:24Z</time>
      </trkpt>
      <trkpt lat="50.67698" lon="1.64681">
        <ele>22</ele>
        <time>2017-03-21T12:49:24Z</time>
      </trkpt>
      <trkpt lat="50.67853" lon="1.64313">
        <ele>19</ele>
        <time>2017-03-21T12:51:24Z</time>
      </trkpt>
      <trkpt lat="50.67974" lon="1.64024">
        <ele>15</ele>
        <time>2017-03-21T12:53:24Z</time>
      </trkpt>
      <trkpt lat="50.67991" lon="1.63986">
        <ele>14</ele>
        <time>2017-03-21T12:55:24Z</time>
      </trkpt>
      <trkpt lat="50.68005" lon="1.6396">
        <ele>13</ele>
        <time>2017-03-21T12:57:24Z</time>
      </trkpt>
      <trkpt lat="50.68113" lon="1.63785">
        <ele>12</ele>
        <time>2017-03-21T12:59:24Z</time>
      </trkpt>
      <trkpt lat="50.68194" lon="1.63653">
        <ele>13</ele>
        <time>2017-03-21T13:01:24Z</time>
      </trkpt>
      <trkpt lat="50.68239" lon="1.63579">
        <ele>12</ele>
        <time>2017-03-21T13:03:24Z</time>
      </trkpt>
      <trkpt lat="50.68251" lon="1.63557">
        <ele>11</ele>
        <time>2017-03-21T13:05:24Z</time>
      </trkpt>
      <trkpt lat="50.68277" lon="1.6349">
        <ele>11</ele>
        <time>2017-03-21T13:07:24Z</time>
      </trkpt>
      <trkpt lat="50.68307" lon="1.63407">
        <ele>10</ele>
        <time>2017-03-21T13:09:24Z</time>
      </trkpt>
      <trkpt lat="50.68339" lon="1.63323">
        <ele>10</ele>
        <time>2017-03-21T13:11:24Z</time>
      </trkpt>
      <trkpt lat="50.68343" lon="1.63311">
        <ele>10</ele>
        <time>2017-03-21T13:13:24Z</time>
      </trkpt>
      <trkpt lat="50.68343" lon="1.633">
        <ele>10</ele>
        <time>2017-03-21T13:15:24Z</time>
      </trkpt>
      <trkpt lat="50.68345" lon="1.63279">
        <ele>10</ele>
        <time>2017-03-21T13:17:24Z</time>
      </trkpt>
      <trkpt lat="50.68338" lon="1.63285">
        <ele>10</ele>
        <time>2017-03-21T13:19:24Z</time>
      </trkpt>
      <trkpt lat="50.6833" lon="1.63287">
        <ele>10</ele>
        <time>2017-03-21T13:21:24Z</time>
      </trkpt>
      <trkpt lat="50.68323" lon="1.63285">
        <ele>10</ele>
        <time>2017-03-21T13:23:24Z</time>
      </trkpt>
      <trkpt lat="50.68318" lon="1.6328">
        <ele>10</ele>
        <time>2017-03-21T13:25:24Z</time>
      </trkpt>
      <trkpt lat="50.68312" lon="1.63277">
        <ele>9</ele>
        <time>2017-03-21T13:27:24Z</time>
      </trkpt>
      <trkpt lat="50.68301" lon="1.63277">
        <ele>9</ele>
        <time>2017-03-21T13:29:24Z</time>
      </trkpt>
      <trkpt lat="50.68263" lon="1.63298">
        <ele>8</ele>
        <time>2017-03-21T13:31:24Z</time>
      </trkpt>
      <trkpt lat="50.68248" lon="1.63305">
        <ele>8</ele>
        <time>2017-03-21T13:33:24Z</time>
      </trkpt>
      <trkpt lat="50.68229" lon="1.63313">
        <ele>8</ele>
        <time>2017-03-21T13:35:24Z</time>
      </trkpt>
      <trkpt lat="50.68193" lon="1.63323">
        <ele>7</ele>
        <time>2017-03-21T13:37:24Z</time>
      </trkpt>
      <trkpt lat="50.68147" lon="1.63327">
        <ele>6</ele>
        <time>2017-03-21T13:39:24Z</time>
      </trkpt>
      <trkpt lat="50.68135" lon="1.63327">
        <ele>6</ele>
        <time>2017-03-21T13:41:24Z</time>
      </trkpt>
      <trkpt lat="50.68029" lon="1.63331">
        <ele>8</ele>
        <time>2017-03-21T13:43:24Z</time>
      </trkpt>
      <trkpt lat="50.67927" lon="1.63336">
        <ele>10</ele>
        <time>2017-03-21T13:45:24Z</time>
      </trkpt>
      <trkpt lat="50.67879" lon="1.63341">
        <ele>9</ele>
        <time>2017-03-21T13:47:24Z</time>
      </trkpt>
      <trkpt lat="50.67866" lon="1.63347">
        <ele>9</ele>
        <time>2017-03-21T13:49:24Z</time>
      </trkpt>
      <trkpt lat="50.67852" lon="1.63351">
        <ele>8</ele>
        <time>2017-03-21T13:51:24Z</time>
      </trkpt>
      <trkpt lat="50.67838" lon="1.63378">
        <ele>8</ele>
        <time>2017-03-21T13:53:24Z</time>
      </trkpt>
      <trkpt lat="50.67829" lon="1.63389">
        <ele>8</ele>
        <time>2017-03-21T13:55:24Z</time>
      </trkpt>
      <trkpt lat="50.67822" lon="1.63393">
        <ele>8</ele>
        <time>2017-03-21T13:57:24Z</time>
      </trkpt>
      <trkpt lat="50.67816" lon="1.63394">
        <ele>8</ele>
        <time>2017-03-21T13:59:24Z</time>
      </trkpt>
      <trkpt lat="50.67805" lon="1.63407">
        <ele>9</ele>
        <time>2017-03-21T14:01:24Z</time>
      </trkpt>
      <trkpt lat="50.67722" lon="1.63536">
        <ele>10</ele>
        <time>2017-03-21T14:03:24Z</time>
      </trkpt>
      <trkpt lat="50.67672" lon="1.6362">
        <ele>10</ele>
        <time>2017-03-21T14:05:24Z</time>
      </trkpt>
      <trkpt lat="50.67647" lon="1.63661">
        <ele>10</ele>
        <time>2017-03-21T14:07:24Z</time>
      </trkpt>
      <trkpt lat="50.67639" lon="1.63681">
        <ele>11</ele>
        <time>2017-03-21T14:09:24Z</time>
      </trkpt>
      <trkpt lat="50.67621" lon="1.6375">
        <ele>11</ele>
        <time>2017-03-21T14:11:24Z</time>
      </trkpt>
      <trkpt lat="50.67605" lon="1.63816">
        <ele>11</ele>
        <time>2017-03-21T14:13:24Z</time>
      </trkpt>
      <trkpt lat="50.67591" lon="1.63865">
        <ele>10</ele>
        <time>2017-03-21T14:15:24Z</time>
      </trkpt>
      <trkpt lat="50.67559" lon="1.6393">
        <ele>11</ele>
        <time>2017-03-21T14:17:24Z</time>
      </trkpt>
      <trkpt lat="50.67504" lon="1.64043">
        <ele>11</ele>
        <time>2017-03-21T14:19:24Z</time>
      </trkpt>
      <trkpt lat="50.67435" lon="1.64167">
        <ele>11</ele>
        <time>2017-03-21T14:21:24Z</time>
      </trkpt>
      <trkpt lat="50.67406" lon="1.64221">
        <ele>11</ele>
        <time>2017-03-21T14:23:24Z</time>
      </trkpt>
      <trkpt lat="50.67347" lon="1.64301">
        <ele>10</ele>
        <time>2017-03-21T14:25:24Z</time>
      </trkpt>
      <trkpt lat="50.67233" lon="1.6445">
        <ele>10</ele>
        <time>2017-03-21T14:27:24Z</time>
      </trkpt>
      <trkpt lat="50.67212" lon="1.64472">
        <ele>10</ele>
        <time>2017-03-21T14:29:24Z</time>
      </trkpt>
      <trkpt lat="50.67195" lon="1.64487">
        <ele>10</ele>
        <time>2017-03-21T14:31:24Z</time>
      </trkpt>
      <trkpt lat="50.67163" lon="1.64507">
        <ele>10</ele>
        <time>2017-03-21T14:33:24Z</time>
      </trkpt>
      <trkpt lat="50.67131" lon="1.6452">
        <ele>10</ele>
        <time>2017-03-21T14:35:24Z</time>
      </trkpt>
      <trkpt lat="50.67103" lon="1.64528">
        <ele>11</ele>
        <time>2017-03-21T14:37:24Z</time>
      </trkpt>
      <trkpt lat="50.67083" lon="1.64532">
        <ele>11</ele>
        <time>2017-03-21T14:39:24Z</time>
      </trkpt>
      <trkpt lat="50.67063" lon="1.64532">
        <ele>11</ele>
        <time>2017-03-21T14:41:24Z</time>
      </trkpt>
      <trkpt lat="50.67044" lon="1.64528">
        <ele>11</ele>
        <time>2017-03-21T14:43:24Z</time>
      </trkpt>
      <trkpt lat="50.66997" lon="1.64508">
        <ele>12</ele>
        <time>2017-03-21T14:45:24Z</time>
      </trkpt>
      <trkpt lat="50.66942" lon="1.64482">
        <ele>13</ele>
        <time>2017-03-21T14:47:24Z</time>
      </trkpt>
      <trkpt lat="50.66932" lon="1.64481">
        <ele>13</ele>
        <time>2017-03-21T14:49:24Z</time>
      </trkpt>
      <trkpt lat="50.66921" lon="1.64481">
        <ele>12</ele>
        <time>2017-03-21T14:51:24Z</time>
      </trkpt>
      <trkpt lat="50.66914" lon="1.64484">
        <ele>12</ele>
        <time>2017-03-21T14:53:24Z</time>
      </trkpt>
      <trkpt lat="50.66904" lon="1.6449">
        <ele>12</ele>
        <time>2017-03-21T14:55:24Z</time>
      </trkpt>
      <trkpt lat="50.66895" lon="1.64497">
        <ele>12</ele>
        <time>2017-03-21T14:57:24Z</time>
      </trkpt>
      <trkpt lat="50.66868" lon="1.64524">
        <ele>12</ele>
        <time>2017-03-21T14:59:24Z</time>
      </trkpt>
      <trkpt lat="50.66834" lon="1.64562">
        <ele>12</ele>
        <time>2017-03-21T15:01:24Z</time>
      </trkpt>
      <trkpt lat="50.66795" lon="1.64609">
        <ele>13</ele>
        <time>2017-03-21T15:03:24Z</time>
      </trkpt>
      <trkpt lat="50.66766" lon="1.64653">
        <ele>12</ele>
        <time>2017-03-21T15:05:24Z</time>
      </trkpt>
      <trkpt lat="50.66682" lon="1.64799">
        <ele>11</ele>
        <time>2017-03-21T15:07:24Z</time>
      </trkpt>
      <trkpt lat="50.66662" lon="1.64827">
        <ele>10</ele>
        <time>2017-03-21T15:09:24Z</time>
      </trkpt>
      <trkpt lat="50.66605" lon="1.64911">
        <ele>11</ele>
        <time>2017-03-21T15:11:24Z</time>
      </trkpt>
      <trkpt lat="50.66586" lon="1.64934">
        <ele>12</ele>
        <time>2017-03-21T15:13:24Z</time>
      </trkpt>
      <trkpt lat="50.66565" lon="1.6497">
        <ele>12</ele>
        <time>2017-03-21T15:15:24Z</time>
      </trkpt>
      <trkpt lat="50.66531" lon="1.65063">
        <ele>14</ele>
        <time>2017-03-21T15:17:24Z</time>
      </trkpt>
      <trkpt lat="50.66512" lon="1.65121">
        <ele>14</ele>
        <time>2017-03-21T15:19:24Z</time>
      </trkpt>
      <trkpt lat="50.6645" lon="1.65296">
        <ele>19</ele>
        <time>2017-03-21T15:21:24Z</time>
      </trkpt>
      <trkpt lat="50.66402" lon="1.65417">
        <ele>20</ele>
        <time>2017-03-21T15:23:24Z</time>
      </trkpt>
      <trkpt lat="50.66369" lon="1.65497">
        <ele>21</ele>
        <time>2017-03-21T15:25:24Z</time>
      </trkpt>
      <trkpt lat="50.66314" lon="1.65628">
        <ele>23</ele>
        <time>2017-03-21T15:27:24Z</time>
      </trkpt>
      <trkpt lat="50.6628" lon="1.65706">
        <ele>22</ele>
        <time>2017-03-21T15:29:24Z</time>
      </trkpt>
      <trkpt lat="50.66251" lon="1.65781">
        <ele>19</ele>
        <time>2017-03-21T15:31:24Z</time>
      </trkpt>
      <trkpt lat="50.66229" lon="1.65828">
        <ele>17</ele>
        <time>2017-03-21T15:33:24Z</time>
      </trkpt>
      <trkpt lat="50.66216" lon="1.65849">
        <ele>17</ele>
        <time>2017-03-21T15:35:24Z</time>
      </trkpt>
      <trkpt lat="50.66168" lon="1.65925">
        <ele>15</ele>
        <time>2017-03-21T15:37:24Z</time>
      </trkpt>
      <trkpt lat="50.66136" lon="1.65969">
        <ele>13</ele>
        <time>2017-03-21T15:39:24Z</time>
      </trkpt>
      <trkpt lat="50.66059" lon="1.6606">
        <ele>12</ele>
        <time>2017-03-21T15:41:24Z</time>
      </trkpt>
      <trkpt lat="50.66041" lon="1.66083">
        <ele>13</ele>
        <time>2017-03-21T15:43:24Z</time>
      </trkpt>
      <trkpt lat="50.66017" lon="1.66121">
        <ele>12</ele>
        <time>2017-03-21T15:45:24Z</time>
      </trkpt>
      <trkpt lat="50.65995" lon="1.66165">
        <ele>12</ele>
        <time>2017-03-21T15:47:24Z</time>
      </trkpt>
      <trkpt lat="50.65984" lon="1.66188">
        <ele>12</ele>
        <time>2017-03-21T15:49:24Z</time>
      </trkpt>
      <trkpt lat="50.6598" lon="1.66208">
        <ele>12</ele>
        <time>2017-03-21T15:51:24Z</time>
      </trkpt>
      <trkpt lat="50.65981" lon="1.66222">
        <ele>12</ele>
        <time>2017-03-21T15:53:24Z</time>
      </trkpt>
      <trkpt lat="50.65986" lon="1.66245">
        <ele>12</ele>
        <time>2017-03-21T15:55:24Z</time>
      </trkpt>
      <trkpt lat="50.66002" lon="1.66293">
        <ele>13</ele>
        <time>2017-03-21T15:57:24Z</time>
      </trkpt>
      <trkpt lat="50.66012" lon="1.66359">
        <ele>13</ele>
        <time>2017-03-21T15:59:24Z</time>
      </trkpt>
      <trkpt lat="50.66013" lon="1.66388">
        <ele>13</ele>
        <time>2017-03-21T16:01:24Z</time>
      </trkpt>
      <trkpt lat="50.66009" lon="1.6646">
        <ele>13</ele>
        <time>2017-03-21T16:03:24Z</time>
      </trkpt>
      <trkpt lat="50.65995" lon="1.66601">
        <ele>12</ele>
        <time>2017-03-21T16:05:24Z</time>
      </trkpt>
      <trkpt lat="50.65998" lon="1.66634">
        <ele>11</ele>
        <time>2017-03-21T16:07:24Z</time>
      </trkpt>
      <trkpt lat="50.66009" lon="1.66736">
        <ele>11</ele>
        <time>2017-03-21T16:09:24Z</time>
      </trkpt>
      <trkpt lat="50.66014" lon="1.66766">
        <ele>11</ele>
        <time>2017-03-21T16:11:24Z</time>
      </trkpt>
      <trkpt lat="50.66019" lon="1.66783">
        <ele>11</ele>
        <time>2017-03-21T16:13:24Z</time>
      </trkpt>
      <trkpt lat="50.66026" lon="1.66794">
        <ele>11</ele>
        <time>2017-03-21T16:15:24Z</time>
      </trkpt>
      <trkpt lat="50.66052" lon="1.66822">
        <ele>11</ele>
        <time>2017-03-21T16:17:24Z</time>
      </trkpt>
      <trkpt lat="50.6606" lon="1.66833">
        <ele>11</ele>
        <time>2017-03-21T16:19:24Z</time>
      </trkpt>
      <trkpt lat="50.66061" lon="1.6685">
        <ele>11</ele>
        <time>2017-03-21T16:21:24Z</time>
      </trkpt>
      <trkpt lat="50.66056" lon="1.66867">
        <ele>11</ele>
        <time>2017-03-21T16:23:24Z</time>
      </trkpt>
      <trkpt lat="50.66023" lon="1.66929">
        <ele>12</ele>
        <time>2017-03-21T16:25:24Z</time>
      </trkpt>
      <trkpt lat="50.65997" lon="1.66979">
        <ele>12</ele>
        <time>2017-03-21T16:27:24Z</time>
      </trkpt>
      <trkpt lat="50.65979" lon="1.67036">
        <ele>13</ele>
        <time>2017-03-21T16:29:24Z</time>
      </trkpt>
      <trkpt lat="50.65961" lon="1.67099">
        <ele>13</ele>
        <time>2017-03-21T16:31:24Z</time>
      </trkpt>
      <trkpt lat="50.65949" lon="1.6713">
        <ele>13</ele>
        <time>2017-03-21T16:33:24Z</time>
      </trkpt>
      <trkpt lat="50.65943" lon="1.67147">
        <ele>13</ele>
        <time>2017-03-21T16:35:24Z</time>
      </trkpt>
      <trkpt lat="50.65934" lon="1.67153">
        <ele>13</ele>
        <time>2017-03-21T16:37:24Z</time>
      </trkpt>
      <trkpt lat="50.65896" lon="1.67171">
        <ele>13</ele>
        <time>2017-03-21T16:39:24Z</time>
      </trkpt>
      <trkpt lat="50.6589" lon="1.67176">
        <ele>14</ele>
        <time>2017-03-21T16:41:24Z</time>
      </trkpt>
      <trkpt lat="50.65882" lon="1.67193">
        <ele>14</ele>
        <time>2017-03-21T16:43:24Z</time>
      </trkpt>
      <trkpt lat="50.6587" lon="1.67227">
        <ele>14</ele>
        <time>2017-03-21T16:45:24Z</time>
      </trkpt>
      <trkpt lat="50.65846" lon="1.67309">
        <ele>13</ele>
        <time>2017-03-21T16:47:24Z</time>
      </trkpt>
      <trkpt lat="50.65823" lon="1.67375">
        <ele>13</ele>
        <time>2017-03-21T16:49:24Z</time>
      </trkpt>
      <trkpt lat="50.65803" lon="1.67407">
        <ele>13</ele>
        <time>2017-03-21T16:51:24Z</time>
      </trkpt>
      <trkpt lat="50.65768" lon="1.67447">
        <ele>14</ele>
        <time>2017-03-21T16:53:24Z</time>
      </trkpt>
      <trkpt lat="50.65744" lon="1.67472">
        <ele>14</ele>
        <time>2017-03-21T16:55:24Z</time>
      </trkpt>
      <trkpt lat="50.65729" lon="1.67479">
        <ele>14</ele>
        <time>2017-03-21T16:57:24Z</time>
      </trkpt>
      <trkpt lat="50.65709" lon="1.67482">
        <ele>14</ele>
        <time>2017-03-21T16:59:24Z</time>
      </trkpt>
      <trkpt lat="50.65687" lon="1.6749">
        <ele>14</ele>
        <time>2017-03-21T17:01:24Z</time>
      </trkpt>
      <trkpt lat="50.65676" lon="1.67497">
        <ele>14</ele>
        <time>2017-03-21T17:03:24Z</time>
      </trkpt>
      <trkpt lat="50.65664" lon="1.67509">
        <ele>14</ele>
        <time>2017-03-21T17:05:24Z</time>
      </trkpt>
      <trkpt lat="50.65654" lon="1.67522">
        <ele>13</ele>
        <time>2017-03-21T17:07:24Z</time>
      </trkpt>
      <trkpt lat="50.65624" lon="1.67587">
        <ele>12</ele>
        <time>2017-03-21T17:09:24Z</time>
      </trkpt>
      <trkpt lat="50.65597" lon="1.6765">
        <ele>13</ele>
        <time>2017-03-21T17:11:24Z</time>
      </trkpt>
      <trkpt lat="50.65567" lon="1.67738">
        <ele>13</ele>
        <time>2017-03-21T17:13:24Z</time>
      </trkpt>
      <trkpt lat="50.65553" lon="1.67804">
        <ele>14</ele>
        <time>2017-03-21T17:15:24Z</time>
      </trkpt>
      <trkpt lat="50.65551" lon="1.67832">
        <ele>15</ele>
        <time>2017-03-21T17:17:24Z</time>
      </trkpt>
      <trkpt lat="50.65556" lon="1.67871">
        <ele>16</ele>
        <time>2017-03-21T17:19:24Z</time>
      </trkpt>
      <trkpt lat="50.6557" lon="1.67934">
        <ele>16</ele>
        <time>2017-03-21T17:21:24Z</time>
      </trkpt>
      <trkpt lat="50.65576" lon="1.67986">
        <ele>16</ele>
        <time>2017-03-21T17:23:24Z</time>
      </trkpt>
      <trkpt lat="50.65579" lon="1.68097">
        <ele>18</ele>
        <time>2017-03-21T17:25:24Z</time>
      </trkpt>
      <trkpt lat="50.65579" lon="1.68153">
        <ele>18</ele>
        <time>2017-03-21T17:27:24Z</time>
      </trkpt>
      <trkpt lat="50.65569" lon="1.68269">
        <ele>20</ele>
        <time>2017-03-21T17:29:24Z</time>
      </trkpt>
      <trkpt lat="50.65561" lon="1.6834">
        <ele>21</ele>
        <time>2017-03-21T17:31:24Z</time>
      </trkpt>
      <trkpt lat="50.65555" lon="1.68405">
        <ele>20</ele>
        <time>2017-03-21T17:33:24Z</time>
      </trkpt>
      <trkpt lat="50.65545" lon="1.6846">
        <ele>20</ele>
        <time>2017-03-21T17:35:24Z</time>
      </trkpt>
      <trkpt lat="50.65535" lon="1.685">
        <ele>21</ele>
        <time>2017-03-21T17:37:24Z</time>
      </trkpt>
      <trkpt lat="50.6546" lon="1.68779">
        <ele>22</ele>
        <time>2017-03-21T17:39:24Z</time>
      </trkpt>
      <trkpt lat="50.6543" lon="1.68876">
        <ele>21</ele>
        <time>2017-03-21T17:41:24Z</time>
      </trkpt>
      <trkpt lat="50.65394" lon="1.68967">
        <ele>19</ele>
        <time>2017-03-21T17:43:24Z</time>
      </trkpt>
      <trkpt lat="50.65342" lon="1.6923">
        <ele>16</ele>
        <time>2017-03-21T17:45:24Z</time>
      </trkpt>
      <trkpt lat="50.65322" lon="1.69344">
        <ele>18</ele>
        <time>2017-03-21T17:47:24Z</time>
      </trkpt>
      <trkpt lat="50.65317" lon="1.69423">
        <ele>19</ele>
        <time>2017-03-21T17:49:24Z</time>
      </trkpt>
      <trkpt lat="50.65318" lon="1.69457">
        <ele>19</ele>
        <time>2017-03-21T17:51:24Z</time>
      </trkpt>
      <trkpt lat="50.65336" lon="1.69587">
        <ele>20</ele>
        <time>2017-03-21T17:53:24Z</time>
      </trkpt>
      <trkpt lat="50.65335" lon="1.6971">
        <ele>21</ele>
        <time>2017-03-21T17:55:24Z</time>
      </trkpt>
      <trkpt lat="50.65326" lon="1.69828">
        <ele>23</ele>
        <time>2017-03-21T17:57:24Z</time>
      </trkpt>
      <trkpt lat="50.65329" lon="1.69961">
        <ele>22</ele>
        <time>2017-03-21T17:59:24Z</time>
      </trkpt>
      <trkpt lat="50.65325" lon="1.69995">
        <ele>23</ele>
        <time>2017-03-21T18:01:24Z</time>
      </trkpt>
      <trkpt lat="50.65316" lon="1.70028">
        <ele>23</ele>
        <time>2017-03-21T18:03:24Z</time>
      </trkpt>
      <trkpt lat="50.65308" lon="1.70053">
        <ele>23</ele>
        <time>2017-03-21T18:05:24Z</time>
      </trkpt>
      <trkpt lat="50.65281" lon="1.70122">
        <ele>22</ele>
        <time>2017-03-21T18:07:24Z</time>
      </trkpt>
      <trkpt lat="50.65265" lon="1.70152">
        <ele>21</ele>
        <time>2017-03-21T18:09:24Z</time>
      </trkpt>
      <trkpt lat="50.65256" lon="1.70164">
        <ele>21</ele>
        <time>2017-03-21T18:11:24Z</time>
      </trkpt>
      <trkpt lat="50.65234" lon="1.70184">
        <ele>20</ele>
        <time>2017-03-21T18:13:24Z</time>
      </trkpt>
      <trkpt lat="50.65211" lon="1.70198">
        <ele>18</ele>
        <time>2017-03-21T18:15:24Z</time>
      </trkpt>
      <trkpt lat="50.652" lon="1.70206">
        <ele>18</ele>
        <time>2017-03-21T18:17:24Z</time>
      </trkpt>
      <trkpt lat="50.65187" lon="1.70222">
        <ele>17</ele>
        <time>2017-03-21T18:19:24Z</time>
      </trkpt>
      <trkpt lat="50.65166" lon="1.70253">
        <ele>16</ele>
        <time>2017-03-21T18:21:24Z</time>
      </trkpt>
      <trkpt lat="50.65159" lon="1.70259">
        <ele>16</ele>
        <time>2017-03-21T18:23:24Z</time>
      </trkpt>
      <trkpt lat="50.65144" lon="1.70265">
        <ele>16</ele>
        <time>2017-03-21T18:25:24Z</time>
      </trkpt>
      <trkpt lat="50.65121" lon="1.70268">
        <ele>17</ele>
        <time>2017-03-21T18:27:24Z</time>
      </trkpt>
      <trkpt lat="50.65091" lon="1.70276">
        <ele>17</ele>
        <time>2017-03-21T18:29:24Z</time>
      </trkpt>
      <trkpt lat="50.65062" lon="1.70289">
        <ele>19</ele>
        <time>2017-03-21T18:31:24Z</time>
      </trkpt>
      <trkpt lat="50.6505" lon="1.703">
        <ele>20</ele>
        <time>2017-03-21T18:33:24Z</time>
      </trkpt>
      <trkpt lat="50.65031" lon="1.70327">
        <ele>21</ele>
        <time>2017-03-21T18:35:24Z</time>
      </trkpt>
      <trkpt lat="50.65025" lon="1.70351">
        <ele>21</ele>
        <time>2017-03-21T18:37:24Z</time>
      </trkpt>
      <trkpt lat="50.65023" lon="1.70396">
        <ele>20</ele>
        <time>2017-03-21T18:39:24Z</time>
      </trkpt>
      <trkpt lat="50.65035" lon="1.7048">
        <ele>18</ele>
        <time>2017-03-21T18:41:24Z</time>
      </trkpt>
      <trkpt lat="50.65036" lon="1.70509">
        <ele>17</ele>
        <time>2017-03-21T18:43:24Z</time>
      </trkpt>
      <trkpt lat="50.65033" lon="1.70537">
        <ele>16</ele>
        <time>2017-03-21T18:45:24Z</time>
      </trkpt>
      <trkpt lat="50.65012" lon="1.70677">
        <ele>13</ele>
        <time>2017-03-21T18:47:24Z</time>
      </trkpt>
      <trkpt lat="50.65008" lon="1.70699">
        <ele>13</ele>
        <time>2017-03-21T18:49:24Z</time>
      </trkpt>
      <trkpt lat="50.65001" lon="1.70733">
        <ele>13</ele>
        <time>2017-03-21T18:51:24Z</time>
      </trkpt>
      <trkpt lat="50.64976" lon="1.70798">
        <ele>13</ele>
        <time>2017-03-21T18:53:24Z</time>
      </trkpt>
      <trkpt lat="50.64951" lon="1.70855">
        <ele>13</ele>
        <time>2017-03-21T18:55:24Z</time>
      </trkpt>
      <trkpt lat="50.64799" lon="1.71208">
        <ele>19</ele>
        <time>2017-03-21T18:57:24Z</time>
      </trkpt>
      <trkpt lat="50.64792" lon="1.71241">
        <ele>19</ele>
        <time>2017-03-21T18:59:24Z</time>
      </trkpt>
      <trkpt lat="50.64796" lon="1.7144">
        <ele>17</ele>
        <time>2017-03-21T19:01:24Z</time>
      </trkpt>
      <trkpt lat="50.64801" lon="1.71616">
        <ele>16</ele>
        <time>2017-03-21T19:03:24Z</time>
      </trkpt>
      <trkpt lat="50.64799" lon="1.71695">
        <ele>16</ele>
        <time>2017-03-21T19:05:24Z</time>
      </trkpt>
      <trkpt lat="50.64795" lon="1.71753">
        <ele>16</ele>
        <time>2017-03-21T19:07:24Z</time>
      </trkpt>
      <trkpt lat="50.64787" lon="1.7181">
        <ele>16</ele>
        <time>2017-03-21T19:09:24Z</time>
      </trkpt>
      <trkpt lat="50.64755" lon="1.71978">
        <ele>15</ele>
        <time>2017-03-21T19:11:24Z</time>
      </trkpt>
      <trkpt lat="50.64744" lon="1.72041">
        <ele>14</ele>
        <time>2017-03-21T19:13:24Z</time>
      </trkpt>
      <trkpt lat="50.64728" lon="1.72168">
        <ele>14</ele>
        <time>2017-03-21T19:15:24Z</time>
      </trkpt>
      <trkpt lat="50.64717" lon="1.72219">
        <ele>14</ele>
        <time>2017-03-21T19:17:24Z</time>
      </trkpt>
      <trkpt lat="50.64703" lon="1.72258">
        <ele>15</ele>
        <time>2017-03-21T19:19:24Z</time>
      </trkpt>
      <trkpt lat="50.64677" lon="1.72314">
        <ele>16</ele>
        <time>2017-03-21T19:21:24Z</time>
      </trkpt>
      <trkpt lat="50.64644" lon="1.72381">
        <ele>18</ele>
        <time>2017-03-21T19:23:24Z</time>
      </trkpt>
      <trkpt lat="50.64631" lon="1.72416">
        <ele>19</ele>
        <time>2017-03-21T19:25:24Z</time>
      </trkpt>
      <trkpt lat="50.6462" lon="1.72455">
        <ele>20</ele>
        <time>2017-03-21T19:27:24Z</time>
      </trkpt>
      <trkpt lat="50.6459" lon="1.72594">
        <ele>22</ele>
        <time>2017-03-21T19:29:24Z</time>
      </trkpt>
      <trkpt lat="50.64518" lon="1.72931">
        <ele>28</ele>
        <time>2017-03-21T19:31:24Z</time>
      </trkpt>
      <trkpt lat="50.64505" lon="1.72982">
        <ele>29</ele>
        <time>2017-03-21T19:33:24Z</time>
      </trkpt>
      <trkpt lat="50.64491" lon="1.73026">
        <ele>31</ele>
        <time>2017-03-21T19:35:24Z</time>
      </trkpt>
      <trkpt lat="50.64467" lon="1.73083">
        <ele>33</ele>
        <time>2017-03-21T19:37:24Z</time>
      </trkpt>
      <trkpt lat="50.64446" lon="1.73138">
        <ele>34</ele>
        <time>2017-03-21T19:39:24Z</time>
      </trkpt>
      <trkpt lat="50.64441" lon="1.7316">
        <ele>35</ele>
        <time>2017-03-21T19:41:24Z</time>
      </trkpt>
      <trkpt lat="50.64399" lon="1.73375">
        <ele>40</ele>
        <time>2017-03-21T19:43:24Z</time>
      </trkpt>
      <trkpt lat="50.64386" lon="1.73422">
        <ele>41</ele>
        <time>2017-03-21T19:45:24Z</time>
      </trkpt>
      <trkpt lat="50.64366" lon="1.73476">
        <ele>43</ele>
        <time>2017-03-21T19:47:24Z</time>
      </trkpt>
      <trkpt lat="50.64356" lon="1.735">
        <ele>44</ele>
        <time>2017-03-21T19:49:24Z</time>
      </trkpt>
      <trkpt lat="50.64344" lon="1.7352">
        <ele>44</ele>
        <time>2017-03-21T19:51:24Z</time>
      </trkpt>
      <trkpt lat="50.64324" lon="1.73544">
        <ele>45</ele>
        <time>2017-03-21T19:53:24Z</time>
      </trkpt>
      <trkpt lat="50.64295" lon="1.73568">
        <ele>46</ele>
        <time>2017-03-21T19:55:24Z</time>
      </trkpt>
      <trkpt lat="50.64252" lon="1.73599">
        <ele>49</ele>
        <time>2017-03-21T19:57:24Z</time>
      </trkpt>
      <trkpt lat="50.64162" lon="1.73697">
        <ele>53</ele>
        <time>2017-03-21T19:59:24Z</time>
      </trkpt>
      <trkpt lat="50.64148" lon="1.73716">
        <ele>54</ele>
        <time>2017-03-21T20:01:24Z</time>
      </trkpt>
      <trkpt lat="50.64138" lon="1.73737">
        <ele>55</ele>
        <time>2017-03-21T20:03:24Z</time>
      </trkpt>
      <trkpt lat="50.64076" lon="1.73918">
        <ele>60</ele>
        <time>2017-03-21T20:05:24Z</time>
      </trkpt>
      <trkpt lat="50.64048" lon="1.73988">
        <ele>61</ele>
        <time>2017-03-21T20:07:24Z</time>
      </trkpt>
      <trkpt lat="50.64021" lon="1.74049">
        <ele>63</ele>
        <time>2017-03-21T20:09:24Z</time>
      </trkpt>
      <trkpt lat="50.64011" lon="1.74084">
        <ele>63</ele>
        <time>2017-03-21T20:11:24Z</time>
      </trkpt>
      <trkpt lat="50.63994" lon="1.74146">
        <ele>65</ele>
        <time>2017-03-21T20:13:24Z</time>
      </trkpt>
      <trkpt lat="50.63986" lon="1.74193">
        <ele>65</ele>
        <time>2017-03-21T20:15:24Z</time>
      </trkpt>
      <trkpt lat="50.63977" lon="1.74253">
        <ele>67</ele>
        <time>2017-03-21T20:17:24Z</time>
      </trkpt>
      <trkpt lat="50.63973" lon="1.74276">
        <ele>67</ele>
        <time>2017-03-21T20:19:24Z</time>
      </trkpt>
      <trkpt lat="50.63937" lon="1.74295">
        <ele>67</ele>
        <time>2017-03-21T20:21:24Z</time>
      </trkpt>
      <trkpt lat="50.63897" lon="1.7432">
        <ele>67</ele>
        <time>2017-03-21T20:23:24Z</time>
      </trkpt>
      <trkpt lat="50.63883" lon="1.74327">
        <ele>66</ele>
        <time>2017-03-21T20:25:24Z</time>
      </trkpt>
      <trkpt lat="50.63911" lon="1.74473">
        <ele>73</ele>
        <time>2017-03-21T20:27:24Z</time>
      </trkpt>
      <trkpt lat="50.63918" lon="1.7449">
        <ele>74</ele>
        <time>2017-03-21T20:29:24Z</time>
      </trkpt>
      <trkpt lat="50.63941" lon="1.74533">
        <ele>74</ele>
        <time>2017-03-21T20:31:24Z</time>
      </trkpt>
      <trkpt lat="50.63971" lon="1.74608">
        <ele>75</ele>
        <time>2017-03-21T20:33:24Z</time>
      </trkpt>
      <trkpt lat="50.63984" lon="1.74643">
        <ele>76</ele>
        <time>2017-03-21T20:35:24Z</time>
      </trkpt>
      <trkpt lat="50.64012" lon="1.74743">
        <ele>77</ele>
        <time>2017-03-21T20:37:24Z</time>
      </trkpt>
      <trkpt lat="50.64049" lon="1.74872">
        <ele>77</ele>
        <time>2017-03-21T20:39:24Z</time>
      </trkpt>
      <trkpt lat="50.64053" lon="1.74895">
        <ele>76</ele>
        <time>2017-03-21T20:41:24Z</time>
      </trkpt>
      <trkpt lat="50.64057" lon="1.74939">
        <ele>75</ele>
        <time>2017-03-21T20:43:24Z</time>
      </trkpt>
      <trkpt lat="50.64057" lon="1.74986">
        <ele>73</ele>
        <time>2017-03-21T20:45:24Z</time>
      </trkpt>
      <trkpt lat="50.64052" lon="1.75029">
        <ele>70</ele>
        <time>2017-03-21T20:47:24Z</time>
      </trkpt>
      <trkpt lat="50.64034" lon="1.75142">
        <ele>61</ele>
        <time>2017-03-21T20:49:24Z</time>
      </trkpt>
      <trkpt lat="50.64029" lon="1.75198">
        <ele>59</ele>
        <time>2017-03-21T20:51:24Z</time>
      </trkpt>
      <trkpt lat="50.64013" lon="1.75289">
        <ele>55</ele>
        <time>2017-03-21T20:53:24Z</time>
      </trkpt>
      <trkpt lat="50.63978" lon="1.75563">
        <ele>60</ele>
        <time>2017-03-21T20:55:24Z</time>
      </trkpt>
      <trkpt lat="50.63933" lon="1.75894">
        <ele>66</ele>
        <time>2017-03-21T20:57:24Z</time>
      </trkpt>
      <trkpt lat="50.63904" lon="1.76109">
        <ele>68</ele>
        <time>2017-03-21T20:59:24Z</time>
      </trkpt>
      <trkpt lat="50.63864" lon="1.76409">
        <ele>72</ele>
        <time>2017-03-21T21:01:24Z</time>
      </trkpt>
      <trkpt lat="50.63842" lon="1.76569">
        <ele>75</ele>
        <time>2017-03-21T21:03:24Z</time>
      </trkpt>
      <trkpt lat="50.63826" lon="1.76698">
        <ele>77</ele>
        <time>2017-03-21T21:05:24Z</time>
      </trkpt>
      <trkpt lat="50.63808" lon="1.76827">
        <ele>80</ele>
        <time>2017-03-21T21:07:24Z</time>
      </trkpt>
      <trkpt lat="50.638" lon="1.76872">
        <ele>81</ele>
        <time>2017-03-21T21:09:24Z</time>
      </trkpt>
      <trkpt lat="50.63745" lon="1.77059">
        <ele>87</ele>
        <time>2017-03-21T21:11:24Z</time>
      </trkpt>
      <trkpt lat="50.63544" lon="1.77738">
        <ele>102</ele>
        <time>2017-03-21T21:13:24Z</time>
      </trkpt>
      <trkpt lat="50.6347" lon="1.77989">
        <ele>123</ele>
        <time>2017-03-21T21:15:24Z</time>
      </trkpt>
      <trkpt lat="50.63461" lon="1.78038">
        <ele>128</ele>
        <time>2017-03-21T21:17:24Z</time>
      </trkpt>
      <trkpt lat="50.63461" lon="1.78077">
        <ele>131</ele>
        <time>2017-03-21T21:19:24Z</time>
      </trkpt>
      <trkpt lat="50.63467" lon="1.78118">
        <ele>131</ele>
        <time>2017-03-21T21:21:24Z</time>
      </trkpt>
      <trkpt lat="50.63477" lon="1.78149">
        <ele>129</ele>
        <time>2017-03-21T21:23:24Z</time>
      </trkpt>
      <trkpt lat="50.63617" lon="1.78485">
        <ele>124</ele>
        <time>2017-03-21T21:25:24Z</time>
      </trkpt>
      <trkpt lat="50.63651" lon="1.7856">
        <ele>124</ele>
        <time>2017-03-21T21:27:24Z</time>
      </trkpt>
      <trkpt lat="50.63701" lon="1.78647">
        <ele>124</ele>
        <time>2017-03-21T21:29:24Z</time>
      </trkpt>
      <trkpt lat="50.63734" lon="1.78711">
        <ele>126</ele>
        <time>2017-03-21T21:31:24Z</time>
      </trkpt>
      <trkpt lat="50.63756" lon="1.7876">
        <ele>127</ele>
        <time>2017-03-21T21:33:24Z</time>
      </trkpt>
      <trkpt lat="50.63766" lon="1.78791">
        <ele>129</ele>
        <time>2017-03-21T21:35:24Z</time>
      </trkpt>
      <trkpt lat="50.63819" lon="1.78965">
        <ele>134</ele>
        <time>2017-03-21T21:37:24Z</time>
      </trkpt>
      <trkpt lat="50.6383" lon="1.78992">
        <ele>133</ele>
        <time>2017-03-21T21:39:24Z</time>
      </trkpt>
      <trkpt lat="50.63845" lon="1.79024">
        <ele>135</ele>
        <time>2017-03-21T21:41:24Z</time>
      </trkpt>
      <trkpt lat="50.63887" lon="1.79091">
        <ele>137</ele>
        <time>2017-03-21T21:43:24Z</time>
      </trkpt>
      <trkpt lat="50.63906" lon="1.79116">
        <ele>136</ele>
        <time>2017-03-21T21:45:24Z</time>
      </trkpt>
      <trkpt lat="50.63935" lon="1.79148">
        <ele>134</ele>
        <time>2017-03-21T21:47:24Z</time>
      </trkpt>
      <trkpt lat="50.63957" lon="1.7917">
        <ele>132</ele>
        <time>2017-03-21T21:49:24Z</time>
      </trkpt>
      <trkpt lat="50.63994" lon="1.79216">
        <ele>132</ele>
        <time>2017-03-21T21:51:24Z</time>
      </trkpt>
      <trkpt lat="50.64071" lon="1.79319">
        <ele>130</ele>
        <time>2017-03-21T21:53:24Z</time>
      </trkpt>
      <trkpt lat="50.64138" lon="1.79411">
        <ele>130</ele>
        <time>2017-03-21T21:55:24Z</time>
      </trkpt>
      <trkpt lat="50.64157" lon="1.79441">
        <ele>130</ele>
        <time>2017-03-21T21:57:24Z</time>
      </trkpt>
      <trkpt lat="50.64177" lon="1.79483">
        <ele>131</ele>
        <time>2017-03-21T21:59:24Z</time>
      </trkpt>
      <trkpt lat="50.64222" lon="1.79593">
        <ele>132</ele>
        <time>2017-03-21T22:01:24Z</time>
      </trkpt>
      <trkpt lat="50.64268" lon="1.79725">
        <ele>134</ele>
        <time>2017-03-21T22:03:24Z</time>
      </trkpt>
      <trkpt lat="50.64288" lon="1.7978">
        <ele>134</ele>
        <time>2017-03-21T22:05:24Z</time>
      </trkpt>
      <trkpt lat="50.64304" lon="1.79817">
        <ele>132</ele>
        <time>2017-03-21T22:07:24Z</time>
      </trkpt>
      <trkpt lat="50.64313" lon="1.79833">
        <ele>130</ele>
        <time>2017-03-21T22:09:24Z</time>
      </trkpt>
      <trkpt lat="50.64326" lon="1.79847">
        <ele>127</ele>
        <time>2017-03-21T22:11:24Z</time>
      </trkpt>
      <trkpt lat="50.64362" lon="1.79875">
        <ele>122</ele>
        <time>2017-03-21T22:13:24Z</time>
      </trkpt>
      <trkpt lat="50.64377" lon="1.79891">
        <ele>120</ele>
        <time>2017-03-21T22:15:24Z</time>
      </trkpt>
      <trkpt lat="50.64388" lon="1.79907">
        <ele>118</ele>
        <time>2017-03-21T22:17:24Z</time>
      </trkpt>
      <trkpt lat="50.64403" lon="1.79936">
        <ele>116</ele>
        <time>2017-03-21T22:19:24Z</time>
      </trkpt>
      <trkpt lat="50.64416" lon="1.7997">
        <ele>114</ele>
        <time>2017-03-21T22:21:24Z</time>
      </trkpt>
      <trkpt lat="50.64431" lon="1.8002">
        <ele>113</ele>
        <time>2017-03-21T22:23:24Z</time>
      </trkpt>
      <trkpt lat="50.64442" lon="1.80065">
        <ele>111</ele>
        <time>2017-03-21T22:25:24Z</time>
      </trkpt>
      <trkpt lat="50.64472" lon="1.80213">
        <ele>109</ele>
        <time>2017-03-21T22:27:24Z</time>
      </trkpt>
      <trkpt lat="50.64494" lon="1.80326">
        <ele>109</ele>
        <time>2017-03-21T22:29:24Z</time>
      </trkpt>
      <trkpt lat="50.64508" lon="1.80384">
        <ele>112</ele>
        <time>2017-03-21T22:31:24Z</time>
      </trkpt>
      <trkpt lat="50.64531" lon="1.80486">
        <ele>117</ele>
        <time>2017-03-21T22:33:24Z</time>
      </trkpt>
      <trkpt lat="50.64534" lon="1.80514">
        <ele>118</ele>
        <time>2017-03-21T22:35:24Z</time>
      </trkpt>
      <trkpt lat="50.64533" lon="1.80556">
        <ele>122</ele>
        <time>2017-03-21T22:37:24Z</time>
      </trkpt>
      <trkpt lat="50.64533" lon="1.80635">
        <ele>127</ele>
        <time>2017-03-21T22:39:24Z</time>
      </trkpt>
      <trkpt lat="50.64555" lon="1.80831">
        <ele>134</ele>
        <time>2017-03-21T22:41:24Z</time>
      </trkpt>
      <trkpt lat="50.64571" lon="1.80955">
        <ele>142</ele>
        <time>2017-03-21T22:43:24Z</time>
      </trkpt>
      <trkpt lat="50.64581" lon="1.80989">
        <ele>142</ele>
        <time>2017-03-21T22:45:24Z</time>
      </trkpt>
      <trkpt lat="50.64624" lon="1.81098">
        <ele>145</ele>
        <time>2017-03-21T22:47:24Z</time>
      </trkpt>
      <trkpt lat="50.64703" lon="1.81291">
        <ele>144</ele>
        <time>2017-03-21T22:49:24Z</time>
      </trkpt>
      <trkpt lat="50.64751" lon="1.81406">
        <ele>147</ele>
        <time>2017-03-21T22:51:24Z</time>
      </trkpt>
      <trkpt lat="50.64786" lon="1.81486">
        <ele>150</ele>
        <time>2017-03-21T22:53:24Z</time>
      </trkpt>
      <trkpt lat="50.64826" lon="1.81558">
        <ele>149</ele>
        <time>2017-03-21T22:55:24Z</time>
      </trkpt>
      <trkpt lat="50.64851" lon="1.81598">
        <ele>148</ele>
        <time>2017-03-21T22:57:24Z</time>
      </trkpt>
      <trkpt lat="50.64867" lon="1.81623">
        <ele>147</ele>
        <time>2017-03-21T22:59:24Z</time>
      </trkpt>
      <trkpt lat="50.64887" lon="1.81659">
        <ele>145</ele>
        <time>2017-03-21T23:01:24Z</time>
      </trkpt>
      <trkpt lat="50.64906" lon="1.817">
        <ele>143</ele>
        <time>2017-03-21T23:03:24Z</time>
      </trkpt>
      <trkpt lat="50.6493" lon="1.8177">
        <ele>143</ele>
        <time>2017-03-21T23:05:24Z</time>
      </trkpt>
      <trkpt lat="50.64973" lon="1.81946">
        <ele>141</ele>
        <time>2017-03-21T23:07:24Z</time>
      </trkpt>
      <trkpt lat="50.65003" lon="1.8207">
        <ele>138</ele>
        <time>2017-03-21T23:09:24Z</time>
      </trkpt>
      <trkpt lat="50.65021" lon="1.82128">
        <ele>139</ele>
        <time>2017-03-21T23:11:24Z</time>
      </trkpt>
      <trkpt lat="50.65038" lon="1.82166">
        <ele>136</ele>
        <time>2017-03-21T23:13:24Z</time>
      </trkpt>
      <trkpt lat="50.65046" lon="1.82188">
        <ele>134</ele>
        <time>2017-03-21T23:15:24Z</time>
      </trkpt>
      <trkpt lat="50.65052" lon="1.8221">
        <ele>133</ele>
        <time>2017-03-21T23:17:24Z</time>
      </trkpt>
      <trkpt lat="50.65055" lon="1.82231">
        <ele>133</ele>
        <time>2017-03-21T23:19:24Z</time>
      </trkpt>
      <trkpt lat="50.65057" lon="1.82274">
        <ele>134</ele>
        <time>2017-03-21T23:21:24Z</time>
      </trkpt>
      <trkpt lat="50.65066" lon="1.82308">
        <ele>133</ele>
        <time>2017-03-21T23:23:24Z</time>
      </trkpt>
      <trkpt lat="50.65075" lon="1.82326">
        <ele>131</ele>
        <time>2017-03-21T23:25:24Z</time>
      </trkpt>
      <trkpt lat="50.651" lon="1.82359">
        <ele>131</ele>
        <time>2017-03-21T23:27:24Z</time>
      </trkpt>
      <trkpt lat="50.65177" lon="1.82463">
        <ele>129</ele>
        <time>2017-03-21T23:29:24Z</time>
      </trkpt>
      <trkpt lat="50.65232" lon="1.82544">
        <ele>127</ele>
        <time>2017-03-21T23:31:24Z</time>
      </trkpt>
      <trkpt lat="50.6531" lon="1.8265">
        <ele>125</ele>
        <time>2017-03-21T23:33:24Z</time>
      </trkpt>
      <trkpt lat="50.65334" lon="1.82686">
        <ele>125</ele>
        <time>2017-03-21T23:35:24Z</time>
      </trkpt>
      <trkpt lat="50.65351" lon="1.82719">
        <ele>128</ele>
        <time>2017-03-21T23:37:24Z</time>
      </trkpt>
      <trkpt lat="50.65372" lon="1.82759">
        <ele>129</ele>
        <time>2017-03-21T23:39:24Z</time>
      </trkpt>
      <trkpt lat="50.65397" lon="1.82819">
        <ele>128</ele>
        <time>2017-03-21T23:41:24Z</time>
      </trkpt>
      <trkpt lat="50.65449" lon="1.82953">
        <ele>127</ele>
        <time>2017-03-21T23:43:24Z</time>
      </trkpt>
      <trkpt lat="50.65492" lon="1.83043">
        <ele>118</ele>
        <time>2017-03-21T23:45:24Z</time>
      </trkpt>
      <trkpt lat="50.655" lon="1.83068">
        <ele>116</ele>
        <time>2017-03-21T23:47:24Z</time>
      </trkpt>
      <trkpt lat="50.65503" lon="1.83097">
        <ele>116</ele>
        <time>2017-03-21T23:49:24Z</time>
      </trkpt>
      <trkpt lat="50.65518" lon="1.83367">
        <ele>117</ele>
        <time>2017-03-21T23:51:24Z</time>
      </trkpt>
      <trkpt lat="50.65522" lon="1.83407">
        <ele>118</ele>
        <time>2017-03-21T23:53:24Z</time>
      </trkpt>
      <trkpt lat="50.6553" lon="1.83463">
        <ele>118</ele>
        <time>2017-03-21T23:55:24Z</time>
      </trkpt>
      <trkpt lat="50.65536" lon="1.83512">
        <ele>119</ele>
        <time>2017-03-21T23:57:24Z</time>
      </trkpt>
      <trkpt lat="50.65545" lon="1.83565">
        <ele>119</ele>
        <time>2017-03-21T23:59:24Z</time>
      </trkpt>
      <trkpt lat="50.65554" lon="1.83591">
        <ele>119</ele>
        <time>2017-03-22T00:01:24Z</time>
      </trkpt>
      <trkpt lat="50.65566" lon="1.83615">
        <ele>119</ele>
        <time>2017-03-22T00:03:24Z</time>
      </trkpt>
      <trkpt lat="50.6561" lon="1.83671">
        <ele>118</ele>
        <time>2017-03-22T00:05:24Z</time>
      </trkpt>
      <trkpt lat="50.65641" lon="1.83705">
        <ele>118</ele>
        <time>2017-03-22T00:07:24Z</time>
      </trkpt>
      <trkpt lat="50.65656" lon="1.83725">
        <ele>118</ele>
        <time>2017-03-22T00:09:24Z</time>
      </trkpt>
      <trkpt lat="50.65676" lon="1.83757">
        <ele>118</ele>
        <time>2017-03-22T00:11:24Z</time>
      </trkpt>
      <trkpt lat="50.65691" lon="1.83787">
        <ele>118</ele>
        <time>2017-03-22T00:13:24Z</time>
      </trkpt>
      <trkpt lat="50.65704" lon="1.8381">
        <ele>118</ele>
        <time>2017-03-22T00:15:24Z</time>
      </trkpt>
      <trkpt lat="50.65709" lon="1.83823">
        <ele>119</ele>
        <time>2017-03-22T00:17:24Z</time>
      </trkpt>
      <trkpt lat="50.65707" lon="1.83832">
        <ele>119</ele>
        <time>2017-03-22T00:19:24Z</time>
      </trkpt>
      <trkpt lat="50.65703" lon="1.83848">
        <ele>119</ele>
        <time>2017-03-22T00:21:24Z</time>
      </trkpt>
      <trkpt lat="50.65698" lon="1.83881">
        <ele>120</ele>
        <time>2017-03-22T00:23:24Z</time>
      </trkpt>
      <trkpt lat="50.65684" lon="1.83999">
        <ele>122</ele>
        <time>2017-03-22T00:25:24Z</time>
      </trkpt>
      <trkpt lat="50.65667" lon="1.84166">
        <ele>134</ele>
        <time>2017-03-22T00:27:24Z</time>
      </trkpt>
      <trkpt lat="50.65646" lon="1.8416">
        <ele>137</ele>
        <time>2017-03-22T00:29:24Z</time>
      </trkpt>
      <trkpt lat="50.65585" lon="1.84127">
        <ele>141</ele>
        <time>2017-03-22T00:31:24Z</time>
      </trkpt>
      <trkpt lat="50.65546" lon="1.84104">
        <ele>149</ele>
        <time>2017-03-22T00:33:24Z</time>
      </trkpt>
      <trkpt lat="50.6553" lon="1.84088">
        <ele>152</ele>
        <time>2017-03-22T00:35:24Z</time>
      </trkpt>
      <trkpt lat="50.65518" lon="1.84067">
        <ele>153</ele>
        <time>2017-03-22T00:37:24Z</time>
      </trkpt>
      <trkpt lat="50.65405" lon="1.83836">
        <ele>165</ele>
        <time>2017-03-22T00:39:24Z</time>
      </trkpt>
      <trkpt lat="50.6537" lon="1.83766">
        <ele>169</ele>
        <time>2017-03-22T00:41:24Z</time>
      </trkpt>
      <trkpt lat="50.65355" lon="1.83743">
        <ele>171</ele>
        <time>2017-03-22T00:43:24Z</time>
      </trkpt>
      <trkpt lat="50.65344" lon="1.83733">
        <ele>173</ele>
        <time>2017-03-22T00:45:24Z</time>
      </trkpt>
      <trkpt lat="50.65328" lon="1.83723">
        <ele>175</ele>
        <time>2017-03-22T00:47:24Z</time>
      </trkpt>
      <trkpt lat="50.65312" lon="1.83715">
        <ele>176</ele>
        <time>2017-03-22T00:49:24Z</time>
      </trkpt>
      <trkpt lat="50.65273" lon="1.83709">
        <ele>178</ele>
        <time>2017-03-22T00:51:24Z</time>
      </trkpt>
      <trkpt lat="50.65219" lon="1.83696">
        <ele>179</ele>
        <time>2017-03-22T00:53:24Z</time>
      </trkpt>
      <trkpt lat="50.65184" lon="1.83691">
        <ele>179</ele>
        <time>2017-03-22T00:55:24Z</time>
      </trkpt>
      <trkpt lat="50.65158" lon="1.83692">
        <ele>179</ele>
        <time>2017-03-22T00:57:24Z</time>
      </trkpt>
      <trkpt lat="50.65123" lon="1.83697">
        <ele>178</ele>
        <time>2017-03-22T00:59:24Z</time>
      </trkpt>
      <trkpt lat="50.65064" lon="1.83716">
        <ele>178</ele>
        <time>2017-03-22T01:01:24Z</time>
      </trkpt>
      <trkpt lat="50.65018" lon="1.83734">
        <ele>177</ele>
        <time>2017-03-22T01:03:24Z</time>
      </trkpt>
      <trkpt lat="50.64977" lon="1.83758">
        <ele>176</ele>
        <time>2017-03-22T01:05:24Z</time>
      </trkpt>
      <trkpt lat="50.649" lon="1.8381">
        <ele>175</ele>
        <time>2017-03-22T01:07:24Z</time>
      </trkpt>
      <trkpt lat="50.64886" lon="1.83817">
        <ele>174</ele>
        <time>2017-03-22T01:09:24Z</time>
      </trkpt>
      <trkpt lat="50.64856" lon="1.83824">
        <ele>172</ele>
        <time>2017-03-22T01:11:24Z</time>
      </trkpt>
      <trkpt lat="50.64828" lon="1.83832">
        <ele>170</ele>
        <time>2017-03-22T01:13:24Z</time>
      </trkpt>
      <trkpt lat="50.64802" lon="1.83842">
        <ele>167</ele>
        <time>2017-03-22T01:15:24Z</time>
      </trkpt>
      <trkpt lat="50.64773" lon="1.8386">
        <ele>163</ele>
        <time>2017-03-22T01:17:24Z</time>
      </trkpt>
      <trkpt lat="50.6473" lon="1.8389">
        <ele>159</ele>
        <time>2017-03-22T01:19:24Z</time>
      </trkpt>
      <trkpt lat="50.64705" lon="1.83913">
        <ele>158</ele>
        <time>2017-03-22T01:21:24Z</time>
      </trkpt>
      <trkpt lat="50.64688" lon="1.83941">
        <ele>157</ele>
        <time>2017-03-22T01:23:24Z</time>
      </trkpt>
      <trkpt lat="50.64668" lon="1.83975">
        <ele>156</ele>
        <time>2017-03-22T01:25:24Z</time>
      </trkpt>
      <trkpt lat="50.64653" lon="1.83995">
        <ele>155</ele>
        <time>2017-03-22T01:27:24Z</time>
      </trkpt>
      <trkpt lat="50.64631" lon="1.84018">
        <ele>155</ele>
        <time>2017-03-22T01:29:24Z</time>
      </trkpt>
      <trkpt lat="50.64613" lon="1.84033">
        <ele>155</ele>
        <time>2017-03-22T01:31:24Z</time>
      </trkpt>
      <trkpt lat="50.6458" lon="1.84059">
        <ele>154</ele>
        <time>2017-03-22T01:33:24Z</time>
      </trkpt>
      <trkpt lat="50.64561" lon="1.84071">
        <ele>153</ele>
        <time>2017-03-22T01:35:24Z</time>
      </trkpt>
      <trkpt lat="50.64546" lon="1.84074">
        <ele>153</ele>
        <time>2017-03-22T01:37:24Z</time>
      </trkpt>
      <trkpt lat="50.64527" lon="1.84076">
        <ele>153</ele>
        <time>2017-03-22T01:39:24Z</time>
      </trkpt>
      <trkpt lat="50.64499" lon="1.84075">
        <ele>153</ele>
        <time>2017-03-22T01:41:24Z</time>
      </trkpt>
      <trkpt lat="50.64483" lon="1.84076">
        <ele>152</ele>
        <time>2017-03-22T01:43:24Z</time>
      </trkpt>
      <trkpt lat="50.64468" lon="1.84079">
        <ele>152</ele>
        <time>2017-03-22T01:45:24Z</time>
      </trkpt>
      <trkpt lat="50.64292" lon="1.84128">
        <ele>143</ele>
        <time>2017-03-22T01:47:24Z</time>
      </trkpt>
      <trkpt lat="50.64219" lon="1.8415">
        <ele>140</ele>
        <time>2017-03-22T01:49:24Z</time>
      </trkpt>
      <trkpt lat="50.64164" lon="1.84185">
        <ele>137</ele>
        <time>2017-03-22T01:51:24Z</time>
      </trkpt>
      <trkpt lat="50.6411" lon="1.84222">
        <ele>134</ele>
        <time>2017-03-22T01:53:24Z</time>
      </trkpt>
      <trkpt lat="50.64093" lon="1.84229">
        <ele>133</ele>
        <time>2017-03-22T01:55:24Z</time>
      </trkpt>
      <trkpt lat="50.64074" lon="1.84234">
        <ele>133</ele>
        <time>2017-03-22T01:57:24Z</time>
      </trkpt>
      <trkpt lat="50.64038" lon="1.84238">
        <ele>132</ele>
        <time>2017-03-22T01:59:24Z</time>
      </trkpt>
      <trkpt lat="50.63966" lon="1.8424">
        <ele>131</ele>
        <time>2017-03-22T02:01:24Z</time>
      </trkpt>
      <trkpt lat="50.63824" lon="1.84242">
        <ele>128</ele>
        <time>2017-03-22T02:03:24Z</time>
      </trkpt>
      <trkpt lat="50.63764" lon="1.84241">
        <ele>128</ele>
        <time>2017-03-22T02:05:24Z</time>
      </trkpt>
      <trkpt lat="50.6373" lon="1.84237">
        <ele>128</ele>
        <time>2017-03-22T02:07:24Z</time>
      </trkpt>
      <trkpt lat="50.63691" lon="1.84229">
        <ele>127</ele>
        <time>2017-03-22T02:09:24Z</time>
      </trkpt>
      <trkpt lat="50.63606" lon="1.84209">
        <ele>126</ele>
        <time>2017-03-22T02:11:24Z</time>
      </trkpt>
      <trkpt lat="50.63567" lon="1.84207">
        <ele>126</ele>
        <time>2017-03-22T02:13:24Z</time>
      </trkpt>
      <trkpt lat="50.6355" lon="1.84208">
        <ele>126</ele>
        <time>2017-03-22T02:15:24Z</time>
      </trkpt>
      <trkpt lat="50.63426" lon="1.84222">
        <ele>126</ele>
        <time>2017-03-22T02:17:24Z</time>
      </trkpt>
      <trkpt lat="50.63326" lon="1.84232">
        <ele>128</ele>
        <time>2017-03-22T02:19:24Z</time>
      </trkpt>
      <trkpt lat="50.63291" lon="1.84233">
        <ele>127</ele>
        <time>2017-03-22T02:21:24Z</time>
      </trkpt>
      <trkpt lat="50.63262" lon="1.84232">
        <ele>126</ele>
        <time>2017-03-22T02:23:24Z</time>
      </trkpt>
      <trkpt lat="50.63207" lon="1.84226">
        <ele>125</ele>
        <time>2017-03-22T02:25:24Z</time>
      </trkpt>
      <trkpt lat="50.63129" lon="1.84216">
        <ele>123</ele>
        <time>2017-03-22T02:27:24Z</time>
      </trkpt>
      <trkpt lat="50.63095" lon="1.84213">
        <ele>122</ele>
        <time>2017-03-22T02:29:24Z</time>
      </trkpt>
      <trkpt lat="50.63047" lon="1.84212">
        <ele>121</ele>
        <time>2017-03-22T02:31:24Z</time>
      </trkpt>
      <trkpt lat="50.6293" lon="1.84206">
        <ele>118</ele>
        <time>2017-03-22T02:33:24Z</time>
      </trkpt>
      <trkpt lat="50.62894" lon="1.84207">
        <ele>117</ele>
        <time>2017-03-22T02:35:24Z</time>
      </trkpt>
      <trkpt lat="50.62881" lon="1.8421">
        <ele>117</ele>
        <time>2017-03-22T02:37:24Z</time>
      </trkpt>
      <trkpt lat="50.62869" lon="1.84215">
        <ele>116</ele>
        <time>2017-03-22T02:39:24Z</time>
      </trkpt>
      <trkpt lat="50.62834" lon="1.84237">
        <ele>115</ele>
        <time>2017-03-22T02:41:24Z</time>
      </trkpt>
      <trkpt lat="50.62804" lon="1.84259">
        <ele>115</ele>
        <time>2017-03-22T02:43:24Z</time>
      </trkpt>
      <trkpt lat="50.62776" lon="1.84279">
        <ele>114</ele>
        <time>2017-03-22T02:45:24Z</time>
      </trkpt>
      <trkpt lat="50.6275" lon="1.84287">
        <ele>113</ele>
        <time>2017-03-22T02:47:24Z</time>
      </trkpt>
      <trkpt lat="50.62723" lon="1.84296">
        <ele>112</ele>
        <time>2017-03-22T02:49:24Z</time>
      </trkpt>
      <trkpt lat="50.62687" lon="1.84303">
        <ele>111</ele>
        <time>2017-03-22T02:51:24Z</time>
      </trkpt>
      <trkpt lat="50.62663" lon="1.84307">
        <ele>110</ele>
        <time>2017-03-22T02:53:24Z</time>
      </trkpt>
      <trkpt lat="50.62641" lon="1.84314">
        <ele>109</ele>
        <time>2017-03-22T02:55:24Z</time>
      </trkpt>
      <trkpt lat="50.62571" lon="1.84349">
        <ele>108</ele>
        <time>2017-03-22T02:57:24Z</time>
      </trkpt>
      <trkpt lat="50.62557" lon="1.84352">
        <ele>108</ele>
        <time>2017-03-22T02:59:24Z</time>
      </trkpt>
      <trkpt lat="50.62548" lon="1.8435">
        <ele>108</ele>
        <time>2017-03-22T03:01:24Z</time>
      </trkpt>
      <trkpt lat="50.62524" lon="1.84339">
        <ele>107</ele>
        <time>2017-03-22T03:03:24Z</time>
      </trkpt>
      <trkpt lat="50.62502" lon="1.84326">
        <ele>106</ele>
        <time>2017-03-22T03:05:24Z</time>
      </trkpt>
      <trkpt lat="50.62455" lon="1.84297">
        <ele>107</ele>
        <time>2017-03-22T03:07:24Z</time>
      </trkpt>
      <trkpt lat="50.62416" lon="1.84278">
        <ele>107</ele>
        <time>2017-03-22T03:09:24Z</time>
      </trkpt>
      <trkpt lat="50.62397" lon="1.84274">
        <ele>107</ele>
        <time>2017-03-22T03:11:24Z</time>
      </trkpt>
      <trkpt lat="50.62317" lon="1.84249">
        <ele>106</ele>
        <time>2017-03-22T03:13:24Z</time>
      </trkpt>
      <trkpt lat="50.62291" lon="1.84238">
        <ele>105</ele>
        <time>2017-03-22T03:15:24Z</time>
      </trkpt>
      <trkpt lat="50.62271" lon="1.8423">
        <ele>105</ele>
        <time>2017-03-22T03:17:24Z</time>
      </trkpt>
      <trkpt lat="50.62252" lon="1.84212">
        <ele>104</ele>
        <time>2017-03-22T03:19:24Z</time>
      </trkpt>
      <trkpt lat="50.62233" lon="1.84179">
        <ele>103</ele>
        <time>2017-03-22T03:21:24Z</time>
      </trkpt>
      <trkpt lat="50.62151" lon="1.84002">
        <ele>104</ele>
        <time>2017-03-22T03:23:24Z</time>
      </trkpt>
      <trkpt lat="50.62138" lon="1.83978">
        <ele>104</ele>
        <time>2017-03-22T03:25:24Z</time>
      </trkpt>
      <trkpt lat="50.62116" lon="1.83947">
        <ele>104</ele>
        <time>2017-03-22T03:27:24Z</time>
      </trkpt>
      <trkpt lat="50.6204" lon="1.83852">
        <ele>102</ele>
        <time>2017-03-22T03:29:24Z</time>
      </trkpt>
      <trkpt lat="50.62017" lon="1.83818">
        <ele>101</ele>
        <time>2017-03-22T03:31:24Z</time>
      </trkpt>
      <trkpt lat="50.61989" lon="1.83773">
        <ele>101</ele>
        <time>2017-03-22T03:33:24Z</time>
      </trkpt>
      <trkpt lat="50.61918" lon="1.83655">
        <ele>98</ele>
        <time>2017-03-22T03:35:24Z</time>
      </trkpt>
      <trkpt lat="50.61869" lon="1.83576">
        <ele>98</ele>
        <time>2017-03-22T03:37:24Z</time>
      </trkpt>
      <trkpt lat="50.61829" lon="1.8352">
        <ele>98</ele>
        <time>2017-03-22T03:39:24Z</time>
      </trkpt>
      <trkpt lat="50.61779" lon="1.83453">
        <ele>98</ele>
        <time>2017-03-22T03:41:24Z</time>
      </trkpt>
      <trkpt lat="50.61752" lon="1.83424">
        <ele>97</ele>
        <time>2017-03-22T03:43:24Z</time>
      </trkpt>
      <trkpt lat="50.61737" lon="1.83415">
        <ele>96</ele>
        <time>2017-03-22T03:45:24Z</time>
      </trkpt>
      <trkpt lat="50.61714" lon="1.83405">
        <ele>95</ele>
        <time>2017-03-22T03:47:24Z</time>
      </trkpt>
      <trkpt lat="50.61665" lon="1.83389">
        <ele>93</ele>
        <time>2017-03-22T03:49:24Z</time>
      </trkpt>
      <trkpt lat="50.61646" lon="1.83379">
        <ele>93</ele>
        <time>2017-03-22T03:51:24Z</time>
      </trkpt>
      <trkpt lat="50.61634" lon="1.83367">
        <ele>92</ele>
        <time>2017-03-22T03:53:24Z</time>
      </trkpt>
      <trkpt lat="50.6162" lon="1.83348">
        <ele>92</ele>
        <time>2017-03-22T03:55:24Z</time>
      </trkpt>
      <trkpt lat="50.61592" lon="1.83306">
        <ele>92</ele>
        <time>2017-03-22T03:57:24Z</time>
      </trkpt>
      <trkpt lat="50.61572" lon="1.83281">
        <ele>92</ele>
        <time>2017-03-22T03:59:24Z</time>
      </trkpt>
      <trkpt lat="50.61561" lon="1.8328">
        <ele>92</ele>
        <time>2017-03-22T04:01:24Z</time>
      </trkpt>
      <trkpt lat="50.61546" lon="1.8327">
        <ele>92</ele>
        <time>2017-03-22T04:03:24Z</time>
      </trkpt>
      <trkpt lat="50.61523" lon="1.83246">
        <ele>92</ele>
        <time>2017-03-22T04:05:24Z</time>
      </trkpt>
      <trkpt lat="50.61481" lon="1.83197">
        <ele>92</ele>
        <time>2017-03-22T04:07:24Z</time>
      </trkpt>
      <trkpt lat="50.61417" lon="1.83121">
        <ele>91</ele>
        <time>2017-03-22T04:09:24Z</time>
      </trkpt>
      <trkpt lat="50.61369" lon="1.83069">
        <ele>90</ele>
        <time>2017-03-22T04:11:24Z</time>
      </trkpt>
      <trkpt lat="50.61354" lon="1.83054">
        <ele>90</ele>
        <time>2017-03-22T04:13:24Z</time>
      </trkpt>
      <trkpt lat="50.61335" lon="1.83042">
        <ele>90</ele>
        <time>2017-03-22T04:15:24Z</time>
      </trkpt>
      <trkpt lat="50.6131" lon="1.83035">
        <ele>89</ele>
        <time>2017-03-22T04:17:24Z</time>
      </trkpt>
      <trkpt lat="50.61282" lon="1.8303">
        <ele>89</ele>
        <time>2017-03-22T04:19:24Z</time>
      </trkpt>
      <trkpt lat="50.61243" lon="1.83014">
        <ele>88</ele>
        <time>2017-03-22T04:21:24Z</time>
      </trkpt>
      <trkpt lat="50.61148" lon="1.82968">
        <ele>89</ele>
        <time>2017-03-22T04:23:24Z</time>
      </trkpt>
      <trkpt lat="50.61139" lon="1.82964">
        <ele>89</ele>
        <time>2017-03-22T04:25:24Z</time>
      </trkpt>
      <trkpt lat="50.61117" lon="1.82961">
        <ele>89</ele>
        <time>2017-03-22T04:27:24Z</time>
      </trkpt>
      <trkpt lat="50.61099" lon="1.82966">
        <ele>89</ele>
        <time>2017-03-22T04:29:24Z</time>
      </trkpt>
      <trkpt lat="50.61082" lon="1.82977">
        <ele>89</ele>
        <time>2017-03-22T04:31:24Z</time>
      </trkpt>
      <trkpt lat="50.61029" lon="1.83008">
        <ele>87</ele>
        <time>2017-03-22T04:33:24Z</time>
      </trkpt>
      <trkpt lat="50.61" lon="1.8302">
        <ele>87</ele>
        <time>2017-03-22T04:35:24Z</time>
      </trkpt>
      <trkpt lat="50.60983" lon="1.83022">
        <ele>87</ele>
        <time>2017-03-22T04:37:24Z</time>
      </trkpt>
      <trkpt lat="50.60929" lon="1.83011">
        <ele>86</ele>
        <time>2017-03-22T04:39:24Z</time>
      </trkpt>
      <trkpt lat="50.6087" lon="1.83008">
        <ele>85</ele>
        <time>2017-03-22T04:41:24Z</time>
      </trkpt>
      <trkpt lat="50.6084" lon="1.83003">
        <ele>84</ele>
        <time>2017-03-22T04:43:24Z</time>
      </trkpt>
      <trkpt lat="50.60823" lon="1.82995">
        <ele>84</ele>
        <time>2017-03-22T04:45:24Z</time>
      </trkpt>
      <trkpt lat="50.60808" lon="1.82984">
        <ele>84</ele>
        <time>2017-03-22T04:47:24Z</time>
      </trkpt>
      <trkpt lat="50.60798" lon="1.82974">
        <ele>84</ele>
        <time>2017-03-22T04:49:24Z</time>
      </trkpt>
      <trkpt lat="50.60774" lon="1.82944">
        <ele>84</ele>
        <time>2017-03-22T04:51:24Z</time>
      </trkpt>
      <trkpt lat="50.60744" lon="1.82904">
        <ele>84</ele>
        <time>2017-03-22T04:53:24Z</time>
      </trkpt>
      <trkpt lat="50.60715" lon="1.82866">
        <ele>84</ele>
        <time>2017-03-22T04:55:24Z</time>
      </trkpt>
      <trkpt lat="50.60645" lon="1.82784">
        <ele>85</ele>
        <time>2017-03-22T04:57:24Z</time>
      </trkpt>
      <trkpt lat="50.60605" lon="1.82739">
        <ele>84</ele>
        <time>2017-03-22T04:59:24Z</time>
      </trkpt>
      <trkpt lat="50.60533" lon="1.82645">
        <ele>83</ele>
        <time>2017-03-22T05:01:24Z</time>
      </trkpt>
      <trkpt lat="50.60464" lon="1.82558">
        <ele>83</ele>
        <time>2017-03-22T05:03:24Z</time>
      </trkpt>
      <trkpt lat="50.60278" lon="1.82326">
        <ele>80</ele>
        <time>2017-03-22T05:05:24Z</time>
      </trkpt>
      <trkpt lat="50.60154" lon="1.82209">
        <ele>77</ele>
        <time>2017-03-22T05:07:24Z</time>
      </trkpt>
      <trkpt lat="50.60131" lon="1.82184">
        <ele>77</ele>
        <time>2017-03-22T05:09:24Z</time>
      </trkpt>
      <trkpt lat="50.60099" lon="1.82134">
        <ele>76</ele>
        <time>2017-03-22T05:11:24Z</time>
      </trkpt>
      <trkpt lat="50.60089" lon="1.82116">
        <ele>76</ele>
        <time>2017-03-22T05:13:24Z</time>
      </trkpt>
      <trkpt lat="50.60058" lon="1.82044">
        <ele>75</ele>
        <time>2017-03-22T05:15:24Z</time>
      </trkpt>
      <trkpt lat="50.60018" lon="1.81969">
        <ele>75</ele>
        <time>2017-03-22T05:17:24Z</time>
      </trkpt>
      <trkpt lat="50.60001" lon="1.81943">
        <ele>75</ele>
        <time>2017-03-22T05:19:24Z</time>
      </trkpt>
      <trkpt lat="50.59959" lon="1.81883">
        <ele>75</ele>
        <time>2017-03-22T05:21:24Z</time>
      </trkpt>
      <trkpt lat="50.59933" lon="1.81848">
        <ele>75</ele>
        <time>2017-03-22T05:23:24Z</time>
      </trkpt>
      <trkpt lat="50.59904" lon="1.81799">
        <ele>74</ele>
        <time>2017-03-22T05:25:24Z</time>
      </trkpt>
      <trkpt lat="50.59886" lon="1.81774">
        <ele>74</ele>
        <time>2017-03-22T05:27:24Z</time>
      </trkpt>
      <trkpt lat="50.59865" lon="1.8175">
        <ele>74</ele>
        <time>2017-03-22T05:29:24Z</time>
      </trkpt>
      <trkpt lat="50.59845" lon="1.81731">
        <ele>74</ele>
        <time>2017-03-22T05:31:24Z</time>
      </trkpt>
      <trkpt lat="50.59799" lon="1.81681">
        <ele>73</ele>
        <time>2017-03-22T05:33:24Z</time>
      </trkpt>
      <trkpt lat="50.59732" lon="1.81592">
        <ele>73</ele>
        <time>2017-03-22T05:35:24Z</time>
      </trkpt>
      <trkpt lat="50.5972" lon="1.81579">
        <ele>73</ele>
        <time>2017-03-22T05:37:24Z</time>
      </trkpt>
      <trkpt lat="50.59682" lon="1.81542">
        <ele>73</ele>
        <time>2017-03-22T05:39:24Z</time>
      </trkpt>
      <trkpt lat="50.59653" lon="1.81512">
        <ele>73</ele>
        <time>2017-03-22T05:41:24Z</time>
      </trkpt>
      <trkpt lat="50.59608" lon="1.81463">
        <ele>72</ele>
        <time>2017-03-22T05:43:24Z</time>
      </trkpt>
      <trkpt lat="50.5956" lon="1.81401">
        <ele>72</ele>
        <time>2017-03-22T05:45:24Z</time>
      </trkpt>
      <trkpt lat="50.59541" lon="1.81376">
        <ele>72</ele>
        <time>2017-03-22T05:47:24Z</time>
      </trkpt>
      <trkpt lat="50.5953" lon="1.81359">
        <ele>71</ele>
        <time>2017-03-22T05:49:24Z</time>
      </trkpt>
      <trkpt lat="50.5951" lon="1.81314">
        <ele>71</ele>
        <time>2017-03-22T05:51:24Z</time>
      </trkpt>
      <trkpt lat="50.59479" lon="1.8124">
        <ele>71</ele>
        <time>2017-03-22T05:53:24Z</time>
      </trkpt>
      <trkpt lat="50.59449" lon="1.81189">
        <ele>70</ele>
        <time>2017-03-22T05:55:24Z</time>
      </trkpt>
      <trkpt lat="50.59414" lon="1.81148">
        <ele>69</ele>
        <time>2017-03-22T05:57:24Z</time>
      </trkpt>
      <trkpt lat="50.59376" lon="1.81121">
        <ele>70</ele>
        <time>2017-03-22T05:59:24Z</time>
      </trkpt>
      <trkpt lat="50.59171" lon="1.81011">
        <ele>70</ele>
        <time>2017-03-22T06:01:24Z</time>
      </trkpt>
      <trkpt lat="50.5917" lon="1.8101">
        <ele>69</ele>
        <time>2017-03-22T06:03:24Z</time>
      </trkpt>
      <trkpt lat="50.58968" lon="1.80903">
        <ele>68</ele>
        <time>2017-03-22T06:05:24Z</time>
      </trkpt>
      <trkpt lat="50.58959" lon="1.809">
        <ele>68</ele>
        <time>2017-03-22T06:07:24Z</time>
      </trkpt>
      <trkpt lat="50.58951" lon="1.809">
        <ele>68</ele>
        <time>2017-03-22T06:09:24Z</time>
      </trkpt>
      <trkpt lat="50.58862" lon="1.80903">
        <ele>67</ele>
        <time>2017-03-22T06:11:24Z</time>
      </trkpt>
      <trkpt lat="50.58846" lon="1.80906">
        <ele>67</ele>
        <time>2017-03-22T06:13:24Z</time>
      </trkpt>
      <trkpt lat="50.58837" lon="1.80909">
        <ele>67</ele>
        <time>2017-03-22T06:15:24Z</time>
      </trkpt>
      <trkpt lat="50.588" lon="1.8093">
        <ele>67</ele>
        <time>2017-03-22T06:17:24Z</time>
      </trkpt>
      <trkpt lat="50.58774" lon="1.8095">
        <ele>67</ele>
        <time>2017-03-22T06:19:24Z</time>
      </trkpt>
      <trkpt lat="50.58762" lon="1.80963">
        <ele>67</ele>
        <time>2017-03-22T06:21:24Z</time>
      </trkpt>
      <trkpt lat="50.58742" lon="1.80999">
        <ele>66</ele>
        <time>2017-03-22T06:23:24Z</time>
      </trkpt>
      <trkpt lat="50.58692" lon="1.81107">
        <ele>66</ele>
        <time>2017-03-22T06:25:24Z</time>
      </trkpt>
      <trkpt lat="50.58674" lon="1.81141">
        <ele>65</ele>
        <time>2017-03-22T06:27:24Z</time>
      </trkpt>
      <trkpt lat="50.58658" lon="1.81166">
        <ele>64</ele>
        <time>2017-03-22T06:29:24Z</time>
      </trkpt>
      <trkpt lat="50.58581" lon="1.81245">
        <ele>65</ele>
        <time>2017-03-22T06:31:24Z</time>
      </trkpt>
      <trkpt lat="50.58522" lon="1.81308">
        <ele>65</ele>
        <time>2017-03-22T06:33:24Z</time>
      </trkpt>
      <trkpt lat="50.58499" lon="1.81339">
        <ele>65</ele>
        <time>2017-03-22T06:35:24Z</time>
      </trkpt>
      <trkpt lat="50.58475" lon="1.81382">
        <ele>64</ele>
        <time>2017-03-22T06:37:24Z</time>
      </trkpt>
      <trkpt lat="50.58443" lon="1.81447">
        <ele>63</ele>
        <time>2017-03-22T06:39:24Z</time>
      </trkpt>
      <trkpt lat="50.58387" lon="1.81557">
        <ele>63</ele>
        <time>2017-03-22T06:41:24Z</time>
      </trkpt>
      <trkpt lat="50.5837" lon="1.81592">
        <ele>63</ele>
        <time>2017-03-22T06:43:24Z</time>
      </trkpt>
      <trkpt lat="50.58355" lon="1.81627">
        <ele>63</ele>
        <time>2017-03-22T06:45:24Z</time>
      </trkpt>
      <trkpt lat="50.58344" lon="1.81665">
        <ele>62</ele>
        <time>2017-03-22T06:47:24Z</time>
      </trkpt>
      <trkpt lat="50.58337" lon="1.817">
        <ele>61</ele>
        <time>2017-03-22T06:49:24Z</time>
      </trkpt>
      <trkpt lat="50.58324" lon="1.81772">
        <ele>60</ele>
        <time>2017-03-22T06:51:24Z</time>
      </trkpt>
      <trkpt lat="50.58318" lon="1.81801">
        <ele>60</ele>
        <time>2017-03-22T06:53:24Z</time>
      </trkpt>
      <trkpt lat="50.58312" lon="1.81816">
        <ele>60</ele>
        <time>2017-03-22T06:55:24Z</time>
      </trkpt>
      <trkpt lat="50.58303" lon="1.8184">
        <ele>60</ele>
        <time>2017-03-22T06:57:24Z</time>
      </trkpt>
      <trkpt lat="50.58277" lon="1.81893">
        <ele>61</ele>
        <time>2017-03-22T06:59:24Z</time>
      </trkpt>
      <trkpt lat="50.58193" lon="1.82059">
        <ele>61</ele>
        <time>2017-03-22T07:01:24Z</time>
      </trkpt>
      <trkpt lat="50.5816" lon="1.82121">
        <ele>61</ele>
        <time>2017-03-22T07:03:24Z</time>
      </trkpt>
      <trkpt lat="50.58141" lon="1.82151">
        <ele>62</ele>
        <time>2017-03-22T07:05:24Z</time>
      </trkpt>
      <trkpt lat="50.58115" lon="1.82183">
        <ele>63</ele>
        <time>2017-03-22T07:07:24Z</time>
      </trkpt>
      <trkpt lat="50.58093" lon="1.82205">
        <ele>64</ele>
        <time>2017-03-22T07:09:24Z</time>
      </trkpt>
      <trkpt lat="50.58062" lon="1.82232">
        <ele>66</ele>
        <time>2017-03-22T07:11:24Z</time>
      </trkpt>
      <trkpt lat="50.58042" lon="1.82246">
        <ele>67</ele>
        <time>2017-03-22T07:13:24Z</time>
      </trkpt>
      <trkpt lat="50.58002" lon="1.82275">
        <ele>68</ele>
        <time>2017-03-22T07:15:24Z</time>
      </trkpt>
      <trkpt lat="50.57988" lon="1.82281">
        <ele>69</ele>
        <time>2017-03-22T07:17:24Z</time>
      </trkpt>
      <trkpt lat="50.57874" lon="1.82322">
        <ele>71</ele>
        <time>2017-03-22T07:19:24Z</time>
      </trkpt>
      <trkpt lat="50.57773" lon="1.82369">
        <ele>71</ele>
        <time>2017-03-22T07:21:24Z</time>
      </trkpt>
      <trkpt lat="50.57692" lon="1.82418">
        <ele>71</ele>
        <time>2017-03-22T07:23:24Z</time>
      </trkpt>
      <trkpt lat="50.57651" lon="1.82439">
        <ele>70</ele>
        <time>2017-03-22T07:25:24Z</time>
      </trkpt>
      <trkpt lat="50.57621" lon="1.82452">
        <ele>67</ele>
        <time>2017-03-22T07:27:24Z</time>
      </trkpt>
      <trkpt lat="50.57589" lon="1.82461">
        <ele>65</ele>
        <time>2017-03-22T07:29:24Z</time>
      </trkpt>
      <trkpt lat="50.57565" lon="1.82465">
        <ele>63</ele>
        <time>2017-03-22T07:31:24Z</time>
      </trkpt>
      <trkpt lat="50.5755" lon="1.82463">
        <ele>63</ele>
        <time>2017-03-22T07:33:24Z</time>
      </trkpt>
      <trkpt lat="50.57525" lon="1.82455">
        <ele>61</ele>
        <time>2017-03-22T07:35:24Z</time>
      </trkpt>
      <trkpt lat="50.57507" lon="1.82448">
        <ele>60</ele>
        <time>2017-03-22T07:37:24Z</time>
      </trkpt>
      <trkpt lat="50.57461" lon="1.8242">
        <ele>59</ele>
        <time>2017-03-22T07:39:24Z</time>
      </trkpt>
      <trkpt lat="50.57455" lon="1.82417">
        <ele>59</ele>
        <time>2017-03-22T07:41:24Z</time>
      </trkpt>
      <trkpt lat="50.57447" lon="1.82414">
        <ele>59</ele>
        <time>2017-03-22T07:43:24Z</time>
      </trkpt>
      <trkpt lat="50.57445" lon="1.82415">
        <ele>58</ele>
        <time>2017-03-22T07:45:24Z</time>
      </trkpt>
      <trkpt lat="50.57438" lon="1.82421">
        <ele>58</ele>
        <time>2017-03-22T07:47:24Z</time>
      </trkpt>
      <trkpt lat="50.57432" lon="1.8243">
        <ele>57</ele>
        <time>2017-03-22T07:49:24Z</time>
      </trkpt>
      <trkpt lat="50.57433" lon="1.82463">
        <ele>57</ele>
        <time>2017-03-22T07:51:24Z</time>
      </trkpt>
      <trkpt lat="50.57451" lon="1.82514">
        <ele>56</ele>
        <time>2017-03-22T07:53:24Z</time>
      </trkpt>
      <trkpt lat="50.57465" lon="1.82565">
        <ele>56</ele>
        <time>2017-03-22T07:55:24Z</time>
      </trkpt>
      <trkpt lat="50.57494" lon="1.82694">
        <ele>52</ele>
        <time>2017-03-22T07:57:24Z</time>
      </trkpt>
      <trkpt lat="50.57506" lon="1.82764">
        <ele>52</ele>
        <time>2017-03-22T07:59:24Z</time>
      </trkpt>
      <trkpt lat="50.57514" lon="1.82831">
        <ele>51</ele>
        <time>2017-03-22T08:01:24Z</time>
      </trkpt>
      <trkpt lat="50.57519" lon="1.82883">
        <ele>51</ele>
        <time>2017-03-22T08:03:24Z</time>
      </trkpt>
      <trkpt lat="50.57521" lon="1.82892">
        <ele>51</ele>
        <time>2017-03-22T08:05:24Z</time>
      </trkpt>
      <trkpt lat="50.57528" lon="1.82906">
        <ele>51</ele>
        <time>2017-03-22T08:07:24Z</time>
      </trkpt>
      <trkpt lat="50.57535" lon="1.82913">
        <ele>51</ele>
        <time>2017-03-22T08:09:24Z</time>
      </trkpt>
      <trkpt lat="50.57563" lon="1.8293">
        <ele>51</ele>
        <time>2017-03-22T08:11:24Z</time>
      </trkpt>
      <trkpt lat="50.57579" lon="1.82939">
        <ele>51</ele>
        <time>2017-03-22T08:13:24Z</time>
      </trkpt>
      <trkpt lat="50.57607" lon="1.82961">
        <ele>52</ele>
        <time>2017-03-22T08:15:24Z</time>
      </trkpt>
      <trkpt lat="50.57618" lon="1.82973">
        <ele>53</ele>
        <time>2017-03-22T08:17:24Z</time>
      </trkpt>
      <trkpt lat="50.5762" lon="1.82978">
        <ele>53</ele>
        <time>2017-03-22T08:19:24Z</time>
      </trkpt>
      <trkpt lat="50.5762" lon="1.82979">
        <ele>53</ele>
        <time>2017-03-22T08:21:24Z</time>
      </trkpt>
      <trkpt lat="50.57622" lon="1.82987">
        <ele>53</ele>
        <time>2017-03-22T08:23:24Z</time>
      </trkpt>
      <trkpt lat="50.57619" lon="1.82997">
        <ele>53</ele>
        <time>2017-03-22T08:25:24Z</time>
      </trkpt>
      <trkpt lat="50.57613" lon="1.83006">
        <ele>54</ele>
        <time>2017-03-22T08:27:24Z</time>
      </trkpt>
      <trkpt lat="50.57582" lon="1.83031">
        <ele>54</ele>
        <time>2017-03-22T08:29:24Z</time>
      </trkpt>
      <trkpt lat="50.5756" lon="1.83052">
        <ele>55</ele>
        <time>2017-03-22T08:31:24Z</time>
      </trkpt>
      <trkpt lat="50.57546" lon="1.83068">
        <ele>55</ele>
        <time>2017-03-22T08:33:24Z</time>
      </trkpt>
      <trkpt lat="50.57538" lon="1.83079">
        <ele>56</ele>
        <time>2017-03-22T08:35:24Z</time>
      </trkpt>
      <trkpt lat="50.57522" lon="1.83092">
        <ele>56</ele>
        <time>2017-03-22T08:37:24Z</time>
      </trkpt>
      <trkpt lat="50.57469" lon="1.83132">
        <ele>56</ele>
        <time>2017-03-22T08:39:24Z</time>
      </trkpt>
      <trkpt lat="50.57428" lon="1.83166">
        <ele>56</ele>
        <time>2017-03-22T08:41:24Z</time>
      </trkpt>
      <trkpt lat="50.57339" lon="1.83233">
        <ele>56</ele>
        <time>2017-03-22T08:43:24Z</time>
      </trkpt>
      <trkpt lat="50.57305" lon="1.8327">
        <ele>56</ele>
        <time>2017-03-22T08:45:24Z</time>
      </trkpt>
      <trkpt lat="50.57292" lon="1.83294">
        <ele>57</ele>
        <time>2017-03-22T08:47:24Z</time>
      </trkpt>
      <trkpt lat="50.57286" lon="1.83314">
        <ele>57</ele>
        <time>2017-03-22T08:49:24Z</time>
      </trkpt>
      <trkpt lat="50.57281" lon="1.83342">
        <ele>58</ele>
        <time>2017-03-22T08:51:24Z</time>
      </trkpt>
      <trkpt lat="50.57274" lon="1.83439">
        <ele>60</ele>
        <time>2017-03-22T08:53:24Z</time>
      </trkpt>
      <trkpt lat="50.57273" lon="1.8347">
        <ele>60</ele>
        <time>2017-03-22T08:55:24Z</time>
      </trkpt>
      <trkpt lat="50.57277" lon="1.83523">
        <ele>61</ele>
        <time>2017-03-22T08:57:24Z</time>
      </trkpt>
      <trkpt lat="50.57285" lon="1.83601">
        <ele>61</ele>
        <time>2017-03-22T08:59:24Z</time>
      </trkpt>
      <trkpt lat="50.57285" lon="1.83621">
        <ele>61</ele>
        <time>2017-03-22T09:01:24Z</time>
      </trkpt>
      <trkpt lat="50.5728" lon="1.83677">
        <ele>60</ele>
        <time>2017-03-22T09:03:24Z</time>
      </trkpt>
      <trkpt lat="50.57275" lon="1.8371">
        <ele>60</ele>
        <time>2017-03-22T09:05:24Z</time>
      </trkpt>
      <trkpt lat="50.57271" lon="1.83766">
        <ele>60</ele>
        <time>2017-03-22T09:07:24Z</time>
      </trkpt>
      <trkpt lat="50.57266" lon="1.83901">
        <ele>60</ele>
        <time>2017-03-22T09:09:24Z</time>
      </trkpt>
      <trkpt lat="50.57262" lon="1.8394">
        <ele>61</ele>
        <time>2017-03-22T09:11:24Z</time>
      </trkpt>
      <trkpt lat="50.57243" lon="1.84033">
        <ele>61</ele>
        <time>2017-03-22T09:13:24Z</time>
      </trkpt>
      <trkpt lat="50.57197" lon="1.84244">
        <ele>65</ele>
        <time>2017-03-22T09:15:24Z</time>
      </trkpt>
      <trkpt lat="50.57194" lon="1.84261">
        <ele>65</ele>
        <time>2017-03-22T09:17:24Z</time>
      </trkpt>
      <trkpt lat="50.5719" lon="1.8431">
        <ele>67</ele>
        <time>2017-03-22T09:19:24Z</time>
      </trkpt>
      <trkpt lat="50.57191" lon="1.84356">
        <ele>69</ele>
        <time>2017-03-22T09:21:24Z</time>
      </trkpt>
      <trkpt lat="50.57185" lon="1.84422">
        <ele>69</ele>
        <time>2017-03-22T09:23:24Z</time>
      </trkpt>
      <trkpt lat="50.57159" lon="1.84641">
        <ele>65</ele>
        <time>2017-03-22T09:25:24Z</time>
      </trkpt>
      <trkpt lat="50.57152" lon="1.84735">
        <ele>64</ele>
        <time>2017-03-22T09:27:24Z</time>
      </trkpt>
      <trkpt lat="50.57145" lon="1.848">
        <ele>62</ele>
        <time>2017-03-22T09:29:24Z</time>
      </trkpt>
      <trkpt lat="50.5714" lon="1.84828">
        <ele>61</ele>
        <time>2017-03-22T09:31:24Z</time>
      </trkpt>
      <trkpt lat="50.5712" lon="1.849">
        <ele>61</ele>
        <time>2017-03-22T09:33:24Z</time>
      </trkpt>
      <trkpt lat="50.57117" lon="1.84912">
        <ele>61</ele>
        <time>2017-03-22T09:35:24Z</time>
      </trkpt>
      <trkpt lat="50.5711" lon="1.84955">
        <ele>60</ele>
        <time>2017-03-22T09:37:24Z</time>
      </trkpt>
      <trkpt lat="50.57109" lon="1.84978">
        <ele>61</ele>
        <time>2017-03-22T09:39:24Z</time>
      </trkpt>
      <trkpt lat="50.57105" lon="1.85127">
        <ele>62</ele>
        <time>2017-03-22T09:41:24Z</time>
      </trkpt>
      <trkpt lat="50.57104" lon="1.85201">
        <ele>63</ele>
        <time>2017-03-22T09:43:24Z</time>
      </trkpt>
      <trkpt lat="50.57108" lon="1.85543">
        <ele>65</ele>
        <time>2017-03-22T09:45:24Z</time>
      </trkpt>
      <trkpt lat="50.57104" lon="1.85642">
        <ele>64</ele>
        <time>2017-03-22T09:47:24Z</time>
      </trkpt>
      <trkpt lat="50.57105" lon="1.85746">
        <ele>63</ele>
        <time>2017-03-22T09:49:24Z</time>
      </trkpt>
      <trkpt lat="50.57107" lon="1.85789">
        <ele>63</ele>
        <time>2017-03-22T09:51:24Z</time>
      </trkpt>
      <trkpt lat="50.57113" lon="1.85822">
        <ele>63</ele>
        <time>2017-03-22T09:53:24Z</time>
      </trkpt>
      <trkpt lat="50.57132" lon="1.85881">
        <ele>64</ele>
        <time>2017-03-22T09:55:24Z</time>
      </trkpt>
      <trkpt lat="50.57143" lon="1.85914">
        <ele>64</ele>
        <time>2017-03-22T09:57:24Z</time>
      </trkpt>
      <trkpt lat="50.57153" lon="1.85934">
        <ele>64</ele>
        <time>2017-03-22T09:59:24Z</time>
      </trkpt>
      <trkpt lat="50.57182" lon="1.85977">
        <ele>65</ele>
        <time>2017-03-22T10:01:24Z</time>
      </trkpt>
      <trkpt lat="50.57194" lon="1.86002">
        <ele>66</ele>
        <time>2017-03-22T10:03:24Z</time>
      </trkpt>
      <trkpt lat="50.57202" lon="1.86027">
        <ele>67</ele>
        <time>2017-03-22T10:05:24Z</time>
      </trkpt>
      <trkpt lat="50.57237" lon="1.86192">
        <ele>72</ele>
        <time>2017-03-22T10:07:24Z</time>
      </trkpt>
      <trkpt lat="50.57268" lon="1.8633">
        <ele>74</ele>
        <time>2017-03-22T10:09:24Z</time>
      </trkpt>
      <trkpt lat="50.57279" lon="1.86403">
        <ele>76</ele>
        <time>2017-03-22T10:11:24Z</time>
      </trkpt>
      <trkpt lat="50.5728" lon="1.86482">
        <ele>76</ele>
        <time>2017-03-22T10:13:24Z</time>
      </trkpt>
      <trkpt lat="50.57278" lon="1.86566">
        <ele>76</ele>
        <time>2017-03-22T10:15:24Z</time>
      </trkpt>
      <trkpt lat="50.57273" lon="1.86625">
        <ele>75</ele>
        <time>2017-03-22T10:17:24Z</time>
      </trkpt>
      <trkpt lat="50.5727" lon="1.86689">
        <ele>74</ele>
        <time>2017-03-22T10:19:24Z</time>
      </trkpt>
      <trkpt lat="50.57273" lon="1.86806">
        <ele>76</ele>
        <time>2017-03-22T10:21:24Z</time>
      </trkpt>
      <trkpt lat="50.57279" lon="1.86875">
        <ele>77</ele>
        <time>2017-03-22T10:23:24Z</time>
      </trkpt>
      <trkpt lat="50.5729" lon="1.86957">
        <ele>79</ele>
        <time>2017-03-22T10:25:24Z</time>
      </trkpt>
      <trkpt lat="50.57309" lon="1.87081">
        <ele>83</ele>
        <time>2017-03-22T10:27:24Z</time>
      </trkpt>
      <trkpt lat="50.57316" lon="1.87153">
        <ele>83</ele>
        <time>2017-03-22T10:29:24Z</time>
      </trkpt>
      <trkpt lat="50.57315" lon="1.87221">
        <ele>83</ele>
        <time>2017-03-22T10:31:24Z</time>
      </trkpt>
      <trkpt lat="50.5731" lon="1.87292">
        <ele>81</ele>
        <time>2017-03-22T10:33:24Z</time>
      </trkpt>
      <trkpt lat="50.57303" lon="1.8735">
        <ele>79</ele>
        <time>2017-03-22T10:35:24Z</time>
      </trkpt>
      <trkpt lat="50.57291" lon="1.874">
        <ele>78</ele>
        <time>2017-03-22T10:37:24Z</time>
      </trkpt>
      <trkpt lat="50.57276" lon="1.87439">
        <ele>76</ele>
        <time>2017-03-22T10:39:24Z</time>
      </trkpt>
      <trkpt lat="50.57255" lon="1.87487">
        <ele>74</ele>
        <time>2017-03-22T10:41:24Z</time>
      </trkpt>
      <trkpt lat="50.57241" lon="1.87506">
        <ele>73</ele>
        <time>2017-03-22T10:43:24Z</time>
      </trkpt>
      <trkpt lat="50.57225" lon="1.87519">
        <ele>73</ele>
        <time>2017-03-22T10:45:24Z</time>
      </trkpt>
      <trkpt lat="50.57198" lon="1.87537">
        <ele>74</ele>
        <time>2017-03-22T10:47:24Z</time>
      </trkpt>
      <trkpt lat="50.57187" lon="1.87542">
        <ele>74</ele>
        <time>2017-03-22T10:49:24Z</time>
      </trkpt>
      <trkpt lat="50.57179" lon="1.87547">
        <ele>74</ele>
        <time>2017-03-22T10:51:24Z</time>
      </trkpt>
      <trkpt lat="50.57176" lon="1.87556">
        <ele>74</ele>
        <time>2017-03-22T10:53:24Z</time>
      </trkpt>
      <trkpt lat="50.57173" lon="1.87566">
        <ele>74</ele>
        <time>2017-03-22T10:55:24Z</time>
      </trkpt>
      <trkpt lat="50.57171" lon="1.87578">
        <ele>74</ele>
        <time>2017-03-22T10:57:24Z</time>
      </trkpt>
      <trkpt lat="50.5717" lon="1.87619">
        <ele>74</ele>
        <time>2017-03-22T10:59:24Z</time>
      </trkpt>
      <trkpt lat="50.57172" lon="1.87654">
        <ele>75</ele>
        <time>2017-03-22T11:01:24Z</time>
      </trkpt>
      <trkpt lat="50.57179" lon="1.87675">
        <ele>75</ele>
        <time>2017-03-22T11:03:24Z</time>
      </trkpt>
      <trkpt lat="50.57203" lon="1.87727">
        <ele>75</ele>
        <time>2017-03-22T11:05:24Z</time>
      </trkpt>
      <trkpt lat="50.57212" lon="1.87747">
        <ele>75</ele>
        <time>2017-03-22T11:07:24Z</time>
      </trkpt>
      <trkpt lat="50.57221" lon="1.87786">
        <ele>75</ele>
        <time>2017-03-22T11:09:24Z</time>
      </trkpt>
      <trkpt lat="50.57222" lon="1.87817">
        <ele>76</ele>
        <time>2017-03-22T11:11:24Z</time>
      </trkpt>
      <trkpt lat="50.5722" lon="1.87829">
        <ele>76</ele>
        <time>2017-03-22T11:13:24Z</time>
      </trkpt>
      <trkpt lat="50.57215" lon="1.87836">
        <ele>76</ele>
        <time>2017-03-22T11:15:24Z</time>
      </trkpt>
      <trkpt lat="50.57204" lon="1.87848">
        <ele>76</ele>
        <time>2017-03-22T11:17:24Z</time>
      </trkpt>
      <trkpt lat="50.57092" lon="1.87929">
        <ele>79</ele>
        <time>2017-03-22T11:19:24Z</time>
      </trkpt>
      <trkpt lat="50.57026" lon="1.88008">
        <ele>77</ele>
        <time>2017-03-22T11:21:24Z</time>
      </trkpt>
      <trkpt lat="50.56952" lon="1.88098">
        <ele>80</ele>
        <time>2017-03-22T11:23:24Z</time>
      </trkpt>
      <trkpt lat="50.56935" lon="1.88122">
        <ele>80</ele>
        <time>2017-03-22T11:25:24Z</time>
      </trkpt>
      <trkpt lat="50.56922" lon="1.88144">
        <ele>81</ele>
        <time>2017-03-22T11:27:24Z</time>
      </trkpt>
      <trkpt lat="50.56895" lon="1.88206">
        <ele>83</ele>
        <time>2017-03-22T11:29:24Z</time>
      </trkpt>
      <trkpt lat="50.56866" lon="1.88275">
        <ele>85</ele>
        <time>2017-03-22T11:31:24Z</time>
      </trkpt>
      <trkpt lat="50.56834" lon="1.88346">
        <ele>85</ele>
        <time>2017-03-22T11:33:24Z</time>
      </trkpt>
      <trkpt lat="50.56808" lon="1.88388">
        <ele>87</ele>
        <time>2017-03-22T11:35:24Z</time>
      </trkpt>
      <trkpt lat="50.56784" lon="1.88423">
        <ele>87</ele>
        <time>2017-03-22T11:37:24Z</time>
      </trkpt>
      <trkpt lat="50.56739" lon="1.88484">
        <ele>87</ele>
        <time>2017-03-22T11:39:24Z</time>
      </trkpt>
      <trkpt lat="50.56702" lon="1.88538">
        <ele>88</ele>
        <time>2017-03-22T11:41:24Z</time>
      </trkpt>
      <trkpt lat="50.56692" lon="1.88556">
        <ele>88</ele>
        <time>2017-03-22T11:43:24Z</time>
      </trkpt>
      <trkpt lat="50.56685" lon="1.88574">
        <ele>88</ele>
        <time>2017-03-22T11:45:24Z</time>
      </trkpt>
      <trkpt lat="50.56678" lon="1.88612">
        <ele>87</ele>
        <time>2017-03-22T11:47:24Z</time>
      </trkpt>
      <trkpt lat="50.56676" lon="1.88636">
        <ele>86</ele>
        <time>2017-03-22T11:49:24Z</time>
      </trkpt>
      <trkpt lat="50.5667" lon="1.8887">
        <ele>88</ele>
        <time>2017-03-22T11:51:24Z</time>
      </trkpt>
      <trkpt lat="50.56669" lon="1.88918">
        <ele>88</ele>
        <time>2017-03-22T11:53:24Z</time>
      </trkpt>
      <trkpt lat="50.5666" lon="1.89004">
        <ele>88</ele>
        <time>2017-03-22T11:55:24Z</time>
      </trkpt>
      <trkpt lat="50.56638" lon="1.89183">
        <ele>90</ele>
        <time>2017-03-22T11:57:24Z</time>
      </trkpt>
      <trkpt lat="50.56636" lon="1.89225">
        <ele>90</ele>
        <time>2017-03-22T11:59:24Z</time>
      </trkpt>
      <trkpt lat="50.56638" lon="1.89282">
        <ele>91</ele>
        <time>2017-03-22T12:01:24Z</time>
      </trkpt>
      <trkpt lat="50.56643" lon="1.89393">
        <ele>91</ele>
        <time>2017-03-22T12:03:24Z</time>
      </trkpt>
      <trkpt lat="50.56645" lon="1.89424">
        <ele>91</ele>
        <time>2017-03-22T12:05:24Z</time>
      </trkpt>
      <trkpt lat="50.5665" lon="1.89466">
        <ele>91</ele>
        <time>2017-03-22T12:07:24Z</time>
      </trkpt>
      <trkpt lat="50.5666" lon="1.89508">
        <ele>90</ele>
        <time>2017-03-22T12:09:24Z</time>
      </trkpt>
      <trkpt lat="50.5667" lon="1.89536">
        <ele>90</ele>
        <time>2017-03-22T12:11:24Z</time>
      </trkpt>
      <trkpt lat="50.56707" lon="1.8961">
        <ele>91</ele>
        <time>2017-03-22T12:13:24Z</time>
      </trkpt>
      <trkpt lat="50.56719" lon="1.8965">
        <ele>91</ele>
        <time>2017-03-22T12:15:24Z</time>
      </trkpt>
      <trkpt lat="50.56742" lon="1.89779">
        <ele>92</ele>
        <time>2017-03-22T12:17:24Z</time>
      </trkpt>
      <trkpt lat="50.56763" lon="1.89879">
        <ele>93</ele>
        <time>2017-03-22T12:19:24Z</time>
      </trkpt>
      <trkpt lat="50.56784" lon="1.89967">
        <ele>95</ele>
        <time>2017-03-22T12:21:24Z</time>
      </trkpt>
      <trkpt lat="50.56809" lon="1.90057">
        <ele>95</ele>
        <time>2017-03-22T12:23:24Z</time>
      </trkpt>
      <trkpt lat="50.56828" lon="1.90129">
        <ele>95</ele>
        <time>2017-03-22T12:25:24Z</time>
      </trkpt>
      <trkpt lat="50.56835" lon="1.90162">
        <ele>94</ele>
        <time>2017-03-22T12:27:24Z</time>
      </trkpt>
      <trkpt lat="50.56842" lon="1.90223">
        <ele>95</ele>
        <time>2017-03-22T12:29:24Z</time>
      </trkpt>
      <trkpt lat="50.56842" lon="1.90291">
        <ele>96</ele>
        <time>2017-03-22T12:31:24Z</time>
      </trkpt>
      <trkpt lat="50.56839" lon="1.90449">
        <ele>96</ele>
        <time>2017-03-22T12:33:24Z</time>
      </trkpt>
      <trkpt lat="50.56839" lon="1.90484">
        <ele>96</ele>
        <time>2017-03-22T12:35:24Z</time>
      </trkpt>
      <trkpt lat="50.56841" lon="1.9055">
        <ele>97</ele>
        <time>2017-03-22T12:37:24Z</time>
      </trkpt>
      <trkpt lat="50.56847" lon="1.90645">
        <ele>99</ele>
        <time>2017-03-22T12:39:24Z</time>
      </trkpt>
      <trkpt lat="50.56839" lon="1.90818">
        <ele>100</ele>
        <time>2017-03-22T12:41:24Z</time>
      </trkpt>
      <trkpt lat="50.56835" lon="1.90864">
        <ele>100</ele>
        <time>2017-03-22T12:43:24Z</time>
      </trkpt>
      <trkpt lat="50.56834" lon="1.90894">
        <ele>100</ele>
        <time>2017-03-22T12:45:24Z</time>
      </trkpt>
      <trkpt lat="50.5683" lon="1.90943">
        <ele>100</ele>
        <time>2017-03-22T12:47:24Z</time>
      </trkpt>
      <trkpt lat="50.56823" lon="1.90984">
        <ele>101</ele>
        <time>2017-03-22T12:49:24Z</time>
      </trkpt>
      <trkpt lat="50.56796" lon="1.91159">
        <ele>105</ele>
        <time>2017-03-22T12:51:24Z</time>
      </trkpt>
      <trkpt lat="50.56782" lon="1.91235">
        <ele>107</ele>
        <time>2017-03-22T12:53:24Z</time>
      </trkpt>
      <trkpt lat="50.56744" lon="1.91412">
        <ele>108</ele>
        <time>2017-03-22T12:55:24Z</time>
      </trkpt>
      <trkpt lat="50.56731" lon="1.91482">
        <ele>110</ele>
        <time>2017-03-22T12:57:24Z</time>
      </trkpt>
      <trkpt lat="50.56699" lon="1.91662">
        <ele>112</ele>
        <time>2017-03-22T12:59:24Z</time>
      </trkpt>
      <trkpt lat="50.56691" lon="1.91688">
        <ele>112</ele>
        <time>2017-03-22T13:01:24Z</time>
      </trkpt>
      <trkpt lat="50.56669" lon="1.91741">
        <ele>112</ele>
        <time>2017-03-22T13:03:24Z</time>
      </trkpt>
      <trkpt lat="50.56606" lon="1.91887">
        <ele>118</ele>
        <time>2017-03-22T13:05:24Z</time>
      </trkpt>
      <trkpt lat="50.56588" lon="1.9192">
        <ele>119</ele>
        <time>2017-03-22T13:07:24Z</time>
      </trkpt>
      <trkpt lat="50.56565" lon="1.91947">
        <ele>120</ele>
        <time>2017-03-22T13:09:24Z</time>
      </trkpt>
      <trkpt lat="50.56554" lon="1.91961">
        <ele>120</ele>
        <time>2017-03-22T13:11:24Z</time>
      </trkpt>
      <trkpt lat="50.56539" lon="1.91988">
        <ele>121</ele>
        <time>2017-03-22T13:13:24Z</time>
      </trkpt>
      <trkpt lat="50.56525" lon="1.92033">
        <ele>121</ele>
        <time>2017-03-22T13:15:24Z</time>
      </trkpt>
      <trkpt lat="50.56502" lon="1.92128">
        <ele>120</ele>
        <time>2017-03-22T13:17:24Z</time>
      </trkpt>
      <trkpt lat="50.56496" lon="1.9218">
        <ele>120</ele>
        <time>2017-03-22T13:19:24Z</time>
      </trkpt>
      <trkpt lat="50.56494" lon="1.92235">
        <ele>121</ele>
        <time>2017-03-22T13:21:24Z</time>
      </trkpt>
      <trkpt lat="50.56496" lon="1.92333">
        <ele>121</ele>
        <time>2017-03-22T13:23:24Z</time>
      </trkpt>
      <trkpt lat="50.56499" lon="1.92437">
        <ele>123</ele>
        <time>2017-03-22T13:25:24Z</time>
      </trkpt>
      <trkpt lat="50.56506" lon="1.925">
        <ele>124</ele>
        <time>2017-03-22T13:27:24Z</time>
      </trkpt>
      <trkpt lat="50.56517" lon="1.92564">
        <ele>127</ele>
        <time>2017-03-22T13:29:24Z</time>
      </trkpt>
      <trkpt lat="50.56522" lon="1.92625">
        <ele>129</ele>
        <time>2017-03-22T13:31:24Z</time>
      </trkpt>
      <trkpt lat="50.56507" lon="1.92838">
        <ele>134</ele>
        <time>2017-03-22T13:33:24Z</time>
      </trkpt>
      <trkpt lat="50.56493" lon="1.92949">
        <ele>134</ele>
        <time>2017-03-22T13:35:24Z</time>
      </trkpt>
      <trkpt lat="50.56483" lon="1.93039">
        <ele>135</ele>
        <time>2017-03-22T13:37:24Z</time>
      </trkpt>
      <trkpt lat="50.56474" lon="1.93142">
        <ele>138</ele>
        <time>2017-03-22T13:39:24Z</time>
      </trkpt>
      <trkpt lat="50.56451" lon="1.93435">
        <ele>147</ele>
        <time>2017-03-22T13:41:24Z</time>
      </trkpt>
      <trkpt lat="50.56452" lon="1.9351">
        <ele>149</ele>
        <time>2017-03-22T13:43:24Z</time>
      </trkpt>
      <trkpt lat="50.56458" lon="1.93595">
        <ele>151</ele>
        <time>2017-03-22T13:45:24Z</time>
      </trkpt>
      <trkpt lat="50.56472" lon="1.93771">
        <ele>155</ele>
        <time>2017-03-22T13:47:24Z</time>
      </trkpt>
      <trkpt lat="50.56475" lon="1.93831">
        <ele>156</ele>
        <time>2017-03-22T13:49:24Z</time>
      </trkpt>
      <trkpt lat="50.56475" lon="1.93941">
        <ele>157</ele>
        <time>2017-03-22T13:51:24Z</time>
      </trkpt>
      <trkpt lat="50.56474" lon="1.93978">
        <ele>158</ele>
        <time>2017-03-22T13:53:24Z</time>
      </trkpt>
      <trkpt lat="50.56476" lon="1.94003">
        <ele>158</ele>
        <time>2017-03-22T13:55:24Z</time>
      </trkpt>
      <trkpt lat="50.5648" lon="1.94028">
        <ele>158</ele>
        <time>2017-03-22T13:57:24Z</time>
      </trkpt>
      <trkpt lat="50.5649" lon="1.94062">
        <ele>157</ele>
        <time>2017-03-22T13:59:24Z</time>
      </trkpt>
      <trkpt lat="50.56508" lon="1.94108">
        <ele>157</ele>
        <time>2017-03-22T14:01:24Z</time>
      </trkpt>
      <trkpt lat="50.56563" lon="1.94241">
        <ele>158</ele>
        <time>2017-03-22T14:03:24Z</time>
      </trkpt>
      <trkpt lat="50.56595" lon="1.94327">
        <ele>155</ele>
        <time>2017-03-22T14:05:24Z</time>
      </trkpt>
      <trkpt lat="50.56609" lon="1.94388">
        <ele>153</ele>
        <time>2017-03-22T14:07:24Z</time>
      </trkpt>
      <trkpt lat="50.56622" lon="1.94461">
        <ele>152</ele>
        <time>2017-03-22T14:09:24Z</time>
      </trkpt>
      <trkpt lat="50.56678" lon="1.94766">
        <ele>145</ele>
        <time>2017-03-22T14:11:24Z</time>
      </trkpt>
      <trkpt lat="50.56688" lon="1.94816">
        <ele>144</ele>
        <time>2017-03-22T14:13:24Z</time>
      </trkpt>
      <trkpt lat="50.56696" lon="1.94852">
        <ele>144</ele>
        <time>2017-03-22T14:15:24Z</time>
      </trkpt>
      <trkpt lat="50.56708" lon="1.94884">
        <ele>144</ele>
        <time>2017-03-22T14:17:24Z</time>
      </trkpt>
      <trkpt lat="50.56721" lon="1.94916">
        <ele>144</ele>
        <time>2017-03-22T14:19:24Z</time>
      </trkpt>
      <trkpt lat="50.56828" lon="1.95151">
        <ele>137</ele>
        <time>2017-03-22T14:21:24Z</time>
      </trkpt>
      <trkpt lat="50.56853" lon="1.95208">
        <ele>137</ele>
        <time>2017-03-22T14:23:24Z</time>
      </trkpt>
      <trkpt lat="50.56858" lon="1.95224">
        <ele>137</ele>
        <time>2017-03-22T14:25:24Z</time>
      </trkpt>
      <trkpt lat="50.56893" lon="1.95327">
        <ele>135</ele>
        <time>2017-03-22T14:27:24Z</time>
      </trkpt>
      <trkpt lat="50.56988" lon="1.95522">
        <ele>131</ele>
        <time>2017-03-22T14:29:24Z</time>
      </trkpt>
      <trkpt lat="50.57029" lon="1.95602">
        <ele>130</ele>
        <time>2017-03-22T14:31:24Z</time>
      </trkpt>
      <trkpt lat="50.57048" lon="1.9564">
        <ele>130</ele>
        <time>2017-03-22T14:33:24Z</time>
      </trkpt>
      <trkpt lat="50.57129" lon="1.95799">
        <ele>126</ele>
        <time>2017-03-22T14:35:24Z</time>
      </trkpt>
      <trkpt lat="50.57189" lon="1.95916">
        <ele>124</ele>
        <time>2017-03-22T14:37:24Z</time>
      </trkpt>
      <trkpt lat="50.57224" lon="1.95976">
        <ele>122</ele>
        <time>2017-03-22T14:39:24Z</time>
      </trkpt>
      <trkpt lat="50.57295" lon="1.96077">
        <ele>119</ele>
        <time>2017-03-22T14:41:24Z</time>
      </trkpt>
      <trkpt lat="50.57342" lon="1.96132">
        <ele>116</ele>
        <time>2017-03-22T14:43:24Z</time>
      </trkpt>
      <trkpt lat="50.5735" lon="1.96156">
        <ele>115</ele>
        <time>2017-03-22T14:45:24Z</time>
      </trkpt>
      <trkpt lat="50.57354" lon="1.96173">
        <ele>115</ele>
        <time>2017-03-22T14:47:24Z</time>
      </trkpt>
      <trkpt lat="50.57354" lon="1.96185">
        <ele>115</ele>
        <time>2017-03-22T14:49:24Z</time>
      </trkpt>
      <trkpt lat="50.57349" lon="1.96219">
        <ele>115</ele>
        <time>2017-03-22T14:51:24Z</time>
      </trkpt>
      <trkpt lat="50.57334" lon="1.96293">
        <ele>115</ele>
        <time>2017-03-22T14:53:24Z</time>
      </trkpt>
      <trkpt lat="50.57295" lon="1.96488">
        <ele>119</ele>
        <time>2017-03-22T14:55:24Z</time>
      </trkpt>
      <trkpt lat="50.5728" lon="1.96546">
        <ele>120</ele>
        <time>2017-03-22T14:57:24Z</time>
      </trkpt>
      <trkpt lat="50.57253" lon="1.96634">
        <ele>120</ele>
        <time>2017-03-22T14:59:24Z</time>
      </trkpt>
      <trkpt lat="50.57246" lon="1.96674">
        <ele>120</ele>
        <time>2017-03-22T15:01:24Z</time>
      </trkpt>
      <trkpt lat="50.57248" lon="1.96762">
        <ele>118</ele>
        <time>2017-03-22T15:03:24Z</time>
      </trkpt>
      <trkpt lat="50.57251" lon="1.96813">
        <ele>116</ele>
        <time>2017-03-22T15:05:24Z</time>
      </trkpt>
      <trkpt lat="50.5725" lon="1.9688">
        <ele>116</ele>
        <time>2017-03-22T15:07:24Z</time>
      </trkpt>
      <trkpt lat="50.57249" lon="1.96915">
        <ele>116</ele>
        <time>2017-03-22T15:09:24Z</time>
      </trkpt>
      <trkpt lat="50.57251" lon="1.96932">
        <ele>116</ele>
        <time>2017-03-22T15:11:24Z</time>
      </trkpt>
      <trkpt lat="50.57257" lon="1.96954">
        <ele>115</ele>
        <time>2017-03-22T15:13:24Z</time>
      </trkpt>
      <trkpt lat="50.57291" lon="1.97023">
        <ele>113</ele>
        <time>2017-03-22T15:15:24Z</time>
      </trkpt>
      <trkpt lat="50.57302" lon="1.97054">
        <ele>112</ele>
        <time>2017-03-22T15:17:24Z</time>
      </trkpt>
      <trkpt lat="50.57308" lon="1.97095">
        <ele>112</ele>
        <time>2017-03-22T15:19:24Z</time>
      </trkpt>
      <trkpt lat="50.5732" lon="1.9714">
        <ele>113</ele>
        <time>2017-03-22T15:21:24Z</time>
      </trkpt>
      <trkpt lat="50.57334" lon="1.97168">
        <ele>113</ele>
        <time>2017-03-22T15:23:24Z</time>
      </trkpt>
      <trkpt lat="50.57354" lon="1.972">
        <ele>113</ele>
        <time>2017-03-22T15:25:24Z</time>
      </trkpt>
      <trkpt lat="50.57386" lon="1.9724">
        <ele>114</ele>
        <time>2017-03-22T15:27:24Z</time>
      </trkpt>
      <trkpt lat="50.57458" lon="1.97331">
        <ele>113</ele>
        <time>2017-03-22T15:29:24Z</time>
      </trkpt>
      <trkpt lat="50.57476" lon="1.97355">
        <ele>112</ele>
        <time>2017-03-22T15:31:24Z</time>
      </trkpt>
      <trkpt lat="50.57504" lon="1.97401">
        <ele>111</ele>
        <time>2017-03-22T15:33:24Z</time>
      </trkpt>
      <trkpt lat="50.57543" lon="1.97467">
        <ele>110</ele>
        <time>2017-03-22T15:35:24Z</time>
      </trkpt>
      <trkpt lat="50.57648" lon="1.97633">
        <ele>108</ele>
        <time>2017-03-22T15:37:24Z</time>
      </trkpt>
      <trkpt lat="50.57678" lon="1.97681">
        <ele>107</ele>
        <time>2017-03-22T15:39:24Z</time>
      </trkpt>
      <trkpt lat="50.57693" lon="1.97708">
        <ele>107</ele>
        <time>2017-03-22T15:41:24Z</time>
      </trkpt>
      <trkpt lat="50.57708" lon="1.97744">
        <ele>107</ele>
        <time>2017-03-22T15:43:24Z</time>
      </trkpt>
      <trkpt lat="50.57734" lon="1.97827">
        <ele>106</ele>
        <time>2017-03-22T15:45:24Z</time>
      </trkpt>
      <trkpt lat="50.57761" lon="1.97921">
        <ele>108</ele>
        <time>2017-03-22T15:47:24Z</time>
      </trkpt>
      <trkpt lat="50.57778" lon="1.97962">
        <ele>109</ele>
        <time>2017-03-22T15:49:24Z</time>
      </trkpt>
      <trkpt lat="50.57823" lon="1.98047">
        <ele>111</ele>
        <time>2017-03-22T15:51:24Z</time>
      </trkpt>
      <trkpt lat="50.57869" lon="1.98126">
        <ele>111</ele>
        <time>2017-03-22T15:53:24Z</time>
      </trkpt>
      <trkpt lat="50.57879" lon="1.98158">
        <ele>111</ele>
        <time>2017-03-22T15:55:24Z</time>
      </trkpt>
      <trkpt lat="50.57889" lon="1.98187">
        <ele>111</ele>
        <time>2017-03-22T15:57:24Z</time>
      </trkpt>
      <trkpt lat="50.57909" lon="1.98258">
        <ele>111</ele>
        <time>2017-03-22T15:59:24Z</time>
      </trkpt>
      <trkpt lat="50.57928" lon="1.98308">
        <ele>111</ele>
        <time>2017-03-22T16:01:24Z</time>
      </trkpt>
      <trkpt lat="50.57939" lon="1.98333">
        <ele>111</ele>
        <time>2017-03-22T16:03:24Z</time>
      </trkpt>
      <trkpt lat="50.57961" lon="1.98317">
        <ele>109</ele>
        <time>2017-03-22T16:05:24Z</time>
      </trkpt>
      <trkpt lat="50.57998" lon="1.98295">
        <ele>107</ele>
        <time>2017-03-22T16:07:24Z</time>
      </trkpt>
      <trkpt lat="50.5803" lon="1.98277">
        <ele>106</ele>
        <time>2017-03-22T16:09:24Z</time>
      </trkpt>
      <trkpt lat="50.58046" lon="1.98276">
        <ele>105</ele>
        <time>2017-03-22T16:11:24Z</time>
      </trkpt>
      <trkpt lat="50.58058" lon="1.98289">
        <ele>105</ele>
        <time>2017-03-22T16:13:24Z</time>
      </trkpt>
      <trkpt lat="50.58071" lon="1.98322">
        <ele>105</ele>
        <time>2017-03-22T16:15:24Z</time>
      </trkpt>
      <trkpt lat="50.58084" lon="1.98363">
        <ele>104</ele>
        <time>2017-03-22T16:17:24Z</time>
      </trkpt>
      <trkpt lat="50.58091" lon="1.98402">
        <ele>104</ele>
        <time>2017-03-22T16:19:24Z</time>
      </trkpt>
      <trkpt lat="50.58107" lon="1.98488">
        <ele>105</ele>
        <time>2017-03-22T16:21:24Z</time>
      </trkpt>
      <trkpt lat="50.58127" lon="1.98564">
        <ele>105</ele>
        <time>2017-03-22T16:23:24Z</time>
      </trkpt>
      <trkpt lat="50.58149" lon="1.98592">
        <ele>104</ele>
        <time>2017-03-22T16:25:24Z</time>
      </trkpt>
      <trkpt lat="50.58169" lon="1.98608">
        <ele>104</ele>
        <time>2017-03-22T16:27:24Z</time>
      </trkpt>
      <trkpt lat="50.58187" lon="1.98616">
        <ele>104</ele>
        <time>2017-03-22T16:29:24Z</time>
      </trkpt>
      <trkpt lat="50.58213" lon="1.98621">
        <ele>103</ele>
        <time>2017-03-22T16:31:24Z</time>
      </trkpt>
      <trkpt lat="50.5823" lon="1.9862">
        <ele>103</ele>
        <time>2017-03-22T16:33:24Z</time>
      </trkpt>
      <trkpt lat="50.5825" lon="1.98616">
        <ele>102</ele>
        <time>2017-03-22T16:35:24Z</time>
      </trkpt>
      <trkpt lat="50.58292" lon="1.98571">
        <ele>104</ele>
        <time>2017-03-22T16:37:24Z</time>
      </trkpt>
      <trkpt lat="50.58326" lon="1.98526">
        <ele>106</ele>
        <time>2017-03-22T16:39:24Z</time>
      </trkpt>
      <trkpt lat="50.58328" lon="1.98504">
        <ele>106</ele>
        <time>2017-03-22T16:41:24Z</time>
      </trkpt>
      <trkpt lat="50.58319" lon="1.98447">
        <ele>108</ele>
        <time>2017-03-22T16:43:24Z</time>
      </trkpt>
      <trkpt lat="50.58306" lon="1.98375">
        <ele>111</ele>
        <time>2017-03-22T16:45:24Z</time>
      </trkpt>
      <trkpt lat="50.58301" lon="1.9834">
        <ele>112</ele>
        <time>2017-03-22T16:47:24Z</time>
      </trkpt>
      <trkpt lat="50.58304" lon="1.98309">
        <ele>113</ele>
        <time>2017-03-22T16:49:24Z</time>
      </trkpt>
      <trkpt lat="50.58314" lon="1.98235">
        <ele>114</ele>
        <time>2017-03-22T16:51:24Z</time>
      </trkpt>
      <trkpt lat="50.58319" lon="1.9822">
        <ele>114</ele>
        <time>2017-03-22T16:53:24Z</time>
      </trkpt>
      <trkpt lat="50.58328" lon="1.98209">
        <ele>115</ele>
        <time>2017-03-22T16:55:24Z</time>
      </trkpt>
      <trkpt lat="50.58338" lon="1.98203">
        <ele>116</ele>
        <time>2017-03-22T16:57:24Z</time>
      </trkpt>
      <trkpt lat="50.58352" lon="1.98189">
        <ele>117</ele>
        <time>2017-03-22T16:59:24Z</time>
      </trkpt>
      <trkpt lat="50.58359" lon="1.98178">
        <ele>117</ele>
        <time>2017-03-22T17:01:24Z</time>
      </trkpt>
      <trkpt lat="50.58368" lon="1.98154">
        <ele>118</ele>
        <time>2017-03-22T17:03:24Z</time>
      </trkpt>
      <trkpt lat="50.5837" lon="1.98146">
        <ele>119</ele>
        <time>2017-03-22T17:05:24Z</time>
      </trkpt>
      <trkpt lat="50.58379" lon="1.98137">
        <ele>119</ele>
        <time>2017-03-22T17:07:24Z</time>
      </trkpt>
      <trkpt lat="50.58398" lon="1.98124">
        <ele>121</ele>
        <time>2017-03-22T17:09:24Z</time>
      </trkpt>
      <trkpt lat="50.5843" lon="1.98105">
        <ele>123</ele>
        <time>2017-03-22T17:11:24Z</time>
      </trkpt>
      <trkpt lat="50.58504" lon="1.98058">
        <ele>126</ele>
        <time>2017-03-22T17:13:24Z</time>
      </trkpt>
      <trkpt lat="50.58522" lon="1.9805">
        <ele>127</ele>
        <time>2017-03-22T17:15:24Z</time>
      </trkpt>
      <trkpt lat="50.58579" lon="1.98041">
        <ele>130</ele>
        <time>2017-03-22T17:17:24Z</time>
      </trkpt>
      <trkpt lat="50.58644" lon="1.98036">
        <ele>132</ele>
        <time>2017-03-22T17:19:24Z</time>
      </trkpt>
      <trkpt lat="50.58679" lon="1.98041">
        <ele>132</ele>
        <time>2017-03-22T17:21:24Z</time>
      </trkpt>
      <trkpt lat="50.58758" lon="1.98059">
        <ele>131</ele>
        <time>2017-03-22T17:23:24Z</time>
      </trkpt>
      <trkpt lat="50.5883" lon="1.98081">
        <ele>131</ele>
        <time>2017-03-22T17:25:24Z</time>
      </trkpt>
      <trkpt lat="50.5887" lon="1.98098">
        <ele>130</ele>
        <time>2017-03-22T17:27:24Z</time>
      </trkpt>
      <trkpt lat="50.58888" lon="1.98108">
        <ele>129</ele>
        <time>2017-03-22T17:29:24Z</time>
      </trkpt>
      <trkpt lat="50.58956" lon="1.98165">
        <ele>124</ele>
        <time>2017-03-22T17:31:24Z</time>
      </trkpt>
      <trkpt lat="50.58968" lon="1.98172">
        <ele>123</ele>
        <time>2017-03-22T17:33:24Z</time>
      </trkpt>
      <trkpt lat="50.58992" lon="1.9818">
        <ele>122</ele>
        <time>2017-03-22T17:35:24Z</time>
      </trkpt>
      <trkpt lat="50.59013" lon="1.98183">
        <ele>122</ele>
        <time>2017-03-22T17:37:24Z</time>
      </trkpt>
      <trkpt lat="50.59045" lon="1.98185">
        <ele>123</ele>
        <time>2017-03-22T17:39:24Z</time>
      </trkpt>
      <trkpt lat="50.5908" lon="1.98183">
        <ele>124</ele>
        <time>2017-03-22T17:41:24Z</time>
      </trkpt>
      <trkpt lat="50.59187" lon="1.98169">
        <ele>128</ele>
        <time>2017-03-22T17:43:24Z</time>
      </trkpt>
      <trkpt lat="50.59227" lon="1.98169">
        <ele>129</ele>
        <time>2017-03-22T17:45:24Z</time>
      </trkpt>
      <trkpt lat="50.59253" lon="1.98174">
        <ele>129</ele>
        <time>2017-03-22T17:47:24Z</time>
      </trkpt>
      <trkpt lat="50.59361" lon="1.98205">
        <ele>131</ele>
        <time>2017-03-22T17:49:24Z</time>
      </trkpt>
      <trkpt lat="50.59554" lon="1.98248">
        <ele>137</ele>
        <time>2017-03-22T17:51:24Z</time>
      </trkpt>
      <trkpt lat="50.59664" lon="1.98273">
        <ele>140</ele>
        <time>2017-03-22T17:53:24Z</time>
      </trkpt>
      <trkpt lat="50.59698" lon="1.98288">
        <ele>141</ele>
        <time>2017-03-22T17:55:24Z</time>
      </trkpt>
      <trkpt lat="50.5992" lon="1.98389">
        <ele>147</ele>
        <time>2017-03-22T17:57:24Z</time>
      </trkpt>
      <trkpt lat="50.59998" lon="1.98426">
        <ele>147</ele>
        <time>2017-03-22T17:59:24Z</time>
      </trkpt>
      <trkpt lat="50.60051" lon="1.98454">
        <ele>150</ele>
        <time>2017-03-22T18:01:24Z</time>
      </trkpt>
      <trkpt lat="50.60074" lon="1.98478">
        <ele>151</ele>
        <time>2017-03-22T18:03:24Z</time>
      </trkpt>
      <trkpt lat="50.60106" lon="1.98513">
        <ele>153</ele>
        <time>2017-03-22T18:05:24Z</time>
      </trkpt>
      <trkpt lat="50.60187" lon="1.98609">
        <ele>157</ele>
        <time>2017-03-22T18:07:24Z</time>
      </trkpt>
      <trkpt lat="50.60351" lon="1.98801">
        <ele>160</ele>
        <time>2017-03-22T18:09:24Z</time>
      </trkpt>
      <trkpt lat="50.60469" lon="1.98941">
        <ele>164</ele>
        <time>2017-03-22T18:11:24Z</time>
      </trkpt>
      <trkpt lat="50.60512" lon="1.98994">
        <ele>165</ele>
        <time>2017-03-22T18:13:24Z</time>
      </trkpt>
      <trkpt lat="50.60528" lon="1.99016">
        <ele>166</ele>
        <time>2017-03-22T18:15:24Z</time>
      </trkpt>
      <trkpt lat="50.60539" lon="1.99039">
        <ele>166</ele>
        <time>2017-03-22T18:17:24Z</time>
      </trkpt>
      <trkpt lat="50.60555" lon="1.99087">
        <ele>167</ele>
        <time>2017-03-22T18:19:24Z</time>
      </trkpt>
      <trkpt lat="50.60593" lon="1.99231">
        <ele>169</ele>
        <time>2017-03-22T18:21:24Z</time>
      </trkpt>
      <trkpt lat="50.60605" lon="1.9927">
        <ele>170</ele>
        <time>2017-03-22T18:23:24Z</time>
      </trkpt>
      <trkpt lat="50.60622" lon="1.99303">
        <ele>170</ele>
        <time>2017-03-22T18:25:24Z</time>
      </trkpt>
      <trkpt lat="50.60659" lon="1.99369">
        <ele>171</ele>
        <time>2017-03-22T18:27:24Z</time>
      </trkpt>
      <trkpt lat="50.60683" lon="1.99416">
        <ele>171</ele>
        <time>2017-03-22T18:29:24Z</time>
      </trkpt>
      <trkpt lat="50.60711" lon="1.99466">
        <ele>170</ele>
        <time>2017-03-22T18:31:24Z</time>
      </trkpt>
      <trkpt lat="50.60775" lon="1.99568">
        <ele>169</ele>
        <time>2017-03-22T18:33:24Z</time>
      </trkpt>
      <trkpt lat="50.60858" lon="1.99707">
        <ele>166</ele>
        <time>2017-03-22T18:35:24Z</time>
      </trkpt>
      <trkpt lat="50.60874" lon="1.99729">
        <ele>166</ele>
        <time>2017-03-22T18:37:24Z</time>
      </trkpt>
      <trkpt lat="50.60914" lon="1.99768">
        <ele>166</ele>
        <time>2017-03-22T18:39:24Z</time>
      </trkpt>
      <trkpt lat="50.60933" lon="1.99783">
        <ele>166</ele>
        <time>2017-03-22T18:41:24Z</time>
      </trkpt>
      <trkpt lat="50.6094" lon="1.99785">
        <ele>166</ele>
        <time>2017-03-22T18:43:24Z</time>
      </trkpt>
      <trkpt lat="50.60944" lon="1.99785">
        <ele>166</ele>
        <time>2017-03-22T18:45:24Z</time>
      </trkpt>
      <trkpt lat="50.60955" lon="1.99779">
        <ele>165</ele>
        <time>2017-03-22T18:47:24Z</time>
      </trkpt>
      <trkpt lat="50.60972" lon="1.99769">
        <ele>165</ele>
        <time>2017-03-22T18:49:24Z</time>
      </trkpt>
      <trkpt lat="50.60971" lon="1.99767">
        <ele>165</ele>
        <time>2017-03-22T18:51:24Z</time>
      </trkpt>
      <trkpt lat="50.60971" lon="1.99744">
        <ele>165</ele>
        <time>2017-03-22T18:53:24Z</time>
      </trkpt>
      <trkpt lat="50.60977" lon="1.99718">
        <ele>164</ele>
        <time>2017-03-22T18:55:24Z</time>
      </trkpt>
      <trkpt lat="50.60986" lon="1.99701">
        <ele>164</ele>
        <time>2017-03-22T18:57:24Z</time>
      </trkpt>
      <trkpt lat="50.61049" lon="1.99629">
        <ele>163</ele>
        <time>2017-03-22T18:59:24Z</time>
      </trkpt>
      <trkpt lat="50.61065" lon="1.99601">
        <ele>164</ele>
        <time>2017-03-22T19:01:24Z</time>
      </trkpt>
      <trkpt lat="50.61089" lon="1.99554">
        <ele>166</ele>
        <time>2017-03-22T19:03:24Z</time>
      </trkpt>
      <trkpt lat="50.61125" lon="1.99495">
        <ele>167</ele>
        <time>2017-03-22T19:05:24Z</time>
      </trkpt>
      <trkpt lat="50.61134" lon="1.99475">
        <ele>167</ele>
        <time>2017-03-22T19:07:24Z</time>
      </trkpt>
      <trkpt lat="50.61135" lon="1.99467">
        <ele>167</ele>
        <time>2017-03-22T19:09:24Z</time>
      </trkpt>
      <trkpt lat="50.61138" lon="1.99469">
        <ele>167</ele>
        <time>2017-03-22T19:11:24Z</time>
      </trkpt>
      <trkpt lat="50.61142" lon="1.99474">
        <ele>167</ele>
        <time>2017-03-22T19:13:24Z</time>
      </trkpt>
      <trkpt lat="50.61146" lon="1.99486">
        <ele>166</ele>
        <time>2017-03-22T19:15:24Z</time>
      </trkpt>
      <trkpt lat="50.61158" lon="1.99515">
        <ele>166</ele>
        <time>2017-03-22T19:17:24Z</time>
      </trkpt>
      <trkpt lat="50.61166" lon="1.99533">
        <ele>166</ele>
        <time>2017-03-22T19:19:24Z</time>
      </trkpt>
      <trkpt lat="50.61174" lon="1.99542">
        <ele>166</ele>
        <time>2017-03-22T19:21:24Z</time>
      </trkpt>
      <trkpt lat="50.61196" lon="1.99547">
        <ele>166</ele>
        <time>2017-03-22T19:23:24Z</time>
      </trkpt>
      <trkpt lat="50.61204" lon="1.99559">
        <ele>166</ele>
        <time>2017-03-22T19:25:24Z</time>
      </trkpt>
      <trkpt lat="50.6121" lon="1.99582">
        <ele>166</ele>
        <time>2017-03-22T19:27:24Z</time>
      </trkpt>
      <trkpt lat="50.61218" lon="1.99626">
        <ele>166</ele>
        <time>2017-03-22T19:29:24Z</time>
      </trkpt>
      <trkpt lat="50.6123" lon="1.99677">
        <ele>167</ele>
        <time>2017-03-22T19:31:24Z</time>
      </trkpt>
      <trkpt lat="50.61263" lon="1.99785">
        <ele>167</ele>
        <time>2017-03-22T19:33:24Z</time>
      </trkpt>
      <trkpt lat="50.61317" lon="1.99928">
        <ele>164</ele>
        <time>2017-03-22T19:35:24Z</time>
      </trkpt>
      <trkpt lat="50.61335" lon="1.99965">
        <ele>163</ele>
        <time>2017-03-22T19:37:24Z</time>
      </trkpt>
      <trkpt lat="50.61357" lon="2.00004">
        <ele>163</ele>
        <time>2017-03-22T19:39:24Z</time>
      </trkpt>
      <trkpt lat="50.61404" lon="2.00081">
        <ele>160</ele>
        <time>2017-03-22T19:41:24Z</time>
      </trkpt>
      <trkpt lat="50.6144" lon="2.00132">
        <ele>159</ele>
        <time>2017-03-22T19:43:24Z</time>
      </trkpt>
      <trkpt lat="50.61489" lon="2.00197">
        <ele>158</ele>
        <time>2017-03-22T19:45:24Z</time>
      </trkpt>
      <trkpt lat="50.61496" lon="2.00208">
        <ele>158</ele>
        <time>2017-03-22T19:47:24Z</time>
      </trkpt>
      <trkpt lat="50.61523" lon="2.00262">
        <ele>157</ele>
        <time>2017-03-22T19:49:24Z</time>
      </trkpt>
      <trkpt lat="50.61591" lon="2.00402">
        <ele>154</ele>
        <time>2017-03-22T19:51:24Z</time>
      </trkpt>
      <trkpt lat="50.61634" lon="2.00497">
        <ele>152</ele>
        <time>2017-03-22T19:53:24Z</time>
      </trkpt>
      <trkpt lat="50.61797" lon="2.00867">
        <ele>143</ele>
        <time>2017-03-22T19:55:24Z</time>
      </trkpt>
      <trkpt lat="50.61825" lon="2.00925">
        <ele>142</ele>
        <time>2017-03-22T19:57:24Z</time>
      </trkpt>
      <trkpt lat="50.61839" lon="2.00945">
        <ele>141</ele>
        <time>2017-03-22T19:59:24Z</time>
      </trkpt>
      <trkpt lat="50.61855" lon="2.00961">
        <ele>142</ele>
        <time>2017-03-22T20:01:24Z</time>
      </trkpt>
      <trkpt lat="50.61877" lon="2.00973">
        <ele>143</ele>
        <time>2017-03-22T20:03:24Z</time>
      </trkpt>
      <trkpt lat="50.61902" lon="2.00981">
        <ele>145</ele>
        <time>2017-03-22T20:05:24Z</time>
      </trkpt>
      <trkpt lat="50.61947" lon="2.00991">
        <ele>146</ele>
        <time>2017-03-22T20:07:24Z</time>
      </trkpt>
      <trkpt lat="50.61989" lon="2.01002">
        <ele>146</ele>
        <time>2017-03-22T20:09:24Z</time>
      </trkpt>
      <trkpt lat="50.62006" lon="2.01008">
        <ele>146</ele>
        <time>2017-03-22T20:11:24Z</time>
      </trkpt>
      <trkpt lat="50.62013" lon="2.01017">
        <ele>146</ele>
        <time>2017-03-22T20:13:24Z</time>
      </trkpt>
      <trkpt lat="50.62028" lon="2.01052">
        <ele>146</ele>
        <time>2017-03-22T20:15:24Z</time>
      </trkpt>
      <trkpt lat="50.62081" lon="2.01185">
        <ele>140</ele>
        <time>2017-03-22T20:17:24Z</time>
      </trkpt>
      <trkpt lat="50.621" lon="2.01223">
        <ele>137</ele>
        <time>2017-03-22T20:19:24Z</time>
      </trkpt>
      <trkpt lat="50.62114" lon="2.01247">
        <ele>135</ele>
        <time>2017-03-22T20:21:24Z</time>
      </trkpt>
      <trkpt lat="50.62132" lon="2.01272">
        <ele>132</ele>
        <time>2017-03-22T20:23:24Z</time>
      </trkpt>
      <trkpt lat="50.62155" lon="2.01298">
        <ele>129</ele>
        <time>2017-03-22T20:25:24Z</time>
      </trkpt>
      <trkpt lat="50.62172" lon="2.01316">
        <ele>128</ele>
        <time>2017-03-22T20:27:24Z</time>
      </trkpt>
      <trkpt lat="50.62148" lon="2.01392">
        <ele>128</ele>
        <time>2017-03-22T20:29:24Z</time>
      </trkpt>
      <trkpt lat="50.62156" lon="2.01404">
        <ele>127</ele>
        <time>2017-03-22T20:31:24Z</time>
      </trkpt>
      <trkpt lat="50.62212" lon="2.01469">
        <ele>132</ele>
        <time>2017-03-22T20:33:24Z</time>
      </trkpt>
      <trkpt lat="50.62221" lon="2.01477">
        <ele>133</ele>
        <time>2017-03-22T20:35:24Z</time>
      </trkpt>
      <trkpt lat="50.62239" lon="2.01483">
        <ele>135</ele>
        <time>2017-03-22T20:37:24Z</time>
      </trkpt>
      <trkpt lat="50.62264" lon="2.0148">
        <ele>138</ele>
        <time>2017-03-22T20:39:24Z</time>
      </trkpt>
      <trkpt lat="50.62288" lon="2.01484">
        <ele>140</ele>
        <time>2017-03-22T20:41:24Z</time>
      </trkpt>
      <trkpt lat="50.62303" lon="2.01489">
        <ele>141</ele>
        <time>2017-03-22T20:43:24Z</time>
      </trkpt>
      <trkpt lat="50.62331" lon="2.01506">
        <ele>144</ele>
        <time>2017-03-22T20:45:24Z</time>
      </trkpt>
      <trkpt lat="50.62366" lon="2.0153">
        <ele>146</ele>
        <time>2017-03-22T20:47:24Z</time>
      </trkpt>
      <trkpt lat="50.62402" lon="2.01568">
        <ele>148</ele>
        <time>2017-03-22T20:49:24Z</time>
      </trkpt>
      <trkpt lat="50.62445" lon="2.01611">
        <ele>149</ele>
        <time>2017-03-22T20:51:24Z</time>
      </trkpt>
      <trkpt lat="50.62477" lon="2.01631">
        <ele>149</ele>
        <time>2017-03-22T20:53:24Z</time>
      </trkpt>
      <trkpt lat="50.62495" lon="2.01639">
        <ele>149</ele>
        <time>2017-03-22T20:55:24Z</time>
      </trkpt>
      <trkpt lat="50.62518" lon="2.01643">
        <ele>150</ele>
        <time>2017-03-22T20:57:24Z</time>
      </trkpt>
      <trkpt lat="50.62563" lon="2.01646">
        <ele>151</ele>
        <time>2017-03-22T20:59:24Z</time>
      </trkpt>
      <trkpt lat="50.62682" lon="2.01646">
        <ele>154</ele>
        <time>2017-03-22T21:01:24Z</time>
      </trkpt>
      <trkpt lat="50.62759" lon="2.01648">
        <ele>158</ele>
        <time>2017-03-22T21:03:24Z</time>
      </trkpt>
      <trkpt lat="50.62817" lon="2.01653">
        <ele>161</ele>
        <time>2017-03-22T21:05:24Z</time>
      </trkpt>
      <trkpt lat="50.62922" lon="2.01669">
        <ele>165</ele>
        <time>2017-03-22T21:07:24Z</time>
      </trkpt>
      <trkpt lat="50.62944" lon="2.01675">
        <ele>165</ele>
        <time>2017-03-22T21:09:24Z</time>
      </trkpt>
      <trkpt lat="50.62977" lon="2.01691">
        <ele>165</ele>
        <time>2017-03-22T21:11:24Z</time>
      </trkpt>
      <trkpt lat="50.63077" lon="2.01743">
        <ele>161</ele>
        <time>2017-03-22T21:13:24Z</time>
      </trkpt>
      <trkpt lat="50.63107" lon="2.01761">
        <ele>160</ele>
        <time>2017-03-22T21:15:24Z</time>
      </trkpt>
      <trkpt lat="50.63133" lon="2.01781">
        <ele>159</ele>
        <time>2017-03-22T21:17:24Z</time>
      </trkpt>
      <trkpt lat="50.63198" lon="2.01833">
        <ele>156</ele>
        <time>2017-03-22T21:19:24Z</time>
      </trkpt>
      <trkpt lat="50.63222" lon="2.01855">
        <ele>155</ele>
        <time>2017-03-22T21:21:24Z</time>
      </trkpt>
      <trkpt lat="50.63241" lon="2.01877">
        <ele>155</ele>
        <time>2017-03-22T21:23:24Z</time>
      </trkpt>
      <trkpt lat="50.63264" lon="2.0191">
        <ele>155</ele>
        <time>2017-03-22T21:25:24Z</time>
      </trkpt>
      <trkpt lat="50.63314" lon="2.01983">
        <ele>160</ele>
        <time>2017-03-22T21:27:24Z</time>
      </trkpt>
      <trkpt lat="50.63353" lon="2.02038">
        <ele>164</ele>
        <time>2017-03-22T21:29:24Z</time>
      </trkpt>
      <trkpt lat="50.63388" lon="2.02098">
        <ele>167</ele>
        <time>2017-03-22T21:31:24Z</time>
      </trkpt>
      <trkpt lat="50.63411" lon="2.02143">
        <ele>170</ele>
        <time>2017-03-22T21:33:24Z</time>
      </trkpt>
      <trkpt lat="50.63431" lon="2.02173">
        <ele>171</ele>
        <time>2017-03-22T21:35:24Z</time>
      </trkpt>
      <trkpt lat="50.63456" lon="2.02199">
        <ele>171</ele>
        <time>2017-03-22T21:37:24Z</time>
      </trkpt>
      <trkpt lat="50.63478" lon="2.0221">
        <ele>172</ele>
        <time>2017-03-22T21:39:24Z</time>
      </trkpt>
      <trkpt lat="50.63507" lon="2.02216">
        <ele>173</ele>
        <time>2017-03-22T21:41:24Z</time>
      </trkpt>
      <trkpt lat="50.63569" lon="2.02216">
        <ele>176</ele>
        <time>2017-03-22T21:43:24Z</time>
      </trkpt>
      <trkpt lat="50.6364" lon="2.02215">
        <ele>181</ele>
        <time>2017-03-22T21:45:24Z</time>
      </trkpt>
      <trkpt lat="50.6367" lon="2.02217">
        <ele>183</ele>
        <time>2017-03-22T21:47:24Z</time>
      </trkpt>
      <trkpt lat="50.63691" lon="2.02227">
        <ele>185</ele>
        <time>2017-03-22T21:49:24Z</time>
      </trkpt>
      <trkpt lat="50.6384" lon="2.02361">
        <ele>192</ele>
        <time>2017-03-22T21:51:24Z</time>
      </trkpt>
      <trkpt lat="50.6386" lon="2.02383">
        <ele>192</ele>
        <time>2017-03-22T21:53:24Z</time>
      </trkpt>
      <trkpt lat="50.6388" lon="2.0241">
        <ele>190</ele>
        <time>2017-03-22T21:55:24Z</time>
      </trkpt>
      <trkpt lat="50.63953" lon="2.0251">
        <ele>185</ele>
        <time>2017-03-22T21:57:24Z</time>
      </trkpt>
      <trkpt lat="50.63961" lon="2.02523">
        <ele>184</ele>
        <time>2017-03-22T21:59:24Z</time>
      </trkpt>
      <trkpt lat="50.63974" lon="2.02554">
        <ele>183</ele>
        <time>2017-03-22T22:01:24Z</time>
      </trkpt>
      <trkpt lat="50.63999" lon="2.0263">
        <ele>180</ele>
        <time>2017-03-22T22:03:24Z</time>
      </trkpt>
      <trkpt lat="50.64015" lon="2.02671">
        <ele>180</ele>
        <time>2017-03-22T22:05:24Z</time>
      </trkpt>
      <trkpt lat="50.64035" lon="2.02712">
        <ele>182</ele>
        <time>2017-03-22T22:07:24Z</time>
      </trkpt>
      <trkpt lat="50.64072" lon="2.02782">
        <ele>184</ele>
        <time>2017-03-22T22:09:24Z</time>
      </trkpt>
      <trkpt lat="50.64098" lon="2.02828">
        <ele>185</ele>
        <time>2017-03-22T22:11:24Z</time>
      </trkpt>
      <trkpt lat="50.64115" lon="2.02854">
        <ele>187</ele>
        <time>2017-03-22T22:13:24Z</time>
      </trkpt>
      <trkpt lat="50.6415" lon="2.02905">
        <ele>188</ele>
        <time>2017-03-22T22:15:24Z</time>
      </trkpt>
      <trkpt lat="50.64167" lon="2.02933">
        <ele>188</ele>
        <time>2017-03-22T22:17:24Z</time>
      </trkpt>
      <trkpt lat="50.64186" lon="2.02974">
        <ele>187</ele>
        <time>2017-03-22T22:19:24Z</time>
      </trkpt>
      <trkpt lat="50.64215" lon="2.03047">
        <ele>187</ele>
        <time>2017-03-22T22:21:24Z</time>
      </trkpt>
      <trkpt lat="50.6423" lon="2.03084">
        <ele>188</ele>
        <time>2017-03-22T22:23:24Z</time>
      </trkpt>
      <trkpt lat="50.64239" lon="2.03107">
        <ele>189</ele>
        <time>2017-03-22T22:25:24Z</time>
      </trkpt>
      <trkpt lat="50.64274" lon="2.03035">
        <ele>189</ele>
        <time>2017-03-22T22:27:24Z</time>
      </trkpt>
      <trkpt lat="50.64345" lon="2.02891">
        <ele>192</ele>
        <time>2017-03-22T22:29:24Z</time>
      </trkpt>
      <trkpt lat="50.64378" lon="2.02815">
        <ele>193</ele>
        <time>2017-03-22T22:31:24Z</time>
      </trkpt>
      <trkpt lat="50.64434" lon="2.0268">
        <ele>195</ele>
        <time>2017-03-22T22:33:24Z</time>
      </trkpt>
      <trkpt lat="50.64443" lon="2.02655">
        <ele>195</ele>
        <time>2017-03-22T22:35:24Z</time>
      </trkpt>
      <trkpt lat="50.64456" lon="2.02623">
        <ele>196</ele>
        <time>2017-03-22T22:37:24Z</time>
      </trkpt>
      <trkpt lat="50.64461" lon="2.0262">
        <ele>196</ele>
        <time>2017-03-22T22:39:24Z</time>
      </trkpt>
      <trkpt lat="50.64465" lon="2.02378">
        <ele>199</ele>
        <time>2017-03-22T22:41:24Z</time>
      </trkpt>
      <trkpt lat="50.64463" lon="2.02169">
        <ele>203</ele>
        <time>2017-03-22T22:43:24Z</time>
      </trkpt>
      <trkpt lat="50.64453" lon="2.0175">
        <ele>199</ele>
        <time>2017-03-22T22:45:24Z</time>
      </trkpt>
      <trkpt lat="50.64439" lon="2.01333">
        <ele>196</ele>
        <time>2017-03-22T22:47:24Z</time>
      </trkpt>
      <trkpt lat="50.64445" lon="2.01332">
        <ele>195</ele>
        <time>2017-03-22T22:49:24Z</time>
      </trkpt>
      <trkpt lat="50.64447" lon="2.01329">
        <ele>195</ele>
        <time>2017-03-22T22:51:24Z</time>
      </trkpt>
      <trkpt lat="50.64452" lon="2.01319">
        <ele>194</ele>
        <time>2017-03-22T22:53:24Z</time>
      </trkpt>
      <trkpt lat="50.64473" lon="2.01242">
        <ele>190</ele>
        <time>2017-03-22T22:55:24Z</time>
      </trkpt>
      <trkpt lat="50.64523" lon="2.0103">
        <ele>183</ele>
        <time>2017-03-22T22:57:24Z</time>
      </trkpt>
      <trkpt lat="50.64541" lon="2.00979">
        <ele>182</ele>
        <time>2017-03-22T22:59:24Z</time>
      </trkpt>
      <trkpt lat="50.64605" lon="2.00807">
        <ele>176</ele>
        <time>2017-03-22T23:01:24Z</time>
      </trkpt>
      <trkpt lat="50.64635" lon="2.00721">
        <ele>174</ele>
        <time>2017-03-22T23:03:24Z</time>
      </trkpt>
      <trkpt lat="50.6465" lon="2.00674">
        <ele>171</ele>
        <time>2017-03-22T23:05:24Z</time>
      </trkpt>
      <trkpt lat="50.64661" lon="2.00628">
        <ele>168</ele>
        <time>2017-03-22T23:07:24Z</time>
      </trkpt>
      <trkpt lat="50.64667" lon="2.00581">
        <ele>165</ele>
        <time>2017-03-22T23:09:24Z</time>
      </trkpt>
      <trkpt lat="50.64669" lon="2.00524">
        <ele>163</ele>
        <time>2017-03-22T23:11:24Z</time>
      </trkpt>
      <trkpt lat="50.64665" lon="2.00444">
        <ele>160</ele>
        <time>2017-03-22T23:13:24Z</time>
      </trkpt>
      <trkpt lat="50.64651" lon="2.0034">
        <ele>158</ele>
        <time>2017-03-22T23:15:24Z</time>
      </trkpt>
      <trkpt lat="50.64649" lon="2.00293">
        <ele>156</ele>
        <time>2017-03-22T23:17:24Z</time>
      </trkpt>
      <trkpt lat="50.64652" lon="2.0025">
        <ele>154</ele>
        <time>2017-03-22T23:19:24Z</time>
      </trkpt>
      <trkpt lat="50.64665" lon="2.002">
        <ele>151</ele>
        <time>2017-03-22T23:21:24Z</time>
      </trkpt>
      <trkpt lat="50.647" lon="2.00113">
        <ele>148</ele>
        <time>2017-03-22T23:23:24Z</time>
      </trkpt>
      <trkpt lat="50.64721" lon="2.00078">
        <ele>146</ele>
        <time>2017-03-22T23:25:24Z</time>
      </trkpt>
      <trkpt lat="50.6473" lon="2.00064">
        <ele>145</ele>
        <time>2017-03-22T23:27:24Z</time>
      </trkpt>
      <trkpt lat="50.6477" lon="2.00007">
        <ele>141</ele>
        <time>2017-03-22T23:29:24Z</time>
      </trkpt>
      <trkpt lat="50.6479" lon="1.9997">
        <ele>140</ele>
        <time>2017-03-22T23:31:24Z</time>
      </trkpt>
      <trkpt lat="50.64793" lon="1.99962">
        <ele>140</ele>
        <time>2017-03-22T23:33:24Z</time>
      </trkpt>
      <trkpt lat="50.64805" lon="1.99953">
        <ele>141</ele>
        <time>2017-03-22T23:35:24Z</time>
      </trkpt>
      <trkpt lat="50.64863" lon="1.99903">
        <ele>143</ele>
        <time>2017-03-22T23:37:24Z</time>
      </trkpt>
      <trkpt lat="50.64873" lon="1.99896">
        <ele>144</ele>
        <time>2017-03-22T23:39:24Z</time>
      </trkpt>
      <trkpt lat="50.64877" lon="1.99887">
        <ele>144</ele>
        <time>2017-03-22T23:41:24Z</time>
      </trkpt>
      <trkpt lat="50.64894" lon="1.9987">
        <ele>145</ele>
        <time>2017-03-22T23:43:24Z</time>
      </trkpt>
      <trkpt lat="50.64918" lon="1.99849">
        <ele>147</ele>
        <time>2017-03-22T23:45:24Z</time>
      </trkpt>
      <trkpt lat="50.64938" lon="1.99831">
        <ele>149</ele>
        <time>2017-03-22T23:47:24Z</time>
      </trkpt>
      <trkpt lat="50.64966" lon="1.99803">
        <ele>153</ele>
        <time>2017-03-22T23:49:24Z</time>
      </trkpt>
      <trkpt lat="50.65002" lon="1.9976">
        <ele>158</ele>
        <time>2017-03-22T23:51:24Z</time>
      </trkpt>
      <trkpt lat="50.65028" lon="1.99723">
        <ele>162</ele>
        <time>2017-03-22T23:53:24Z</time>
      </trkpt>
      <trkpt lat="50.65045" lon="1.99693">
        <ele>164</ele>
        <time>2017-03-22T23:55:24Z</time>
      </trkpt>
      <trkpt lat="50.65062" lon="1.99653">
        <ele>166</ele>
        <time>2017-03-22T23:57:24Z</time>
      </trkpt>
      <trkpt lat="50.65093" lon="1.99563">
        <ele>167</ele>
        <time>2017-03-22T23:59:24Z</time>
      </trkpt>
      <trkpt lat="50.6512" lon="1.99488">
        <ele>163</ele>
        <time>2017-03-23T00:01:24Z</time>
      </trkpt>
      <trkpt lat="50.65127" lon="1.99465">
        <ele>160</ele>
        <time>2017-03-23T00:03:24Z</time>
      </trkpt>
      <trkpt lat="50.65129" lon="1.99446">
        <ele>158</ele>
        <time>2017-03-23T00:05:24Z</time>
      </trkpt>
      <trkpt lat="50.65126" lon="1.99418">
        <ele>157</ele>
        <time>2017-03-23T00:07:24Z</time>
      </trkpt>
      <trkpt lat="50.65117" lon="1.99378">
        <ele>156</ele>
        <time>2017-03-23T00:09:24Z</time>
      </trkpt>
      <trkpt lat="50.65106" lon="1.99332">
        <ele>155</ele>
        <time>2017-03-23T00:11:24Z</time>
      </trkpt>
      <trkpt lat="50.65103" lon="1.99277">
        <ele>152</ele>
        <time>2017-03-23T00:13:24Z</time>
      </trkpt>
      <trkpt lat="50.65104" lon="1.99225">
        <ele>147</ele>
        <time>2017-03-23T00:15:24Z</time>
      </trkpt>
      <trkpt lat="50.65107" lon="1.99188">
        <ele>144</ele>
        <time>2017-03-23T00:17:24Z</time>
      </trkpt>
      <trkpt lat="50.6512" lon="1.99131">
        <ele>139</ele>
        <time>2017-03-23T00:19:24Z</time>
      </trkpt>
      <trkpt lat="50.65132" lon="1.99092">
        <ele>135</ele>
        <time>2017-03-23T00:21:24Z</time>
      </trkpt>
      <trkpt lat="50.65168" lon="1.99026">
        <ele>129</ele>
        <time>2017-03-23T00:23:24Z</time>
      </trkpt>
      <trkpt lat="50.65199" lon="1.9898">
        <ele>126</ele>
        <time>2017-03-23T00:25:24Z</time>
      </trkpt>
      <trkpt lat="50.65222" lon="1.98952">
        <ele>124</ele>
        <time>2017-03-23T00:27:24Z</time>
      </trkpt>
      <trkpt lat="50.65246" lon="1.98919">
        <ele>123</ele>
        <time>2017-03-23T00:29:24Z</time>
      </trkpt>
      <trkpt lat="50.65255" lon="1.98906">
        <ele>123</ele>
        <time>2017-03-23T00:31:24Z</time>
      </trkpt>
      <trkpt lat="50.65258" lon="1.98897">
        <ele>123</ele>
        <time>2017-03-23T00:33:24Z</time>
      </trkpt>
      <trkpt lat="50.6526" lon="1.98893">
        <ele>123</ele>
        <time>2017-03-23T00:35:24Z</time>
      </trkpt>
      <trkpt lat="50.65274" lon="1.98913">
        <ele>123</ele>
        <time>2017-03-23T00:37:24Z</time>
      </trkpt>
      <trkpt lat="50.65297" lon="1.98956">
        <ele>122</ele>
        <time>2017-03-23T00:39:24Z</time>
      </trkpt>
      <trkpt lat="50.6536" lon="1.99091">
        <ele>121</ele>
        <time>2017-03-23T00:41:24Z</time>
      </trkpt>
      <trkpt lat="50.65395" lon="1.99167">
        <ele>119</ele>
        <time>2017-03-23T00:43:24Z</time>
      </trkpt>
      <trkpt lat="50.65421" lon="1.99207">
        <ele>120</ele>
        <time>2017-03-23T00:45:24Z</time>
      </trkpt>
      <trkpt lat="50.65442" lon="1.99236">
        <ele>120</ele>
        <time>2017-03-23T00:47:24Z</time>
      </trkpt>
      <trkpt lat="50.65488" lon="1.99199">
        <ele>124</ele>
        <time>2017-03-23T00:49:24Z</time>
      </trkpt>
      <trkpt lat="50.65555" lon="1.99143">
        <ele>128</ele>
        <time>2017-03-23T00:51:24Z</time>
      </trkpt>
      <trkpt lat="50.65602" lon="1.99091">
        <ele>133</ele>
        <time>2017-03-23T00:53:24Z</time>
      </trkpt>
      <trkpt lat="50.65625" lon="1.99077">
        <ele>134</ele>
        <time>2017-03-23T00:55:24Z</time>
      </trkpt>
      <trkpt lat="50.65646" lon="1.99068">
        <ele>135</ele>
        <time>2017-03-23T00:57:24Z</time>
      </trkpt>
      <trkpt lat="50.65686" lon="1.99055">
        <ele>137</ele>
        <time>2017-03-23T00:59:24Z</time>
      </trkpt>
      <trkpt lat="50.6573" lon="1.99047">
        <ele>138</ele>
        <time>2017-03-23T01:01:24Z</time>
      </trkpt>
      <trkpt lat="50.6575" lon="1.99044">
        <ele>138</ele>
        <time>2017-03-23T01:03:24Z</time>
      </trkpt>
      <trkpt lat="50.658" lon="1.99045">
        <ele>136</ele>
        <time>2017-03-23T01:05:24Z</time>
      </trkpt>
      <trkpt lat="50.65897" lon="1.99049">
        <ele>131</ele>
        <time>2017-03-23T01:07:24Z</time>
      </trkpt>
      <trkpt lat="50.66015" lon="1.99056">
        <ele>124</ele>
        <time>2017-03-23T01:09:24Z</time>
      </trkpt>
      <trkpt lat="50.66061" lon="1.99061">
        <ele>122</ele>
        <time>2017-03-23T01:11:24Z</time>
      </trkpt>
      <trkpt lat="50.66107" lon="1.99069">
        <ele>120</ele>
        <time>2017-03-23T01:13:24Z</time>
      </trkpt>
      <trkpt lat="50.66129" lon="1.99075">
        <ele>119</ele>
        <time>2017-03-23T01:15:24Z</time>
      </trkpt>
      <trkpt lat="50.66174" lon="1.99106">
        <ele>117</ele>
        <time>2017-03-23T01:17:24Z</time>
      </trkpt>
      <trkpt lat="50.66235" lon="1.99143">
        <ele>115</ele>
        <time>2017-03-23T01:19:24Z</time>
      </trkpt>
      <trkpt lat="50.6625" lon="1.9915">
        <ele>114</ele>
        <time>2017-03-23T01:21:24Z</time>
      </trkpt>
      <trkpt lat="50.66258" lon="1.99152">
        <ele>114</ele>
        <time>2017-03-23T01:23:24Z</time>
      </trkpt>
      <trkpt lat="50.66264" lon="1.99152">
        <ele>114</ele>
        <time>2017-03-23T01:25:24Z</time>
      </trkpt>
      <trkpt lat="50.66269" lon="1.99147">
        <ele>114</ele>
        <time>2017-03-23T01:27:24Z</time>
      </trkpt>
      <trkpt lat="50.6628" lon="1.99138">
        <ele>114</ele>
        <time>2017-03-23T01:29:24Z</time>
      </trkpt>
      <trkpt lat="50.66289" lon="1.9913">
        <ele>113</ele>
        <time>2017-03-23T01:31:24Z</time>
      </trkpt>
      <trkpt lat="50.66294" lon="1.99131">
        <ele>113</ele>
        <time>2017-03-23T01:33:24Z</time>
      </trkpt>
      <trkpt lat="50.66302" lon="1.99126">
        <ele>113</ele>
        <time>2017-03-23T01:35:24Z</time>
      </trkpt>
      <trkpt lat="50.66316" lon="1.9912">
        <ele>113</ele>
        <time>2017-03-23T01:37:24Z</time>
      </trkpt>
      <trkpt lat="50.66327" lon="1.99116">
        <ele>113</ele>
        <time>2017-03-23T01:39:24Z</time>
      </trkpt>
      <trkpt lat="50.66336" lon="1.99114">
        <ele>113</ele>
        <time>2017-03-23T01:41:24Z</time>
      </trkpt>
      <trkpt lat="50.66344" lon="1.99085">
        <ele>114</ele>
        <time>2017-03-23T01:43:24Z</time>
      </trkpt>
      <trkpt lat="50.66347" lon="1.99067">
        <ele>115</ele>
        <time>2017-03-23T01:45:24Z</time>
      </trkpt>
      <trkpt lat="50.66348" lon="1.99045">
        <ele>115</ele>
        <time>2017-03-23T01:47:24Z</time>
      </trkpt>
      <trkpt lat="50.66341" lon="1.99001">
        <ele>116</ele>
        <time>2017-03-23T01:49:24Z</time>
      </trkpt>
      <trkpt lat="50.66331" lon="1.98954">
        <ele>118</ele>
        <time>2017-03-23T01:51:24Z</time>
      </trkpt>
      <trkpt lat="50.66327" lon="1.98908">
        <ele>119</ele>
        <time>2017-03-23T01:53:24Z</time>
      </trkpt>
      <trkpt lat="50.66325" lon="1.98868">
        <ele>120</ele>
        <time>2017-03-23T01:55:24Z</time>
      </trkpt>
      <trkpt lat="50.66321" lon="1.9884">
        <ele>120</ele>
        <time>2017-03-23T01:57:24Z</time>
      </trkpt>
      <trkpt lat="50.66313" lon="1.98792">
        <ele>121</ele>
        <time>2017-03-23T01:59:24Z</time>
      </trkpt>
      <trkpt lat="50.66302" lon="1.98666">
        <ele>124</ele>
        <time>2017-03-23T02:01:24Z</time>
      </trkpt>
      <trkpt lat="50.66295" lon="1.9862">
        <ele>125</ele>
        <time>2017-03-23T02:03:24Z</time>
      </trkpt>
      <trkpt lat="50.66276" lon="1.98508">
        <ele>125</ele>
        <time>2017-03-23T02:05:24Z</time>
      </trkpt>
      <trkpt lat="50.66268" lon="1.9841">
        <ele>125</ele>
        <time>2017-03-23T02:07:24Z</time>
      </trkpt>
      <trkpt lat="50.66263" lon="1.98268">
        <ele>125</ele>
        <time>2017-03-23T02:09:24Z</time>
      </trkpt>
      <trkpt lat="50.66259" lon="1.98035">
        <ele>125</ele>
        <time>2017-03-23T02:11:24Z</time>
      </trkpt>
      <trkpt lat="50.66255" lon="1.97989">
        <ele>125</ele>
        <time>2017-03-23T02:13:24Z</time>
      </trkpt>
      <trkpt lat="50.66245" lon="1.97927">
        <ele>126</ele>
        <time>2017-03-23T02:15:24Z</time>
      </trkpt>
      <trkpt lat="50.6624" lon="1.97902">
        <ele>126</ele>
        <time>2017-03-23T02:17:24Z</time>
      </trkpt>
      <trkpt lat="50.6622" lon="1.97766">
        <ele>127</ele>
        <time>2017-03-23T02:19:24Z</time>
      </trkpt>
      <trkpt lat="50.66218" lon="1.9773">
        <ele>127</ele>
        <time>2017-03-23T02:21:24Z</time>
      </trkpt>
      <trkpt lat="50.66222" lon="1.97703">
        <ele>128</ele>
        <time>2017-03-23T02:23:24Z</time>
      </trkpt>
      <trkpt lat="50.66244" lon="1.97625">
        <ele>129</ele>
        <time>2017-03-23T02:25:24Z</time>
      </trkpt>
      <trkpt lat="50.66271" lon="1.97528">
        <ele>131</ele>
        <time>2017-03-23T02:27:24Z</time>
      </trkpt>
      <trkpt lat="50.66286" lon="1.9748">
        <ele>132</ele>
        <time>2017-03-23T02:29:24Z</time>
      </trkpt>
      <trkpt lat="50.66299" lon="1.9745">
        <ele>134</ele>
        <time>2017-03-23T02:31:24Z</time>
      </trkpt>
      <trkpt lat="50.66329" lon="1.97384">
        <ele>137</ele>
        <time>2017-03-23T02:33:24Z</time>
      </trkpt>
      <trkpt lat="50.66348" lon="1.97331">
        <ele>138</ele>
        <time>2017-03-23T02:35:24Z</time>
      </trkpt>
      <trkpt lat="50.66361" lon="1.97275">
        <ele>140</ele>
        <time>2017-03-23T02:37:24Z</time>
      </trkpt>
      <trkpt lat="50.66387" lon="1.97147">
        <ele>143</ele>
        <time>2017-03-23T02:39:24Z</time>
      </trkpt>
      <trkpt lat="50.66459" lon="1.96701">
        <ele>158</ele>
        <time>2017-03-23T02:41:24Z</time>
      </trkpt>
      <trkpt lat="50.66486" lon="1.96559">
        <ele>161</ele>
        <time>2017-03-23T02:43:24Z</time>
      </trkpt>
      <trkpt lat="50.66498" lon="1.96481">
        <ele>161</ele>
        <time>2017-03-23T02:45:24Z</time>
      </trkpt>
      <trkpt lat="50.665" lon="1.96437">
        <ele>162</ele>
        <time>2017-03-23T02:47:24Z</time>
      </trkpt>
      <trkpt lat="50.66499" lon="1.96385">
        <ele>163</ele>
        <time>2017-03-23T02:49:24Z</time>
      </trkpt>
      <trkpt lat="50.66494" lon="1.96288">
        <ele>166</ele>
        <time>2017-03-23T02:51:24Z</time>
      </trkpt>
      <trkpt lat="50.6648" lon="1.95998">
        <ele>176</ele>
        <time>2017-03-23T02:53:24Z</time>
      </trkpt>
      <trkpt lat="50.6648" lon="1.9595">
        <ele>178</ele>
        <time>2017-03-23T02:55:24Z</time>
      </trkpt>
      <trkpt lat="50.66482" lon="1.95902">
        <ele>179</ele>
        <time>2017-03-23T02:57:24Z</time>
      </trkpt>
      <trkpt lat="50.66492" lon="1.95809">
        <ele>182</ele>
        <time>2017-03-23T02:59:24Z</time>
      </trkpt>
      <trkpt lat="50.66501" lon="1.95748">
        <ele>183</ele>
        <time>2017-03-23T03:01:24Z</time>
      </trkpt>
      <trkpt lat="50.66513" lon="1.95687">
        <ele>185</ele>
        <time>2017-03-23T03:03:24Z</time>
      </trkpt>
      <trkpt lat="50.66526" lon="1.95627">
        <ele>188</ele>
        <time>2017-03-23T03:05:24Z</time>
      </trkpt>
      <trkpt lat="50.66533" lon="1.95596">
        <ele>190</ele>
        <time>2017-03-23T03:07:24Z</time>
      </trkpt>
      <trkpt lat="50.66536" lon="1.95564">
        <ele>191</ele>
        <time>2017-03-23T03:09:24Z</time>
      </trkpt>
      <trkpt lat="50.6654" lon="1.95498">
        <ele>192</ele>
        <time>2017-03-23T03:11:24Z</time>
      </trkpt>
      <trkpt lat="50.66539" lon="1.95431">
        <ele>193</ele>
        <time>2017-03-23T03:13:24Z</time>
      </trkpt>
      <trkpt lat="50.66537" lon="1.95365">
        <ele>194</ele>
        <time>2017-03-23T03:15:24Z</time>
      </trkpt>
      <trkpt lat="50.66536" lon="1.95267">
        <ele>197</ele>
        <time>2017-03-23T03:17:24Z</time>
      </trkpt>
      <trkpt lat="50.66539" lon="1.95238">
        <ele>198</ele>
        <time>2017-03-23T03:19:24Z</time>
      </trkpt>
      <trkpt lat="50.66545" lon="1.95213">
        <ele>198</ele>
        <time>2017-03-23T03:21:24Z</time>
      </trkpt>
      <trkpt lat="50.66564" lon="1.95155">
        <ele>200</ele>
        <time>2017-03-23T03:23:24Z</time>
      </trkpt>
      <trkpt lat="50.66573" lon="1.95118">
        <ele>200</ele>
        <time>2017-03-23T03:25:24Z</time>
      </trkpt>
      <trkpt lat="50.66588" lon="1.95039">
        <ele>202</ele>
        <time>2017-03-23T03:27:24Z</time>
      </trkpt>
      <trkpt lat="50.666" lon="1.94955">
        <ele>203</ele>
        <time>2017-03-23T03:29:24Z</time>
      </trkpt>
      <trkpt lat="50.66613" lon="1.94813">
        <ele>203</ele>
        <time>2017-03-23T03:31:24Z</time>
      </trkpt>
      <trkpt lat="50.66644" lon="1.94452">
        <ele>204</ele>
        <time>2017-03-23T03:33:24Z</time>
      </trkpt>
      <trkpt lat="50.66654" lon="1.9433">
        <ele>206</ele>
        <time>2017-03-23T03:35:24Z</time>
      </trkpt>
      <trkpt lat="50.66654" lon="1.94281">
        <ele>206</ele>
        <time>2017-03-23T03:37:24Z</time>
      </trkpt>
      <trkpt lat="50.66648" lon="1.94183">
        <ele>207</ele>
        <time>2017-03-23T03:39:24Z</time>
      </trkpt>
      <trkpt lat="50.66636" lon="1.94041">
        <ele>207</ele>
        <time>2017-03-23T03:41:24Z</time>
      </trkpt>
      <trkpt lat="50.66625" lon="1.93969">
        <ele>207</ele>
        <time>2017-03-23T03:43:24Z</time>
      </trkpt>
      <trkpt lat="50.66616" lon="1.93928">
        <ele>207</ele>
        <time>2017-03-23T03:45:24Z</time>
      </trkpt>
      <trkpt lat="50.66599" lon="1.93881">
        <ele>206</ele>
        <time>2017-03-23T03:47:24Z</time>
      </trkpt>
      <trkpt lat="50.66557" lon="1.9373">
        <ele>205</ele>
        <time>2017-03-23T03:49:24Z</time>
      </trkpt>
      <trkpt lat="50.66525" lon="1.93605">
        <ele>204</ele>
        <time>2017-03-23T03:51:24Z</time>
      </trkpt>
      <trkpt lat="50.66515" lon="1.9356">
        <ele>203</ele>
        <time>2017-03-23T03:53:24Z</time>
      </trkpt>
      <trkpt lat="50.66508" lon="1.93513">
        <ele>203</ele>
        <time>2017-03-23T03:55:24Z</time>
      </trkpt>
      <trkpt lat="50.66494" lon="1.93398">
        <ele>201</ele>
        <time>2017-03-23T03:57:24Z</time>
      </trkpt>
      <trkpt lat="50.6647" lon="1.93086">
        <ele>197</ele>
        <time>2017-03-23T03:59:24Z</time>
      </trkpt>
      <trkpt lat="50.66458" lon="1.92963">
        <ele>196</ele>
        <time>2017-03-23T04:01:24Z</time>
      </trkpt>
      <trkpt lat="50.66447" lon="1.92858">
        <ele>195</ele>
        <time>2017-03-23T04:03:24Z</time>
      </trkpt>
      <trkpt lat="50.66436" lon="1.9271">
        <ele>193</ele>
        <time>2017-03-23T04:05:24Z</time>
      </trkpt>
      <trkpt lat="50.66432" lon="1.92662">
        <ele>193</ele>
        <time>2017-03-23T04:07:24Z</time>
      </trkpt>
      <trkpt lat="50.66427" lon="1.92623">
        <ele>192</ele>
        <time>2017-03-23T04:09:24Z</time>
      </trkpt>
      <trkpt lat="50.66395" lon="1.92472">
        <ele>191</ele>
        <time>2017-03-23T04:11:24Z</time>
      </trkpt>
      <trkpt lat="50.66376" lon="1.92405">
        <ele>190</ele>
        <time>2017-03-23T04:13:24Z</time>
      </trkpt>
      <trkpt lat="50.6632" lon="1.9224">
        <ele>188</ele>
        <time>2017-03-23T04:15:24Z</time>
      </trkpt>
      <trkpt lat="50.66305" lon="1.92189">
        <ele>187</ele>
        <time>2017-03-23T04:17:24Z</time>
      </trkpt>
      <trkpt lat="50.66263" lon="1.92008">
        <ele>185</ele>
        <time>2017-03-23T04:19:24Z</time>
      </trkpt>
      <trkpt lat="50.66247" lon="1.91931">
        <ele>187</ele>
        <time>2017-03-23T04:21:24Z</time>
      </trkpt>
      <trkpt lat="50.66238" lon="1.91864">
        <ele>188</ele>
        <time>2017-03-23T04:23:24Z</time>
      </trkpt>
      <trkpt lat="50.66225" lon="1.91751">
        <ele>190</ele>
        <time>2017-03-23T04:25:24Z</time>
      </trkpt>
      <trkpt lat="50.6621" lon="1.91656">
        <ele>191</ele>
        <time>2017-03-23T04:27:24Z</time>
      </trkpt>
      <trkpt lat="50.66166" lon="1.91473">
        <ele>193</ele>
        <time>2017-03-23T04:29:24Z</time>
      </trkpt>
      <trkpt lat="50.66148" lon="1.91385">
        <ele>195</ele>
        <time>2017-03-23T04:31:24Z</time>
      </trkpt>
      <trkpt lat="50.66146" lon="1.91358">
        <ele>195</ele>
        <time>2017-03-23T04:33:24Z</time>
      </trkpt>
      <trkpt lat="50.66146" lon="1.91334">
        <ele>196</ele>
        <time>2017-03-23T04:35:24Z</time>
      </trkpt>
      <trkpt lat="50.66162" lon="1.91204">
        <ele>198</ele>
        <time>2017-03-23T04:37:24Z</time>
      </trkpt>
      <trkpt lat="50.66174" lon="1.91103">
        <ele>198</ele>
        <time>2017-03-23T04:39:24Z</time>
      </trkpt>
      <trkpt lat="50.66177" lon="1.90984">
        <ele>198</ele>
        <time>2017-03-23T04:41:24Z</time>
      </trkpt>
      <trkpt lat="50.66175" lon="1.90946">
        <ele>198</ele>
        <time>2017-03-23T04:43:24Z</time>
      </trkpt>
      <trkpt lat="50.66168" lon="1.90911">
        <ele>198</ele>
        <time>2017-03-23T04:45:24Z</time>
      </trkpt>
      <trkpt lat="50.66156" lon="1.90878">
        <ele>198</ele>
        <time>2017-03-23T04:47:24Z</time>
      </trkpt>
      <trkpt lat="50.66129" lon="1.90771">
        <ele>198</ele>
        <time>2017-03-23T04:49:24Z</time>
      </trkpt>
      <trkpt lat="50.66127" lon="1.90748">
        <ele>198</ele>
        <time>2017-03-23T04:51:24Z</time>
      </trkpt>
      <trkpt lat="50.66133" lon="1.90712">
        <ele>199</ele>
        <time>2017-03-23T04:53:24Z</time>
      </trkpt>
      <trkpt lat="50.66146" lon="1.90642">
        <ele>199</ele>
        <time>2017-03-23T04:55:24Z</time>
      </trkpt>
      <trkpt lat="50.66158" lon="1.90582">
        <ele>198</ele>
        <time>2017-03-23T04:57:24Z</time>
      </trkpt>
      <trkpt lat="50.66176" lon="1.9053">
        <ele>197</ele>
        <time>2017-03-23T04:59:24Z</time>
      </trkpt>
      <trkpt lat="50.66215" lon="1.90428">
        <ele>198</ele>
        <time>2017-03-23T05:01:24Z</time>
      </trkpt>
      <trkpt lat="50.66274" lon="1.90284">
        <ele>201</ele>
        <time>2017-03-23T05:03:24Z</time>
      </trkpt>
      <trkpt lat="50.66302" lon="1.90234">
        <ele>201</ele>
        <time>2017-03-23T05:05:24Z</time>
      </trkpt>
      <trkpt lat="50.66313" lon="1.90216">
        <ele>201</ele>
        <time>2017-03-23T05:07:24Z</time>
      </trkpt>
      <trkpt lat="50.66332" lon="1.90174">
        <ele>201</ele>
        <time>2017-03-23T05:09:24Z</time>
      </trkpt>
      <trkpt lat="50.6635" lon="1.90127">
        <ele>201</ele>
        <time>2017-03-23T05:11:24Z</time>
      </trkpt>
      <trkpt lat="50.66352" lon="1.9009">
        <ele>202</ele>
        <time>2017-03-23T05:13:24Z</time>
      </trkpt>
      <trkpt lat="50.66346" lon="1.90054">
        <ele>202</ele>
        <time>2017-03-23T05:15:24Z</time>
      </trkpt>
      <trkpt lat="50.66312" lon="1.89933">
        <ele>201</ele>
        <time>2017-03-23T05:17:24Z</time>
      </trkpt>
      <trkpt lat="50.66284" lon="1.89861">
        <ele>202</ele>
        <time>2017-03-23T05:19:24Z</time>
      </trkpt>
      <trkpt lat="50.66278" lon="1.89843">
        <ele>202</ele>
        <time>2017-03-23T05:21:24Z</time>
      </trkpt>
      <trkpt lat="50.66275" lon="1.89825">
        <ele>202</ele>
        <time>2017-03-23T05:23:24Z</time>
      </trkpt>
      <trkpt lat="50.66279" lon="1.89754">
        <ele>201</ele>
        <time>2017-03-23T05:25:24Z</time>
      </trkpt>
      <trkpt lat="50.66281" lon="1.89694">
        <ele>201</ele>
        <time>2017-03-23T05:27:24Z</time>
      </trkpt>
      <trkpt lat="50.66278" lon="1.89617">
        <ele>199</ele>
        <time>2017-03-23T05:29:24Z</time>
      </trkpt>
      <trkpt lat="50.66271" lon="1.89548">
        <ele>198</ele>
        <time>2017-03-23T05:31:24Z</time>
      </trkpt>
      <trkpt lat="50.6625" lon="1.8939">
        <ele>196</ele>
        <time>2017-03-23T05:33:24Z</time>
      </trkpt>
      <trkpt lat="50.66227" lon="1.89223">
        <ele>190</ele>
        <time>2017-03-23T05:35:24Z</time>
      </trkpt>
      <trkpt lat="50.66221" lon="1.8917">
        <ele>187</ele>
        <time>2017-03-23T05:37:24Z</time>
      </trkpt>
      <trkpt lat="50.6622" lon="1.89143">
        <ele>186</ele>
        <time>2017-03-23T05:39:24Z</time>
      </trkpt>
      <trkpt lat="50.66222" lon="1.89101">
        <ele>184</ele>
        <time>2017-03-23T05:41:24Z</time>
      </trkpt>
      <trkpt lat="50.66236" lon="1.88935">
        <ele>181</ele>
        <time>2017-03-23T05:43:24Z</time>
      </trkpt>
      <trkpt lat="50.66238" lon="1.88882">
        <ele>181</ele>
        <time>2017-03-23T05:45:24Z</time>
      </trkpt>
      <trkpt lat="50.66234" lon="1.8877">
        <ele>183</ele>
        <time>2017-03-23T05:47:24Z</time>
      </trkpt>
      <trkpt lat="50.66234" lon="1.88704">
        <ele>184</ele>
        <time>2017-03-23T05:49:24Z</time>
      </trkpt>
      <trkpt lat="50.66253" lon="1.88463">
        <ele>192</ele>
        <time>2017-03-23T05:51:24Z</time>
      </trkpt>
      <trkpt lat="50.66269" lon="1.88338">
        <ele>195</ele>
        <time>2017-03-23T05:53:24Z</time>
      </trkpt>
      <trkpt lat="50.66283" lon="1.88231">
        <ele>196</ele>
        <time>2017-03-23T05:55:24Z</time>
      </trkpt>
      <trkpt lat="50.66291" lon="1.88125">
        <ele>196</ele>
        <time>2017-03-23T05:57:24Z</time>
      </trkpt>
      <trkpt lat="50.66296" lon="1.87991">
        <ele>195</ele>
        <time>2017-03-23T05:59:24Z</time>
      </trkpt>
      <trkpt lat="50.66298" lon="1.87895">
        <ele>195</ele>
        <time>2017-03-23T06:01:24Z</time>
      </trkpt>
      <trkpt lat="50.66302" lon="1.87806">
        <ele>194</ele>
        <time>2017-03-23T06:03:24Z</time>
      </trkpt>
      <trkpt lat="50.66318" lon="1.87556">
        <ele>196</ele>
        <time>2017-03-23T06:05:24Z</time>
      </trkpt>
      <trkpt lat="50.6633" lon="1.87397">
        <ele>196</ele>
        <time>2017-03-23T06:07:24Z</time>
      </trkpt>
      <trkpt lat="50.66352" lon="1.87232">
        <ele>198</ele>
        <time>2017-03-23T06:09:24Z</time>
      </trkpt>
      <trkpt lat="50.66361" lon="1.87172">
        <ele>199</ele>
        <time>2017-03-23T06:11:24Z</time>
      </trkpt>
      <trkpt lat="50.66368" lon="1.87101">
        <ele>197</ele>
        <time>2017-03-23T06:13:24Z</time>
      </trkpt>
      <trkpt lat="50.66373" lon="1.87027">
        <ele>195</ele>
        <time>2017-03-23T06:15:24Z</time>
      </trkpt>
      <trkpt lat="50.66384" lon="1.86964">
        <ele>193</ele>
        <time>2017-03-23T06:17:24Z</time>
      </trkpt>
      <trkpt lat="50.66428" lon="1.86805">
        <ele>183</ele>
        <time>2017-03-23T06:19:24Z</time>
      </trkpt>
      <trkpt lat="50.66436" lon="1.8678">
        <ele>183</ele>
        <time>2017-03-23T06:21:24Z</time>
      </trkpt>
      <trkpt lat="50.66452" lon="1.86745">
        <ele>180</ele>
        <time>2017-03-23T06:23:24Z</time>
      </trkpt>
      <trkpt lat="50.66467" lon="1.86705">
        <ele>176</ele>
        <time>2017-03-23T06:25:24Z</time>
      </trkpt>
      <trkpt lat="50.66502" lon="1.86593">
        <ele>168</ele>
        <time>2017-03-23T06:27:24Z</time>
      </trkpt>
      <trkpt lat="50.6653" lon="1.86505">
        <ele>160</ele>
        <time>2017-03-23T06:29:24Z</time>
      </trkpt>
      <trkpt lat="50.66537" lon="1.8646">
        <ele>156</ele>
        <time>2017-03-23T06:31:24Z</time>
      </trkpt>
      <trkpt lat="50.6654" lon="1.86406">
        <ele>154</ele>
        <time>2017-03-23T06:33:24Z</time>
      </trkpt>
      <trkpt lat="50.66539" lon="1.86282">
        <ele>151</ele>
        <time>2017-03-23T06:35:24Z</time>
      </trkpt>
      <trkpt lat="50.6654" lon="1.86262">
        <ele>150</ele>
        <time>2017-03-23T06:37:24Z</time>
      </trkpt>
      <trkpt lat="50.66544" lon="1.86228">
        <ele>149</ele>
        <time>2017-03-23T06:39:24Z</time>
      </trkpt>
      <trkpt lat="50.66552" lon="1.86203">
        <ele>147</ele>
        <time>2017-03-23T06:41:24Z</time>
      </trkpt>
      <trkpt lat="50.66562" lon="1.86189">
        <ele>145</ele>
        <time>2017-03-23T06:43:24Z</time>
      </trkpt>
      <trkpt lat="50.66572" lon="1.86179">
        <ele>143</ele>
        <time>2017-03-23T06:45:24Z</time>
      </trkpt>
      <trkpt lat="50.6659" lon="1.86168">
        <ele>140</ele>
        <time>2017-03-23T06:47:24Z</time>
      </trkpt>
      <trkpt lat="50.66738" lon="1.86133">
        <ele>124</ele>
        <time>2017-03-23T06:49:24Z</time>
      </trkpt>
      <trkpt lat="50.66758" lon="1.86126">
        <ele>122</ele>
        <time>2017-03-23T06:51:24Z</time>
      </trkpt>
      <trkpt lat="50.66766" lon="1.86117">
        <ele>122</ele>
        <time>2017-03-23T06:53:24Z</time>
      </trkpt>
      <trkpt lat="50.66777" lon="1.86101">
        <ele>121</ele>
        <time>2017-03-23T06:55:24Z</time>
      </trkpt>
      <trkpt lat="50.66797" lon="1.86056">
        <ele>119</ele>
        <time>2017-03-23T06:57:24Z</time>
      </trkpt>
      <trkpt lat="50.66815" lon="1.86017">
        <ele>118</ele>
        <time>2017-03-23T06:59:24Z</time>
      </trkpt>
      <trkpt lat="50.66843" lon="1.85966">
        <ele>116</ele>
        <time>2017-03-23T07:01:24Z</time>
      </trkpt>
      <trkpt lat="50.66862" lon="1.85951">
        <ele>116</ele>
        <time>2017-03-23T07:03:24Z</time>
      </trkpt>
      <trkpt lat="50.66978" lon="1.85897">
        <ele>112</ele>
        <time>2017-03-23T07:05:24Z</time>
      </trkpt>
      <trkpt lat="50.67011" lon="1.8588">
        <ele>110</ele>
        <time>2017-03-23T07:07:24Z</time>
      </trkpt>
      <trkpt lat="50.67031" lon="1.85862">
        <ele>109</ele>
        <time>2017-03-23T07:09:24Z</time>
      </trkpt>
      <trkpt lat="50.67022" lon="1.85805">
        <ele>110</ele>
        <time>2017-03-23T07:11:24Z</time>
      </trkpt>
      <trkpt lat="50.66994" lon="1.85636">
        <ele>111</ele>
        <time>2017-03-23T07:13:24Z</time>
      </trkpt>
      <trkpt lat="50.66983" lon="1.85535">
        <ele>112</ele>
        <time>2017-03-23T07:15:24Z</time>
      </trkpt>
      <trkpt lat="50.66972" lon="1.85405">
        <ele>114</ele>
        <time>2017-03-23T07:17:24Z</time>
      </trkpt>
      <trkpt lat="50.66963" lon="1.8534">
        <ele>115</ele>
        <time>2017-03-23T07:19:24Z</time>
      </trkpt>
      <trkpt lat="50.6695" lon="1.85289">
        <ele>115</ele>
        <time>2017-03-23T07:21:24Z</time>
      </trkpt>
      <trkpt lat="50.66935" lon="1.85236">
        <ele>115</ele>
        <time>2017-03-23T07:23:24Z</time>
      </trkpt>
      <trkpt lat="50.66921" lon="1.85195">
        <ele>114</ele>
        <time>2017-03-23T07:25:24Z</time>
      </trkpt>
      <trkpt lat="50.66863" lon="1.85051">
        <ele>112</ele>
        <time>2017-03-23T07:27:24Z</time>
      </trkpt>
      <trkpt lat="50.66845" lon="1.85004">
        <ele>111</ele>
        <time>2017-03-23T07:29:24Z</time>
      </trkpt>
      <trkpt lat="50.66837" lon="1.84977">
        <ele>111</ele>
        <time>2017-03-23T07:31:24Z</time>
      </trkpt>
      <trkpt lat="50.66833" lon="1.8495">
        <ele>111</ele>
        <time>2017-03-23T07:33:24Z</time>
      </trkpt>
      <trkpt lat="50.66833" lon="1.84937">
        <ele>111</ele>
        <time>2017-03-23T07:35:24Z</time>
      </trkpt>
      <trkpt lat="50.66835" lon="1.84895">
        <ele>111</ele>
        <time>2017-03-23T07:37:24Z</time>
      </trkpt>
      <trkpt lat="50.66818" lon="1.84872">
        <ele>112</ele>
        <time>2017-03-23T07:39:24Z</time>
      </trkpt>
      <trkpt lat="50.6673" lon="1.84729">
        <ele>113</ele>
        <time>2017-03-23T07:41:24Z</time>
      </trkpt>
      <trkpt lat="50.66668" lon="1.84626">
        <ele>117</ele>
        <time>2017-03-23T07:43:24Z</time>
      </trkpt>
      <trkpt lat="50.66656" lon="1.84609">
        <ele>117</ele>
        <time>2017-03-23T07:45:24Z</time>
      </trkpt>
      <trkpt lat="50.66649" lon="1.84602">
        <ele>116</ele>
        <time>2017-03-23T07:47:24Z</time>
      </trkpt>
      <trkpt lat="50.66641" lon="1.84596">
        <ele>116</ele>
        <time>2017-03-23T07:49:24Z</time>
      </trkpt>
      <trkpt lat="50.66622" lon="1.8466">
        <ele>118</ele>
        <time>2017-03-23T07:51:24Z</time>
      </trkpt>
      <trkpt lat="50.66615" lon="1.84679">
        <ele>119</ele>
        <time>2017-03-23T07:53:24Z</time>
      </trkpt>
      <trkpt lat="50.66608" lon="1.84693">
        <ele>119</ele>
        <time>2017-03-23T07:55:24Z</time>
      </trkpt>
      <trkpt lat="50.66585" lon="1.84722">
        <ele>120</ele>
        <time>2017-03-23T07:57:24Z</time>
      </trkpt>
      <trkpt lat="50.66531" lon="1.84781">
        <ele>123</ele>
        <time>2017-03-23T07:59:24Z</time>
      </trkpt>
      <trkpt lat="50.66508" lon="1.848">
        <ele>124</ele>
        <time>2017-03-23T08:01:24Z</time>
      </trkpt>
      <trkpt lat="50.66502" lon="1.84801">
        <ele>125</ele>
        <time>2017-03-23T08:03:24Z</time>
      </trkpt>
      <trkpt lat="50.66493" lon="1.848">
        <ele>124</ele>
        <time>2017-03-23T08:05:24Z</time>
      </trkpt>
      <trkpt lat="50.66485" lon="1.84795">
        <ele>124</ele>
        <time>2017-03-23T08:07:24Z</time>
      </trkpt>
      <trkpt lat="50.66476" lon="1.84786">
        <ele>123</ele>
        <time>2017-03-23T08:09:24Z</time>
      </trkpt>
      <trkpt lat="50.66455" lon="1.84756">
        <ele>121</ele>
        <time>2017-03-23T08:11:24Z</time>
      </trkpt>
      <trkpt lat="50.66411" lon="1.84688">
        <ele>120</ele>
        <time>2017-03-23T08:13:24Z</time>
      </trkpt>
      <trkpt lat="50.66346" lon="1.84591">
        <ele>120</ele>
        <time>2017-03-23T08:15:24Z</time>
      </trkpt>
      <trkpt lat="50.66297" lon="1.84515">
        <ele>123</ele>
        <time>2017-03-23T08:17:24Z</time>
      </trkpt>
      <trkpt lat="50.66264" lon="1.84472">
        <ele>123</ele>
        <time>2017-03-23T08:19:24Z</time>
      </trkpt>
      <trkpt lat="50.6624" lon="1.84448">
        <ele>122</ele>
        <time>2017-03-23T08:21:24Z</time>
      </trkpt>
      <trkpt lat="50.66212" lon="1.84428">
        <ele>122</ele>
        <time>2017-03-23T08:23:24Z</time>
      </trkpt>
      <trkpt lat="50.66175" lon="1.84404">
        <ele>123</ele>
        <time>2017-03-23T08:25:24Z</time>
      </trkpt>
      <trkpt lat="50.66119" lon="1.84369">
        <ele>128</ele>
        <time>2017-03-23T08:27:24Z</time>
      </trkpt>
      <trkpt lat="50.66069" lon="1.84339">
        <ele>133</ele>
        <time>2017-03-23T08:29:24Z</time>
      </trkpt>
      <trkpt lat="50.66057" lon="1.8432">
        <ele>133</ele>
        <time>2017-03-23T08:31:24Z</time>
      </trkpt>
      <trkpt lat="50.66034" lon="1.8429">
        <ele>133</ele>
        <time>2017-03-23T08:33:24Z</time>
      </trkpt>
      <trkpt lat="50.65999" lon="1.84251">
        <ele>132</ele>
        <time>2017-03-23T08:35:24Z</time>
      </trkpt>
      <trkpt lat="50.65948" lon="1.84202">
        <ele>130</ele>
        <time>2017-03-23T08:37:24Z</time>
      </trkpt>
      <trkpt lat="50.65893" lon="1.84139">
        <ele>126</ele>
        <time>2017-03-23T08:39:24Z</time>
      </trkpt>
      <trkpt lat="50.65856" lon="1.84094">
        <ele>124</ele>
        <time>2017-03-23T08:41:24Z</time>
      </trkpt>
      <trkpt lat="50.65778" lon="1.84003">
        <ele>121</ele>
        <time>2017-03-23T08:43:24Z</time>
      </trkpt>
      <trkpt lat="50.65767" lon="1.83984">
        <ele>121</ele>
        <time>2017-03-23T08:45:24Z</time>
      </trkpt>
      <trkpt lat="50.65756" lon="1.83962">
        <ele>120</ele>
        <time>2017-03-23T08:47:24Z</time>
      </trkpt>
      <trkpt lat="50.65743" lon="1.83912">
        <ele>119</ele>
        <time>2017-03-23T08:49:24Z</time>
      </trkpt>
      <trkpt lat="50.65733" lon="1.8388">
        <ele>119</ele>
        <time>2017-03-23T08:51:24Z</time>
      </trkpt>
      <trkpt lat="50.65717" lon="1.83844">
        <ele>119</ele>
        <time>2017-03-23T08:53:24Z</time>
      </trkpt>
      <trkpt lat="50.65711" lon="1.83829">
        <ele>119</ele>
        <time>2017-03-23T08:55:24Z</time>
      </trkpt>
      <trkpt lat="50.65709" lon="1.83823">
        <ele>119</ele>
        <time>2017-03-23T08:57:24Z</time>
      </trkpt>
      <trkpt lat="50.65713" lon="1.83811">
        <ele>118</ele>
        <time>2017-03-23T08:59:24Z</time>
      </trkpt>
      <trkpt lat="50.65716" lon="1.83801">
        <ele>118</ele>
        <time>2017-03-23T09:01:24Z</time>
      </trkpt>
      <trkpt lat="50.65738" lon="1.83749">
        <ele>115</ele>
        <time>2017-03-23T09:03:24Z</time>
      </trkpt>
      <trkpt lat="50.65766" lon="1.83691">
        <ele>111</ele>
        <time>2017-03-23T09:05:24Z</time>
      </trkpt>
      <trkpt lat="50.65782" lon="1.83661">
        <ele>109</ele>
        <time>2017-03-23T09:07:24Z</time>
      </trkpt>
      <trkpt lat="50.65797" lon="1.83643">
        <ele>109</ele>
        <time>2017-03-23T09:09:24Z</time>
      </trkpt>
      <trkpt lat="50.65812" lon="1.83631">
        <ele>108</ele>
        <time>2017-03-23T09:11:24Z</time>
      </trkpt>
      <trkpt lat="50.6582" lon="1.83627">
        <ele>108</ele>
        <time>2017-03-23T09:13:24Z</time>
      </trkpt>
      <trkpt lat="50.65869" lon="1.83606">
        <ele>107</ele>
        <time>2017-03-23T09:15:24Z</time>
      </trkpt>
      <trkpt lat="50.65944" lon="1.83573">
        <ele>107</ele>
        <time>2017-03-23T09:17:24Z</time>
      </trkpt>
      <trkpt lat="50.6597" lon="1.83559">
        <ele>107</ele>
        <time>2017-03-23T09:19:24Z</time>
      </trkpt>
      <trkpt lat="50.65995" lon="1.83541">
        <ele>107</ele>
        <time>2017-03-23T09:21:24Z</time>
      </trkpt>
      <trkpt lat="50.66049" lon="1.83499">
        <ele>108</ele>
        <time>2017-03-23T09:23:24Z</time>
      </trkpt>
      <trkpt lat="50.66084" lon="1.83476">
        <ele>107</ele>
        <time>2017-03-23T09:25:24Z</time>
      </trkpt>
      <trkpt lat="50.66106" lon="1.83466">
        <ele>108</ele>
        <time>2017-03-23T09:27:24Z</time>
      </trkpt>
      <trkpt lat="50.6622" lon="1.83423">
        <ele>109</ele>
        <time>2017-03-23T09:29:24Z</time>
      </trkpt>
      <trkpt lat="50.66277" lon="1.83402">
        <ele>107</ele>
        <time>2017-03-23T09:31:24Z</time>
      </trkpt>
      <trkpt lat="50.66296" lon="1.83397">
        <ele>107</ele>
        <time>2017-03-23T09:33:24Z</time>
      </trkpt>
      <trkpt lat="50.66301" lon="1.83392">
        <ele>107</ele>
        <time>2017-03-23T09:35:24Z</time>
      </trkpt>
      <trkpt lat="50.66309" lon="1.83376">
        <ele>106</ele>
        <time>2017-03-23T09:37:24Z</time>
      </trkpt>
      <trkpt lat="50.66349" lon="1.83303">
        <ele>104</ele>
        <time>2017-03-23T09:39:24Z</time>
      </trkpt>
      <trkpt lat="50.66394" lon="1.83207">
        <ele>102</ele>
        <time>2017-03-23T09:41:24Z</time>
      </trkpt>
      <trkpt lat="50.66408" lon="1.83181">
        <ele>101</ele>
        <time>2017-03-23T09:43:24Z</time>
      </trkpt>
      <trkpt lat="50.66427" lon="1.8313">
        <ele>101</ele>
        <time>2017-03-23T09:45:24Z</time>
      </trkpt>
      <trkpt lat="50.66462" lon="1.83062">
        <ele>99</ele>
        <time>2017-03-23T09:47:24Z</time>
      </trkpt>
      <trkpt lat="50.66564" lon="1.8286">
        <ele>97</ele>
        <time>2017-03-23T09:49:24Z</time>
      </trkpt>
      <trkpt lat="50.6661" lon="1.82762">
        <ele>95</ele>
        <time>2017-03-23T09:51:24Z</time>
      </trkpt>
      <trkpt lat="50.66565" lon="1.82726">
        <ele>95</ele>
        <time>2017-03-23T09:53:24Z</time>
      </trkpt>
      <trkpt lat="50.66533" lon="1.82698">
        <ele>94</ele>
        <time>2017-03-23T09:55:24Z</time>
      </trkpt>
      <trkpt lat="50.66509" lon="1.82661">
        <ele>93</ele>
        <time>2017-03-23T09:57:24Z</time>
      </trkpt>
      <trkpt lat="50.66474" lon="1.826">
        <ele>94</ele>
        <time>2017-03-23T09:59:24Z</time>
      </trkpt>
      <trkpt lat="50.66449" lon="1.8255">
        <ele>94</ele>
        <time>2017-03-23T10:01:24Z</time>
      </trkpt>
      <trkpt lat="50.66432" lon="1.8251">
        <ele>94</ele>
        <time>2017-03-23T10:03:24Z</time>
      </trkpt>
      <trkpt lat="50.66416" lon="1.82465">
        <ele>94</ele>
        <time>2017-03-23T10:05:24Z</time>
      </trkpt>
      <trkpt lat="50.66408" lon="1.8245">
        <ele>94</ele>
        <time>2017-03-23T10:07:24Z</time>
      </trkpt>
      <trkpt lat="50.6639" lon="1.82427">
        <ele>95</ele>
        <time>2017-03-23T10:09:24Z</time>
      </trkpt>
      <trkpt lat="50.66359" lon="1.82394">
        <ele>95</ele>
        <time>2017-03-23T10:11:24Z</time>
      </trkpt>
      <trkpt lat="50.66315" lon="1.82352">
        <ele>95</ele>
        <time>2017-03-23T10:13:24Z</time>
      </trkpt>
      <trkpt lat="50.66297" lon="1.82334">
        <ele>95</ele>
        <time>2017-03-23T10:15:24Z</time>
      </trkpt>
      <trkpt lat="50.66285" lon="1.82317">
        <ele>94</ele>
        <time>2017-03-23T10:17:24Z</time>
      </trkpt>
      <trkpt lat="50.66271" lon="1.82285">
        <ele>94</ele>
        <time>2017-03-23T10:19:24Z</time>
      </trkpt>
      <trkpt lat="50.66254" lon="1.82231">
        <ele>94</ele>
        <time>2017-03-23T10:21:24Z</time>
      </trkpt>
      <trkpt lat="50.66207" lon="1.82066">
        <ele>94</ele>
        <time>2017-03-23T10:23:24Z</time>
      </trkpt>
      <trkpt lat="50.66193" lon="1.82019">
        <ele>94</ele>
        <time>2017-03-23T10:25:24Z</time>
      </trkpt>
      <trkpt lat="50.66177" lon="1.81983">
        <ele>94</ele>
        <time>2017-03-23T10:27:24Z</time>
      </trkpt>
      <trkpt lat="50.66166" lon="1.81964">
        <ele>94</ele>
        <time>2017-03-23T10:29:24Z</time>
      </trkpt>
      <trkpt lat="50.6616" lon="1.81957">
        <ele>94</ele>
        <time>2017-03-23T10:31:24Z</time>
      </trkpt>
      <trkpt lat="50.66129" lon="1.8194">
        <ele>93</ele>
        <time>2017-03-23T10:33:24Z</time>
      </trkpt>
      <trkpt lat="50.66093" lon="1.81923">
        <ele>92</ele>
        <time>2017-03-23T10:35:24Z</time>
      </trkpt>
      <trkpt lat="50.6607" lon="1.81915">
        <ele>91</ele>
        <time>2017-03-23T10:37:24Z</time>
      </trkpt>
      <trkpt lat="50.65975" lon="1.81896">
        <ele>85</ele>
        <time>2017-03-23T10:39:24Z</time>
      </trkpt>
      <trkpt lat="50.65961" lon="1.81891">
        <ele>84</ele>
        <time>2017-03-23T10:41:24Z</time>
      </trkpt>
      <trkpt lat="50.65935" lon="1.81873">
        <ele>82</ele>
        <time>2017-03-23T10:43:24Z</time>
      </trkpt>
      <trkpt lat="50.65894" lon="1.81835">
        <ele>80</ele>
        <time>2017-03-23T10:45:24Z</time>
      </trkpt>
      <trkpt lat="50.65856" lon="1.81799">
        <ele>80</ele>
        <time>2017-03-23T10:47:24Z</time>
      </trkpt>
      <trkpt lat="50.65832" lon="1.81773">
        <ele>80</ele>
        <time>2017-03-23T10:49:24Z</time>
      </trkpt>
      <trkpt lat="50.65795" lon="1.81724">
        <ele>82</ele>
        <time>2017-03-23T10:51:24Z</time>
      </trkpt>
      <trkpt lat="50.65734" lon="1.81638">
        <ele>86</ele>
        <time>2017-03-23T10:53:24Z</time>
      </trkpt>
      <trkpt lat="50.65706" lon="1.81601">
        <ele>88</ele>
        <time>2017-03-23T10:55:24Z</time>
      </trkpt>
      <trkpt lat="50.65668" lon="1.81562">
        <ele>90</ele>
        <time>2017-03-23T10:57:24Z</time>
      </trkpt>
      <trkpt lat="50.65622" lon="1.81517">
        <ele>91</ele>
        <time>2017-03-23T10:59:24Z</time>
      </trkpt>
      <trkpt lat="50.656" lon="1.81489">
        <ele>92</ele>
        <time>2017-03-23T11:01:24Z</time>
      </trkpt>
      <trkpt lat="50.65504" lon="1.81301">
        <ele>91</ele>
        <time>2017-03-23T11:03:24Z</time>
      </trkpt>
      <trkpt lat="50.6547" lon="1.81245">
        <ele>91</ele>
        <time>2017-03-23T11:05:24Z</time>
      </trkpt>
      <trkpt lat="50.65437" lon="1.8119">
        <ele>90</ele>
        <time>2017-03-23T11:07:24Z</time>
      </trkpt>
      <trkpt lat="50.65407" lon="1.81137">
        <ele>89</ele>
        <time>2017-03-23T11:09:24Z</time>
      </trkpt>
      <trkpt lat="50.65395" lon="1.811">
        <ele>89</ele>
        <time>2017-03-23T11:11:24Z</time>
      </trkpt>
      <trkpt lat="50.65388" lon="1.81069">
        <ele>89</ele>
        <time>2017-03-23T11:13:24Z</time>
      </trkpt>
      <trkpt lat="50.65379" lon="1.81012">
        <ele>88</ele>
        <time>2017-03-23T11:15:24Z</time>
      </trkpt>
      <trkpt lat="50.65367" lon="1.80962">
        <ele>88</ele>
        <time>2017-03-23T11:17:24Z</time>
      </trkpt>
      <trkpt lat="50.65336" lon="1.80878">
        <ele>89</ele>
        <time>2017-03-23T11:19:24Z</time>
      </trkpt>
      <trkpt lat="50.65318" lon="1.80819">
        <ele>89</ele>
        <time>2017-03-23T11:21:24Z</time>
      </trkpt>
      <trkpt lat="50.65274" lon="1.8065">
        <ele>88</ele>
        <time>2017-03-23T11:23:24Z</time>
      </trkpt>
      <trkpt lat="50.6526" lon="1.8061">
        <ele>89</ele>
        <time>2017-03-23T11:25:24Z</time>
      </trkpt>
      <trkpt lat="50.65234" lon="1.80553">
        <ele>90</ele>
        <time>2017-03-23T11:27:24Z</time>
      </trkpt>
      <trkpt lat="50.65228" lon="1.80532">
        <ele>90</ele>
        <time>2017-03-23T11:29:24Z</time>
      </trkpt>
      <trkpt lat="50.65226" lon="1.80509">
        <ele>90</ele>
        <time>2017-03-23T11:31:24Z</time>
      </trkpt>
      <trkpt lat="50.65221" lon="1.80377">
        <ele>86</ele>
        <time>2017-03-23T11:33:24Z</time>
      </trkpt>
      <trkpt lat="50.65222" lon="1.80343">
        <ele>85</ele>
        <time>2017-03-23T11:35:24Z</time>
      </trkpt>
      <trkpt lat="50.65225" lon="1.80311">
        <ele>84</ele>
        <time>2017-03-23T11:37:24Z</time>
      </trkpt>
      <trkpt lat="50.65228" lon="1.8029">
        <ele>83</ele>
        <time>2017-03-23T11:39:24Z</time>
      </trkpt>
      <trkpt lat="50.65238" lon="1.80251">
        <ele>82</ele>
        <time>2017-03-23T11:41:24Z</time>
      </trkpt>
      <trkpt lat="50.6525" lon="1.80213">
        <ele>80</ele>
        <time>2017-03-23T11:43:24Z</time>
      </trkpt>
      <trkpt lat="50.65265" lon="1.80179">
        <ele>78</ele>
        <time>2017-03-23T11:45:24Z</time>
      </trkpt>
      <trkpt lat="50.65277" lon="1.80156">
        <ele>77</ele>
        <time>2017-03-23T11:47:24Z</time>
      </trkpt>
      <trkpt lat="50.65304" lon="1.80079">
        <ele>74</ele>
        <time>2017-03-23T11:49:24Z</time>
      </trkpt>
      <trkpt lat="50.65312" lon="1.80066">
        <ele>73</ele>
        <time>2017-03-23T11:51:24Z</time>
      </trkpt>
      <trkpt lat="50.65372" lon="1.80022">
        <ele>77</ele>
        <time>2017-03-23T11:53:24Z</time>
      </trkpt>
      <trkpt lat="50.65415" lon="1.79991">
        <ele>82</ele>
        <time>2017-03-23T11:55:24Z</time>
      </trkpt>
      <trkpt lat="50.65447" lon="1.79971">
        <ele>83</ele>
        <time>2017-03-23T11:57:24Z</time>
      </trkpt>
      <trkpt lat="50.65515" lon="1.79925">
        <ele>85</ele>
        <time>2017-03-23T11:59:24Z</time>
      </trkpt>
      <trkpt lat="50.65533" lon="1.79921">
        <ele>85</ele>
        <time>2017-03-23T12:01:24Z</time>
      </trkpt>
      <trkpt lat="50.65562" lon="1.79924">
        <ele>86</ele>
        <time>2017-03-23T12:03:24Z</time>
      </trkpt>
      <trkpt lat="50.65578" lon="1.79924">
        <ele>86</ele>
        <time>2017-03-23T12:05:24Z</time>
      </trkpt>
      <trkpt lat="50.656" lon="1.79915">
        <ele>86</ele>
        <time>2017-03-23T12:07:24Z</time>
      </trkpt>
      <trkpt lat="50.65644" lon="1.79891">
        <ele>84</ele>
        <time>2017-03-23T12:09:24Z</time>
      </trkpt>
      <trkpt lat="50.65682" lon="1.79869">
        <ele>83</ele>
        <time>2017-03-23T12:11:24Z</time>
      </trkpt>
      <trkpt lat="50.65712" lon="1.79849">
        <ele>81</ele>
        <time>2017-03-23T12:13:24Z</time>
      </trkpt>
      <trkpt lat="50.65745" lon="1.79831">
        <ele>80</ele>
        <time>2017-03-23T12:15:24Z</time>
      </trkpt>
      <trkpt lat="50.65759" lon="1.79828">
        <ele>79</ele>
        <time>2017-03-23T12:17:24Z</time>
      </trkpt>
      <trkpt lat="50.65781" lon="1.79828">
        <ele>78</ele>
        <time>2017-03-23T12:19:24Z</time>
      </trkpt>
      <trkpt lat="50.65794" lon="1.79832">
        <ele>78</ele>
        <time>2017-03-23T12:21:24Z</time>
      </trkpt>
      <trkpt lat="50.65814" lon="1.79848">
        <ele>77</ele>
        <time>2017-03-23T12:23:24Z</time>
      </trkpt>
      <trkpt lat="50.65843" lon="1.7988">
        <ele>76</ele>
        <time>2017-03-23T12:25:24Z</time>
      </trkpt>
      <trkpt lat="50.65851" lon="1.79882">
        <ele>76</ele>
        <time>2017-03-23T12:27:24Z</time>
      </trkpt>
      <trkpt lat="50.65892" lon="1.79881">
        <ele>76</ele>
        <time>2017-03-23T12:29:24Z</time>
      </trkpt>
      <trkpt lat="50.65975" lon="1.79874">
        <ele>75</ele>
        <time>2017-03-23T12:31:24Z</time>
      </trkpt>
      <trkpt lat="50.66004" lon="1.79875">
        <ele>74</ele>
        <time>2017-03-23T12:33:24Z</time>
      </trkpt>
      <trkpt lat="50.6602" lon="1.79876">
        <ele>73</ele>
        <time>2017-03-23T12:35:24Z</time>
      </trkpt>
      <trkpt lat="50.66042" lon="1.79874">
        <ele>72</ele>
        <time>2017-03-23T12:37:24Z</time>
      </trkpt>
      <trkpt lat="50.66075" lon="1.79859">
        <ele>70</ele>
        <time>2017-03-23T12:39:24Z</time>
      </trkpt>
      <trkpt lat="50.66098" lon="1.79851">
        <ele>69</ele>
        <time>2017-03-23T12:41:24Z</time>
      </trkpt>
      <trkpt lat="50.66114" lon="1.79842">
        <ele>68</ele>
        <time>2017-03-23T12:43:24Z</time>
      </trkpt>
      <trkpt lat="50.66133" lon="1.79829">
        <ele>66</ele>
        <time>2017-03-23T12:45:24Z</time>
      </trkpt>
      <trkpt lat="50.66157" lon="1.79809">
        <ele>64</ele>
        <time>2017-03-23T12:47:24Z</time>
      </trkpt>
      <trkpt lat="50.66198" lon="1.79771">
        <ele>62</ele>
        <time>2017-03-23T12:49:24Z</time>
      </trkpt>
      <trkpt lat="50.66238" lon="1.79732">
        <ele>59</ele>
        <time>2017-03-23T12:51:24Z</time>
      </trkpt>
      <trkpt lat="50.66283" lon="1.79684">
        <ele>57</ele>
        <time>2017-03-23T12:53:24Z</time>
      </trkpt>
      <trkpt lat="50.66304" lon="1.79666">
        <ele>55</ele>
        <time>2017-03-23T12:55:24Z</time>
      </trkpt>
      <trkpt lat="50.6635" lon="1.79628">
        <ele>54</ele>
        <time>2017-03-23T12:57:24Z</time>
      </trkpt>
      <trkpt lat="50.66365" lon="1.79613">
        <ele>55</ele>
        <time>2017-03-23T12:59:24Z</time>
      </trkpt>
      <trkpt lat="50.66401" lon="1.79573">
        <ele>57</ele>
        <time>2017-03-23T13:01:24Z</time>
      </trkpt>
      <trkpt lat="50.66419" lon="1.79556">
        <ele>57</ele>
        <time>2017-03-23T13:03:24Z</time>
      </trkpt>
      <trkpt lat="50.66445" lon="1.79543">
        <ele>59</ele>
        <time>2017-03-23T13:05:24Z</time>
      </trkpt>
      <trkpt lat="50.66503" lon="1.79531">
        <ele>61</ele>
        <time>2017-03-23T13:07:24Z</time>
      </trkpt>
      <trkpt lat="50.66515" lon="1.79528">
        <ele>62</ele>
        <time>2017-03-23T13:09:24Z</time>
      </trkpt>
      <trkpt lat="50.666" lon="1.79497">
        <ele>65</ele>
        <time>2017-03-23T13:11:24Z</time>
      </trkpt>
      <trkpt lat="50.66671" lon="1.79475">
        <ele>70</ele>
        <time>2017-03-23T13:13:24Z</time>
      </trkpt>
      <trkpt lat="50.66697" lon="1.79473">
        <ele>72</ele>
        <time>2017-03-23T13:15:24Z</time>
      </trkpt>
      <trkpt lat="50.66723" lon="1.79472">
        <ele>73</ele>
        <time>2017-03-23T13:17:24Z</time>
      </trkpt>
      <trkpt lat="50.66768" lon="1.79467">
        <ele>75</ele>
        <time>2017-03-23T13:19:24Z</time>
      </trkpt>
      <trkpt lat="50.66846" lon="1.79473">
        <ele>77</ele>
        <time>2017-03-23T13:21:24Z</time>
      </trkpt>
      <trkpt lat="50.66853" lon="1.7947">
        <ele>77</ele>
        <time>2017-03-23T13:23:24Z</time>
      </trkpt>
      <trkpt lat="50.66858" lon="1.79463">
        <ele>77</ele>
        <time>2017-03-23T13:25:24Z</time>
      </trkpt>
      <trkpt lat="50.66881" lon="1.79406">
        <ele>76</ele>
        <time>2017-03-23T13:27:24Z</time>
      </trkpt>
      <trkpt lat="50.6689" lon="1.79392">
        <ele>76</ele>
        <time>2017-03-23T13:29:24Z</time>
      </trkpt>
      <trkpt lat="50.6691" lon="1.79372">
        <ele>76</ele>
        <time>2017-03-23T13:31:24Z</time>
      </trkpt>
      <trkpt lat="50.67" lon="1.79299">
        <ele>71</ele>
        <time>2017-03-23T13:33:24Z</time>
      </trkpt>
      <trkpt lat="50.67021" lon="1.79285">
        <ele>71</ele>
        <time>2017-03-23T13:35:24Z</time>
      </trkpt>
      <trkpt lat="50.67034" lon="1.79279">
        <ele>70</ele>
        <time>2017-03-23T13:37:24Z</time>
      </trkpt>
      <trkpt lat="50.67068" lon="1.79276">
        <ele>68</ele>
        <time>2017-03-23T13:39:24Z</time>
      </trkpt>
      <trkpt lat="50.67088" lon="1.79272">
        <ele>68</ele>
        <time>2017-03-23T13:41:24Z</time>
      </trkpt>
      <trkpt lat="50.67116" lon="1.7926">
        <ele>67</ele>
        <time>2017-03-23T13:43:24Z</time>
      </trkpt>
      <trkpt lat="50.67153" lon="1.79234">
        <ele>66</ele>
        <time>2017-03-23T13:45:24Z</time>
      </trkpt>
      <trkpt lat="50.67175" lon="1.7921">
        <ele>65</ele>
        <time>2017-03-23T13:47:24Z</time>
      </trkpt>
      <trkpt lat="50.67193" lon="1.7918">
        <ele>65</ele>
        <time>2017-03-23T13:49:24Z</time>
      </trkpt>
      <trkpt lat="50.67204" lon="1.79168">
        <ele>65</ele>
        <time>2017-03-23T13:51:24Z</time>
      </trkpt>
      <trkpt lat="50.67292" lon="1.79092">
        <ele>62</ele>
        <time>2017-03-23T13:53:24Z</time>
      </trkpt>
      <trkpt lat="50.67373" lon="1.78998">
        <ele>61</ele>
        <time>2017-03-23T13:55:24Z</time>
      </trkpt>
      <trkpt lat="50.67383" lon="1.78986">
        <ele>61</ele>
        <time>2017-03-23T13:57:24Z</time>
      </trkpt>
      <trkpt lat="50.67392" lon="1.78964">
        <ele>61</ele>
        <time>2017-03-23T13:59:24Z</time>
      </trkpt>
      <trkpt lat="50.67415" lon="1.78894">
        <ele>59</ele>
        <time>2017-03-23T14:01:24Z</time>
      </trkpt>
      <trkpt lat="50.6743" lon="1.78862">
        <ele>59</ele>
        <time>2017-03-23T14:03:24Z</time>
      </trkpt>
      <trkpt lat="50.67448" lon="1.78838">
        <ele>60</ele>
        <time>2017-03-23T14:05:24Z</time>
      </trkpt>
      <trkpt lat="50.67482" lon="1.78806">
        <ele>60</ele>
        <time>2017-03-23T14:07:24Z</time>
      </trkpt>
      <trkpt lat="50.67494" lon="1.78791">
        <ele>60</ele>
        <time>2017-03-23T14:09:24Z</time>
      </trkpt>
      <trkpt lat="50.67505" lon="1.78774">
        <ele>60</ele>
        <time>2017-03-23T14:11:24Z</time>
      </trkpt>
      <trkpt lat="50.67518" lon="1.78749">
        <ele>59</ele>
        <time>2017-03-23T14:13:24Z</time>
      </trkpt>
      <trkpt lat="50.67548" lon="1.78704">
        <ele>57</ele>
        <time>2017-03-23T14:15:24Z</time>
      </trkpt>
      <trkpt lat="50.67569" lon="1.78676">
        <ele>56</ele>
        <time>2017-03-23T14:17:24Z</time>
      </trkpt>
      <trkpt lat="50.67582" lon="1.78662">
        <ele>56</ele>
        <time>2017-03-23T14:19:24Z</time>
      </trkpt>
      <trkpt lat="50.67616" lon="1.78638">
        <ele>55</ele>
        <time>2017-03-23T14:21:24Z</time>
      </trkpt>
      <trkpt lat="50.67695" lon="1.78594">
        <ele>54</ele>
        <time>2017-03-23T14:23:24Z</time>
      </trkpt>
      <trkpt lat="50.67711" lon="1.78591">
        <ele>54</ele>
        <time>2017-03-23T14:25:24Z</time>
      </trkpt>
      <trkpt lat="50.67733" lon="1.78592">
        <ele>53</ele>
        <time>2017-03-23T14:27:24Z</time>
      </trkpt>
      <trkpt lat="50.67748" lon="1.78597">
        <ele>53</ele>
        <time>2017-03-23T14:29:24Z</time>
      </trkpt>
      <trkpt lat="50.67764" lon="1.7861">
        <ele>53</ele>
        <time>2017-03-23T14:31:24Z</time>
      </trkpt>
      <trkpt lat="50.67787" lon="1.78636">
        <ele>54</ele>
        <time>2017-03-23T14:33:24Z</time>
      </trkpt>
      <trkpt lat="50.67796" lon="1.7864">
        <ele>54</ele>
        <time>2017-03-23T14:35:24Z</time>
      </trkpt>
      <trkpt lat="50.67819" lon="1.78639">
        <ele>54</ele>
        <time>2017-03-23T14:37:24Z</time>
      </trkpt>
      <trkpt lat="50.67824" lon="1.78638">
        <ele>53</ele>
        <time>2017-03-23T14:39:24Z</time>
      </trkpt>
      <trkpt lat="50.67867" lon="1.78625">
        <ele>54</ele>
        <time>2017-03-23T14:41:24Z</time>
      </trkpt>
      <trkpt lat="50.67903" lon="1.78609">
        <ele>55</ele>
        <time>2017-03-23T14:43:24Z</time>
      </trkpt>
      <trkpt lat="50.67944" lon="1.78586">
        <ele>56</ele>
        <time>2017-03-23T14:45:24Z</time>
      </trkpt>
      <trkpt lat="50.67988" lon="1.78115">
        <ele>52</ele>
        <time>2017-03-23T14:47:24Z</time>
      </trkpt>
      <trkpt lat="50.68008" lon="1.77896">
        <ele>51</ele>
        <time>2017-03-23T14:49:24Z</time>
      </trkpt>
      <trkpt lat="50.68027" lon="1.77691">
        <ele>48</ele>
        <time>2017-03-23T14:51:24Z</time>
      </trkpt>
      <trkpt lat="50.68042" lon="1.77709">
        <ele>49</ele>
        <time>2017-03-23T14:53:24Z</time>
      </trkpt>
      <trkpt lat="50.68051" lon="1.77722">
        <ele>49</ele>
        <time>2017-03-23T14:55:24Z</time>
      </trkpt>
      <trkpt lat="50.68199" lon="1.77929">
        <ele>55</ele>
        <time>2017-03-23T14:57:24Z</time>
      </trkpt>
      <trkpt lat="50.68242" lon="1.7798">
        <ele>56</ele>
        <time>2017-03-23T14:59:24Z</time>
      </trkpt>
      <trkpt lat="50.68298" lon="1.78035">
        <ele>56</ele>
        <time>2017-03-23T15:01:24Z</time>
      </trkpt>
      <trkpt lat="50.68315" lon="1.78044">
        <ele>55</ele>
        <time>2017-03-23T15:03:24Z</time>
      </trkpt>
      <trkpt lat="50.68328" lon="1.78045">
        <ele>55</ele>
        <time>2017-03-23T15:05:24Z</time>
      </trkpt>
      <trkpt lat="50.68344" lon="1.78039">
        <ele>54</ele>
        <time>2017-03-23T15:07:24Z</time>
      </trkpt>
      <trkpt lat="50.68357" lon="1.78029">
        <ele>54</ele>
        <time>2017-03-23T15:09:24Z</time>
      </trkpt>
      <trkpt lat="50.6847" lon="1.77909">
        <ele>46</ele>
        <time>2017-03-23T15:11:24Z</time>
      </trkpt>
      <trkpt lat="50.68484" lon="1.77896">
        <ele>45</ele>
        <time>2017-03-23T15:13:24Z</time>
      </trkpt>
      <trkpt lat="50.68497" lon="1.77888">
        <ele>44</ele>
        <time>2017-03-23T15:15:24Z</time>
      </trkpt>
      <trkpt lat="50.6851" lon="1.77888">
        <ele>43</ele>
        <time>2017-03-23T15:17:24Z</time>
      </trkpt>
      <trkpt lat="50.68524" lon="1.77895">
        <ele>43</ele>
        <time>2017-03-23T15:19:24Z</time>
      </trkpt>
      <trkpt lat="50.68538" lon="1.77905">
        <ele>42</ele>
        <time>2017-03-23T15:21:24Z</time>
      </trkpt>
      <trkpt lat="50.6856" lon="1.77929">
        <ele>42</ele>
        <time>2017-03-23T15:23:24Z</time>
      </trkpt>
      <trkpt lat="50.68574" lon="1.7795">
        <ele>42</ele>
        <time>2017-03-23T15:25:24Z</time>
      </trkpt>
      <trkpt lat="50.68581" lon="1.77968">
        <ele>42</ele>
        <time>2017-03-23T15:27:24Z</time>
      </trkpt>
      <trkpt lat="50.6861" lon="1.78054">
        <ele>42</ele>
        <time>2017-03-23T15:29:24Z</time>
      </trkpt>
      <trkpt lat="50.68627" lon="1.78086">
        <ele>41</ele>
        <time>2017-03-23T15:31:24Z</time>
      </trkpt>
      <trkpt lat="50.68731" lon="1.7826">
        <ele>37</ele>
        <time>2017-03-23T15:33:24Z</time>
      </trkpt>
      <trkpt lat="50.68763" lon="1.7833">
        <ele>36</ele>
        <time>2017-03-23T15:35:24Z</time>
      </trkpt>
      <trkpt lat="50.68776" lon="1.7836">
        <ele>35</ele>
        <time>2017-03-23T15:37:24Z</time>
      </trkpt>
      <trkpt lat="50.6878" lon="1.7836">
        <ele>35</ele>
        <time>2017-03-23T15:39:24Z</time>
      </trkpt>
      <trkpt lat="50.68786" lon="1.78363">
        <ele>35</ele>
        <time>2017-03-23T15:41:24Z</time>
      </trkpt>
      <trkpt lat="50.68812" lon="1.78374">
        <ele>35</ele>
        <time>2017-03-23T15:43:24Z</time>
      </trkpt>
      <trkpt lat="50.68886" lon="1.78379">
        <ele>32</ele>
        <time>2017-03-23T15:45:24Z</time>
      </trkpt>
      <trkpt lat="50.68949" lon="1.78379">
        <ele>31</ele>
        <time>2017-03-23T15:47:24Z</time>
      </trkpt>
      <trkpt lat="50.68972" lon="1.78384">
        <ele>30</ele>
        <time>2017-03-23T15:49:24Z</time>
      </trkpt>
      <trkpt lat="50.68987" lon="1.78394">
        <ele>30</ele>
        <time>2017-03-23T15:51:24Z</time>
      </trkpt>
      <trkpt lat="50.69044" lon="1.78446">
        <ele>30</ele>
        <time>2017-03-23T15:53:24Z</time>
      </trkpt>
      <trkpt lat="50.69091" lon="1.7849">
        <ele>31</ele>
        <time>2017-03-23T15:55:24Z</time>
      </trkpt>
      <trkpt lat="50.69158" lon="1.78556">
        <ele>32</ele>
        <time>2017-03-23T15:57:24Z</time>
      </trkpt>
      <trkpt lat="50.6917" lon="1.78574">
        <ele>33</ele>
        <time>2017-03-23T15:59:24Z</time>
      </trkpt>
      <trkpt lat="50.69187" lon="1.78611">
        <ele>33</ele>
        <time>2017-03-23T16:01:24Z</time>
      </trkpt>
      <trkpt lat="50.69204" lon="1.78641">
        <ele>34</ele>
        <time>2017-03-23T16:03:24Z</time>
      </trkpt>
      <trkpt lat="50.69215" lon="1.78642">
        <ele>34</ele>
        <time>2017-03-23T16:05:24Z</time>
      </trkpt>
      <trkpt lat="50.69237" lon="1.78648">
        <ele>34</ele>
        <time>2017-03-23T16:07:24Z</time>
      </trkpt>
      <trkpt lat="50.69265" lon="1.78666">
        <ele>35</ele>
        <time>2017-03-23T16:09:24Z</time>
      </trkpt>
      <trkpt lat="50.69296" lon="1.78688">
        <ele>35</ele>
        <time>2017-03-23T16:11:24Z</time>
      </trkpt>
      <trkpt lat="50.69314" lon="1.78702">
        <ele>35</ele>
        <time>2017-03-23T16:13:24Z</time>
      </trkpt>
      <trkpt lat="50.69352" lon="1.78726">
        <ele>35</ele>
        <time>2017-03-23T16:15:24Z</time>
      </trkpt>
      <trkpt lat="50.69389" lon="1.78744">
        <ele>35</ele>
        <time>2017-03-23T16:17:24Z</time>
      </trkpt>
      <trkpt lat="50.6944" lon="1.78765">
        <ele>35</ele>
        <time>2017-03-23T16:19:24Z</time>
      </trkpt>
      <trkpt lat="50.69497" lon="1.78792">
        <ele>35</ele>
        <time>2017-03-23T16:21:24Z</time>
      </trkpt>
      <trkpt lat="50.69534" lon="1.7881">
        <ele>34</ele>
        <time>2017-03-23T16:23:24Z</time>
      </trkpt>
      <trkpt lat="50.69549" lon="1.78818">
        <ele>34</ele>
        <time>2017-03-23T16:25:24Z</time>
      </trkpt>
      <trkpt lat="50.69631" lon="1.78854">
        <ele>33</ele>
        <time>2017-03-23T16:27:24Z</time>
      </trkpt>
      <trkpt lat="50.69683" lon="1.78818">
        <ele>32</ele>
        <time>2017-03-23T16:29:24Z</time>
      </trkpt>
      <trkpt lat="50.69779" lon="1.78759">
        <ele>31</ele>
        <time>2017-03-23T16:31:24Z</time>
      </trkpt>
      <trkpt lat="50.69798" lon="1.78744">
        <ele>32</ele>
        <time>2017-03-23T16:33:24Z</time>
      </trkpt>
      <trkpt lat="50.69815" lon="1.78726">
        <ele>32</ele>
        <time>2017-03-23T16:35:24Z</time>
      </trkpt>
      <trkpt lat="50.69872" lon="1.7865">
        <ele>33</ele>
        <time>2017-03-23T16:37:24Z</time>
      </trkpt>
      <trkpt lat="50.69895" lon="1.78622">
        <ele>34</ele>
        <time>2017-03-23T16:39:24Z</time>
      </trkpt>
      <trkpt lat="50.69902" lon="1.7861">
        <ele>34</ele>
        <time>2017-03-23T16:41:24Z</time>
      </trkpt>
      <trkpt lat="50.69907" lon="1.78592">
        <ele>34</ele>
        <time>2017-03-23T16:43:24Z</time>
      </trkpt>
      <trkpt lat="50.69909" lon="1.78572">
        <ele>34</ele>
        <time>2017-03-23T16:45:24Z</time>
      </trkpt>
      <trkpt lat="50.69906" lon="1.78554">
        <ele>34</ele>
        <time>2017-03-23T16:47:24Z</time>
      </trkpt>
      <trkpt lat="50.69902" lon="1.78546">
        <ele>35</ele>
        <time>2017-03-23T16:49:24Z</time>
      </trkpt>
      <trkpt lat="50.69884" lon="1.78535">
        <ele>35</ele>
        <time>2017-03-23T16:51:24Z</time>
      </trkpt>
      <trkpt lat="50.69865" lon="1.7851">
        <ele>35</ele>
        <time>2017-03-23T16:53:24Z</time>
      </trkpt>
      <trkpt lat="50.69848" lon="1.78469">
        <ele>37</ele>
        <time>2017-03-23T16:55:24Z</time>
      </trkpt>
      <trkpt lat="50.69843" lon="1.78443">
        <ele>38</ele>
        <time>2017-03-23T16:57:24Z</time>
      </trkpt>
      <trkpt lat="50.69838" lon="1.784">
        <ele>39</ele>
        <time>2017-03-23T16:59:24Z</time>
      </trkpt>
      <trkpt lat="50.69823" lon="1.78258">
        <ele>44</ele>
        <time>2017-03-23T17:01:24Z</time>
      </trkpt>
      <trkpt lat="50.69821" lon="1.78189">
        <ele>46</ele>
        <time>2017-03-23T17:03:24Z</time>
      </trkpt>
      <trkpt lat="50.69827" lon="1.78026">
        <ele>52</ele>
        <time>2017-03-23T17:05:24Z</time>
      </trkpt>
      <trkpt lat="50.69826" lon="1.78007">
        <ele>53</ele>
        <time>2017-03-23T17:07:24Z</time>
      </trkpt>
      <trkpt lat="50.69808" lon="1.77885">
        <ele>58</ele>
        <time>2017-03-23T17:09:24Z</time>
      </trkpt>
      <trkpt lat="50.69809" lon="1.77866">
        <ele>59</ele>
        <time>2017-03-23T17:11:24Z</time>
      </trkpt>
      <trkpt lat="50.69825" lon="1.77757">
        <ele>61</ele>
        <time>2017-03-23T17:13:24Z</time>
      </trkpt>
      <trkpt lat="50.69846" lon="1.77677">
        <ele>62</ele>
        <time>2017-03-23T17:15:24Z</time>
      </trkpt>
      <trkpt lat="50.69871" lon="1.77606">
        <ele>62</ele>
        <time>2017-03-23T17:17:24Z</time>
      </trkpt>
      <trkpt lat="50.69903" lon="1.77533">
        <ele>62</ele>
        <time>2017-03-23T17:19:24Z</time>
      </trkpt>
      <trkpt lat="50.69915" lon="1.77511">
        <ele>62</ele>
        <time>2017-03-23T17:21:24Z</time>
      </trkpt>
      <trkpt lat="50.69924" lon="1.775">
        <ele>62</ele>
        <time>2017-03-23T17:23:24Z</time>
      </trkpt>
      <trkpt lat="50.69959" lon="1.77463">
        <ele>62</ele>
        <time>2017-03-23T17:25:24Z</time>
      </trkpt>
      <trkpt lat="50.6999" lon="1.77425">
        <ele>62</ele>
        <time>2017-03-23T17:27:24Z</time>
      </trkpt>
      <trkpt lat="50.70011" lon="1.77392">
        <ele>62</ele>
        <time>2017-03-23T17:29:24Z</time>
      </trkpt>
      <trkpt lat="50.70025" lon="1.77356">
        <ele>63</ele>
        <time>2017-03-23T17:31:24Z</time>
      </trkpt>
      <trkpt lat="50.70031" lon="1.77317">
        <ele>64</ele>
        <time>2017-03-23T17:33:24Z</time>
      </trkpt>
      <trkpt lat="50.70032" lon="1.77276">
        <ele>65</ele>
        <time>2017-03-23T17:35:24Z</time>
      </trkpt>
      <trkpt lat="50.70029" lon="1.77228">
        <ele>66</ele>
        <time>2017-03-23T17:37:24Z</time>
      </trkpt>
      <trkpt lat="50.70033" lon="1.77206">
        <ele>66</ele>
        <time>2017-03-23T17:39:24Z</time>
      </trkpt>
      <trkpt lat="50.70044" lon="1.77189">
        <ele>66</ele>
        <time>2017-03-23T17:41:24Z</time>
      </trkpt>
      <trkpt lat="50.70095" lon="1.77143">
        <ele>66</ele>
        <time>2017-03-23T17:43:24Z</time>
      </trkpt>
      <trkpt lat="50.70111" lon="1.77127">
        <ele>67</ele>
        <time>2017-03-23T17:45:24Z</time>
      </trkpt>
      <trkpt lat="50.70119" lon="1.77115">
        <ele>68</ele>
        <time>2017-03-23T17:47:24Z</time>
      </trkpt>
      <trkpt lat="50.70138" lon="1.77074">
        <ele>70</ele>
        <time>2017-03-23T17:49:24Z</time>
      </trkpt>
      <trkpt lat="50.70189" lon="1.76962">
        <ele>75</ele>
        <time>2017-03-23T17:51:24Z</time>
      </trkpt>
      <trkpt lat="50.70208" lon="1.76928">
        <ele>77</ele>
        <time>2017-03-23T17:53:24Z</time>
      </trkpt>
      <trkpt lat="50.70224" lon="1.76908">
        <ele>78</ele>
        <time>2017-03-23T17:55:24Z</time>
      </trkpt>
      <trkpt lat="50.70282" lon="1.76849">
        <ele>81</ele>
        <time>2017-03-23T17:57:24Z</time>
      </trkpt>
      <trkpt lat="50.70309" lon="1.7682">
        <ele>83</ele>
        <time>2017-03-23T17:59:24Z</time>
      </trkpt>
      <trkpt lat="50.70425" lon="1.76661">
        <ele>86</ele>
        <time>2017-03-23T18:01:24Z</time>
      </trkpt>
      <trkpt lat="50.70444" lon="1.76628">
        <ele>85</ele>
        <time>2017-03-23T18:03:24Z</time>
      </trkpt>
      <trkpt lat="50.70464" lon="1.76584">
        <ele>84</ele>
        <time>2017-03-23T18:05:24Z</time>
      </trkpt>
      <trkpt lat="50.7047" lon="1.7657">
        <ele>84</ele>
        <time>2017-03-23T18:07:24Z</time>
      </trkpt>
      <trkpt lat="50.7051" lon="1.7649">
        <ele>83</ele>
        <time>2017-03-23T18:09:24Z</time>
      </trkpt>
      <trkpt lat="50.70529" lon="1.76458">
        <ele>82</ele>
        <time>2017-03-23T18:11:24Z</time>
      </trkpt>
      <trkpt lat="50.70591" lon="1.76364">
        <ele>81</ele>
        <time>2017-03-23T18:13:24Z</time>
      </trkpt>
      <trkpt lat="50.70623" lon="1.76314">
        <ele>80</ele>
        <time>2017-03-23T18:15:24Z</time>
      </trkpt>
      <trkpt lat="50.70629" lon="1.76295">
        <ele>80</ele>
        <time>2017-03-23T18:17:24Z</time>
      </trkpt>
      <trkpt lat="50.70633" lon="1.76276">
        <ele>80</ele>
        <time>2017-03-23T18:19:24Z</time>
      </trkpt>
      <trkpt lat="50.70641" lon="1.76188">
        <ele>81</ele>
        <time>2017-03-23T18:21:24Z</time>
      </trkpt>
      <trkpt lat="50.70651" lon="1.76134">
        <ele>82</ele>
        <time>2017-03-23T18:23:24Z</time>
      </trkpt>
      <trkpt lat="50.70653" lon="1.76126">
        <ele>82</ele>
        <time>2017-03-23T18:25:24Z</time>
      </trkpt>
      <trkpt lat="50.7067" lon="1.76094">
        <ele>83</ele>
        <time>2017-03-23T18:27:24Z</time>
      </trkpt>
      <trkpt lat="50.70694" lon="1.76053">
        <ele>84</ele>
        <time>2017-03-23T18:29:24Z</time>
      </trkpt>
      <trkpt lat="50.70708" lon="1.76026">
        <ele>86</ele>
        <time>2017-03-23T18:31:24Z</time>
      </trkpt>
      <trkpt lat="50.70738" lon="1.75953">
        <ele>91</ele>
        <time>2017-03-23T18:33:24Z</time>
      </trkpt>
      <trkpt lat="50.70761" lon="1.75922">
        <ele>94</ele>
        <time>2017-03-23T18:35:24Z</time>
      </trkpt>
      <trkpt lat="50.7079" lon="1.75891">
        <ele>97</ele>
        <time>2017-03-23T18:37:24Z</time>
      </trkpt>
      <trkpt lat="50.70791" lon="1.75889">
        <ele>97</ele>
        <time>2017-03-23T18:39:24Z</time>
      </trkpt>
      <trkpt lat="50.70804" lon="1.7587">
        <ele>98</ele>
        <time>2017-03-23T18:41:24Z</time>
      </trkpt>
      <trkpt lat="50.70816" lon="1.75846">
        <ele>100</ele>
        <time>2017-03-23T18:43:24Z</time>
      </trkpt>
      <trkpt lat="50.70827" lon="1.75808">
        <ele>101</ele>
        <time>2017-03-23T18:45:24Z</time>
      </trkpt>
      <trkpt lat="50.70837" lon="1.75763">
        <ele>102</ele>
        <time>2017-03-23T18:47:24Z</time>
      </trkpt>
      <trkpt lat="50.70844" lon="1.75744">
        <ele>102</ele>
        <time>2017-03-23T18:49:24Z</time>
      </trkpt>
      <trkpt lat="50.7085" lon="1.75734">
        <ele>102</ele>
        <time>2017-03-23T18:51:24Z</time>
      </trkpt>
      <trkpt lat="50.7086" lon="1.75725">
        <ele>102</ele>
        <time>2017-03-23T18:53:24Z</time>
      </trkpt>
      <trkpt lat="50.70879" lon="1.75715">
        <ele>101</ele>
        <time>2017-03-23T18:55:24Z</time>
      </trkpt>
      <trkpt lat="50.70895" lon="1.75709">
        <ele>101</ele>
        <time>2017-03-23T18:57:24Z</time>
      </trkpt>
      <trkpt lat="50.70906" lon="1.75702">
        <ele>101</ele>
        <time>2017-03-23T18:59:24Z</time>
      </trkpt>
      <trkpt lat="50.70925" lon="1.75679">
        <ele>101</ele>
        <time>2017-03-23T19:01:24Z</time>
      </trkpt>
      <trkpt lat="50.71023" lon="1.7552">
        <ele>97</ele>
        <time>2017-03-23T19:03:24Z</time>
      </trkpt>
      <trkpt lat="50.71048" lon="1.75476">
        <ele>97</ele>
        <time>2017-03-23T19:05:24Z</time>
      </trkpt>
      <trkpt lat="50.7106" lon="1.75454">
        <ele>97</ele>
        <time>2017-03-23T19:07:24Z</time>
      </trkpt>
      <trkpt lat="50.71093" lon="1.75382">
        <ele>97</ele>
        <time>2017-03-23T19:09:24Z</time>
      </trkpt>
      <trkpt lat="50.71116" lon="1.75325">
        <ele>97</ele>
        <time>2017-03-23T19:11:24Z</time>
      </trkpt>
      <trkpt lat="50.71123" lon="1.75298">
        <ele>97</ele>
        <time>2017-03-23T19:13:24Z</time>
      </trkpt>
      <trkpt lat="50.71129" lon="1.75254">
        <ele>98</ele>
        <time>2017-03-23T19:15:24Z</time>
      </trkpt>
      <trkpt lat="50.71139" lon="1.75118">
        <ele>99</ele>
        <time>2017-03-23T19:17:24Z</time>
      </trkpt>
      <trkpt lat="50.71144" lon="1.75034">
        <ele>101</ele>
        <time>2017-03-23T19:19:24Z</time>
      </trkpt>
      <trkpt lat="50.71152" lon="1.74969">
        <ele>102</ele>
        <time>2017-03-23T19:21:24Z</time>
      </trkpt>
      <trkpt lat="50.71157" lon="1.74949">
        <ele>103</ele>
        <time>2017-03-23T19:23:24Z</time>
      </trkpt>
      <trkpt lat="50.71175" lon="1.74911">
        <ele>104</ele>
        <time>2017-03-23T19:25:24Z</time>
      </trkpt>
      <trkpt lat="50.71262" lon="1.74747">
        <ele>102</ele>
        <time>2017-03-23T19:27:24Z</time>
      </trkpt>
      <trkpt lat="50.71397" lon="1.74483">
        <ele>95</ele>
        <time>2017-03-23T19:29:24Z</time>
      </trkpt>
      <trkpt lat="50.71561" lon="1.74167">
        <ele>94</ele>
        <time>2017-03-23T19:31:24Z</time>
      </trkpt>
      <trkpt lat="50.71704" lon="1.73886">
        <ele>87</ele>
        <time>2017-03-23T19:33:24Z</time>
      </trkpt>
      <trkpt lat="50.71768" lon="1.73759">
        <ele>89</ele>
        <time>2017-03-23T19:35:24Z</time>
      </trkpt>
      <trkpt lat="50.71851" lon="1.73599">
        <ele>92</ele>
        <time>2017-03-23T19:37:24Z</time>
      </trkpt>
      <trkpt lat="50.71921" lon="1.73472">
        <ele>90</ele>
        <time>2017-03-23T19:39:24Z</time>
      </trkpt>
      <trkpt lat="50.72388" lon="1.72621">
        <ele>101</ele>
        <time>2017-03-23T19:41:24Z</time>
      </trkpt>
      <trkpt lat="50.72584" lon="1.7227">
        <ele>95</ele>
        <time>2017-03-23T19:43:24Z</time>
      </trkpt>
      <trkpt lat="50.72636" lon="1.72183">
        <ele>94</ele>
        <time>2017-03-23T19:45:24Z</time>
      </trkpt>
      <trkpt lat="50.72696" lon="1.72077">
        <ele>91</ele>
        <time>2017-03-23T19:47:24Z</time>
      </trkpt>
      <trkpt lat="50.72811" lon="1.7186">
        <ele>85</ele>
        <time>2017-03-23T19:49:24Z</time>
      </trkpt>
      <trkpt lat="50.7283" lon="1.71821">
        <ele>84</ele>
        <time>2017-03-23T19:51:24Z</time>
      </trkpt>
      <trkpt lat="50.72872" lon="1.71748">
        <ele>84</ele>
        <time>2017-03-23T19:53:24Z</time>
      </trkpt>
      <trkpt lat="50.72894" lon="1.71722">
        <ele>85</ele>
        <time>2017-03-23T19:55:24Z</time>
      </trkpt>
      <trkpt lat="50.72991" lon="1.71628">
        <ele>90</ele>
        <time>2017-03-23T19:57:24Z</time>
      </trkpt>
      <trkpt lat="50.73012" lon="1.71617">
        <ele>91</ele>
        <time>2017-03-23T19:59:24Z</time>
      </trkpt>
      <trkpt lat="50.73031" lon="1.71612">
        <ele>91</ele>
        <time>2017-03-23T20:01:24Z</time>
      </trkpt>
      <trkpt lat="50.73148" lon="1.71594">
        <ele>86</ele>
        <time>2017-03-23T20:03:24Z</time>
      </trkpt>
      <trkpt lat="50.73178" lon="1.71587">
        <ele>84</ele>
        <time>2017-03-23T20:05:24Z</time>
      </trkpt>
      <trkpt lat="50.73177" lon="1.71577">
        <ele>84</ele>
        <time>2017-03-23T20:07:24Z</time>
      </trkpt>
      <trkpt lat="50.73179" lon="1.7151">
        <ele>84</ele>
        <time>2017-03-23T20:09:24Z</time>
      </trkpt>
      <trkpt lat="50.73176" lon="1.71485">
        <ele>85</ele>
        <time>2017-03-23T20:11:24Z</time>
      </trkpt>
      <trkpt lat="50.73174" lon="1.71477">
        <ele>85</ele>
        <time>2017-03-23T20:13:24Z</time>
      </trkpt>
      <trkpt lat="50.73175" lon="1.71469">
        <ele>85</ele>
        <time>2017-03-23T20:15:24Z</time>
      </trkpt>
      <trkpt lat="50.73176" lon="1.71466">
        <ele>85</ele>
        <time>2017-03-23T20:17:24Z</time>
      </trkpt>
      <trkpt lat="50.73176" lon="1.71455">
        <ele>85</ele>
        <time>2017-03-23T20:19:24Z</time>
      </trkpt>
      <trkpt lat="50.73166" lon="1.71414">
        <ele>86</ele>
        <time>2017-03-23T20:21:24Z</time>
      </trkpt>
      <trkpt lat="50.73151" lon="1.71273">
        <ele>91</ele>
        <time>2017-03-23T20:23:24Z</time>
      </trkpt>
      <trkpt lat="50.73132" lon="1.71059">
        <ele>99</ele>
        <time>2017-03-23T20:25:24Z</time>
      </trkpt>
      <trkpt lat="50.73115" lon="1.70899">
        <ele>103</ele>
        <time>2017-03-23T20:27:24Z</time>
      </trkpt>
      <trkpt lat="50.73117" lon="1.70852">
        <ele>104</ele>
        <time>2017-03-23T20:29:24Z</time>
      </trkpt>
      <trkpt lat="50.73122" lon="1.70825">
        <ele>105</ele>
        <time>2017-03-23T20:31:24Z</time>
      </trkpt>
      <trkpt lat="50.73133" lon="1.70796">
        <ele>106</ele>
        <time>2017-03-23T20:33:24Z</time>
      </trkpt>
      <trkpt lat="50.73142" lon="1.70777">
        <ele>106</ele>
        <time>2017-03-23T20:35:24Z</time>
      </trkpt>
      <trkpt lat="50.73145" lon="1.7077">
        <ele>106</ele>
        <time>2017-03-23T20:37:24Z</time>
      </trkpt>
      <trkpt lat="50.73142" lon="1.70766">
        <ele>106</ele>
        <time>2017-03-23T20:39:24Z</time>
      </trkpt>
      <trkpt lat="50.73139" lon="1.70765">
        <ele>106</ele>
        <time>2017-03-23T20:41:24Z</time>
      </trkpt>
      <trkpt lat="50.73133" lon="1.70766">
        <ele>106</ele>
        <time>2017-03-23T20:43:24Z</time>
      </trkpt>
      <trkpt lat="50.73096" lon="1.70787">
        <ele>104</ele>
        <time>2017-03-23T20:45:24Z</time>
      </trkpt>
      <trkpt lat="50.73085" lon="1.70788">
        <ele>104</ele>
        <time>2017-03-23T20:47:24Z</time>
      </trkpt>
      <trkpt lat="50.73076" lon="1.70783">
        <ele>103</ele>
        <time>2017-03-23T20:49:24Z</time>
      </trkpt>
      <trkpt lat="50.72951" lon="1.70672">
        <ele>102</ele>
        <time>2017-03-23T20:51:24Z</time>
      </trkpt>
      <trkpt lat="50.72919" lon="1.70638">
        <ele>102</ele>
        <time>2017-03-23T20:53:24Z</time>
      </trkpt>
      <trkpt lat="50.72877" lon="1.70594">
        <ele>101</ele>
        <time>2017-03-23T20:55:24Z</time>
      </trkpt>
      <trkpt lat="50.7278" lon="1.70512">
        <ele>99</ele>
        <time>2017-03-23T20:57:24Z</time>
      </trkpt>
      <trkpt lat="50.72753" lon="1.70492">
        <ele>99</ele>
        <time>2017-03-23T20:59:24Z</time>
      </trkpt>
      <trkpt lat="50.72719" lon="1.70475">
        <ele>98</ele>
        <time>2017-03-23T21:01:24Z</time>
      </trkpt>
      <trkpt lat="50.72647" lon="1.70464">
        <ele>96</ele>
        <time>2017-03-23T21:03:24Z</time>
      </trkpt>
      <trkpt lat="50.72614" lon="1.70458">
        <ele>95</ele>
        <time>2017-03-23T21:05:24Z</time>
      </trkpt>
      <trkpt lat="50.72581" lon="1.70447">
        <ele>95</ele>
        <time>2017-03-23T21:07:24Z</time>
      </trkpt>
      <trkpt lat="50.72554" lon="1.70431">
        <ele>93</ele>
        <time>2017-03-23T21:09:24Z</time>
      </trkpt>
      <trkpt lat="50.72529" lon="1.70414">
        <ele>92</ele>
        <time>2017-03-23T21:11:24Z</time>
      </trkpt>
      <trkpt lat="50.72484" lon="1.70378">
        <ele>91</ele>
        <time>2017-03-23T21:13:24Z</time>
      </trkpt>
      <trkpt lat="50.72453" lon="1.70348">
        <ele>91</ele>
        <time>2017-03-23T21:15:24Z</time>
      </trkpt>
      <trkpt lat="50.72438" lon="1.70334">
        <ele>91</ele>
        <time>2017-03-23T21:17:24Z</time>
      </trkpt>
      <trkpt lat="50.72425" lon="1.70321">
        <ele>91</ele>
        <time>2017-03-23T21:19:24Z</time>
      </trkpt>
      <trkpt lat="50.72409" lon="1.70304">
        <ele>91</ele>
        <time>2017-03-23T21:21:24Z</time>
      </trkpt>
      <trkpt lat="50.72375" lon="1.70265">
        <ele>90</ele>
        <time>2017-03-23T21:23:24Z</time>
      </trkpt>
      <trkpt lat="50.72323" lon="1.70197">
        <ele>90</ele>
        <time>2017-03-23T21:25:24Z</time>
      </trkpt>
      <trkpt lat="50.72286" lon="1.70161">
        <ele>89</ele>
        <time>2017-03-23T21:27:24Z</time>
      </trkpt>
      <trkpt lat="50.72259" lon="1.70136">
        <ele>88</ele>
        <time>2017-03-23T21:29:24Z</time>
      </trkpt>
      <trkpt lat="50.72189" lon="1.70038">
        <ele>85</ele>
        <time>2017-03-23T21:31:24Z</time>
      </trkpt>
      <trkpt lat="50.72147" lon="1.69977">
        <ele>84</ele>
        <time>2017-03-23T21:33:24Z</time>
      </trkpt>
      <trkpt lat="50.72127" lon="1.69957">
        <ele>84</ele>
        <time>2017-03-23T21:35:24Z</time>
      </trkpt>
      <trkpt lat="50.72072" lon="1.699">
        <ele>83</ele>
        <time>2017-03-23T21:37:24Z</time>
      </trkpt>
      <trkpt lat="50.72036" lon="1.69864">
        <ele>83</ele>
        <time>2017-03-23T21:39:24Z</time>
      </trkpt>
      <trkpt lat="50.7198" lon="1.69826">
        <ele>84</ele>
        <time>2017-03-23T21:41:24Z</time>
      </trkpt>
      <trkpt lat="50.71874" lon="1.69763">
        <ele>83</ele>
        <time>2017-03-23T21:43:24Z</time>
      </trkpt>
      <trkpt lat="50.71848" lon="1.69745">
        <ele>84</ele>
        <time>2017-03-23T21:45:24Z</time>
      </trkpt>
      <trkpt lat="50.71837" lon="1.69734">
        <ele>84</ele>
        <time>2017-03-23T21:47:24Z</time>
      </trkpt>
      <trkpt lat="50.71785" lon="1.69672">
        <ele>86</ele>
        <time>2017-03-23T21:49:24Z</time>
      </trkpt>
      <trkpt lat="50.71759" lon="1.69633">
        <ele>87</ele>
        <time>2017-03-23T21:51:24Z</time>
      </trkpt>
      <trkpt lat="50.71733" lon="1.6958">
        <ele>89</ele>
        <time>2017-03-23T21:53:24Z</time>
      </trkpt>
      <trkpt lat="50.71669" lon="1.69441">
        <ele>91</ele>
        <time>2017-03-23T21:55:24Z</time>
      </trkpt>
      <trkpt lat="50.71659" lon="1.69413">
        <ele>92</ele>
        <time>2017-03-23T21:57:24Z</time>
      </trkpt>
      <trkpt lat="50.71652" lon="1.69386">
        <ele>92</ele>
        <time>2017-03-23T21:59:24Z</time>
      </trkpt>
      <trkpt lat="50.7164" lon="1.69306">
        <ele>92</ele>
        <time>2017-03-23T22:01:24Z</time>
      </trkpt>
      <trkpt lat="50.71588" lon="1.68931">
        <ele>85</ele>
        <time>2017-03-23T22:03:24Z</time>
      </trkpt>
      <trkpt lat="50.71567" lon="1.68796">
        <ele>83</ele>
        <time>2017-03-23T22:05:24Z</time>
      </trkpt>
      <trkpt lat="50.71556" lon="1.68711">
        <ele>83</ele>
        <time>2017-03-23T22:07:24Z</time>
      </trkpt>
      <trkpt lat="50.71557" lon="1.68531">
        <ele>80</ele>
        <time>2017-03-23T22:09:24Z</time>
      </trkpt>
      <trkpt lat="50.71556" lon="1.68458">
        <ele>78</ele>
        <time>2017-03-23T22:11:24Z</time>
      </trkpt>
      <trkpt lat="50.71547" lon="1.68405">
        <ele>76</ele>
        <time>2017-03-23T22:13:24Z</time>
      </trkpt>
      <trkpt lat="50.71529" lon="1.68345">
        <ele>74</ele>
        <time>2017-03-23T22:15:24Z</time>
      </trkpt>
      <trkpt lat="50.7146" lon="1.68122">
        <ele>63</ele>
        <time>2017-03-23T22:17:24Z</time>
      </trkpt>
      <trkpt lat="50.71448" lon="1.68095">
        <ele>61</ele>
        <time>2017-03-23T22:19:24Z</time>
      </trkpt>
      <trkpt lat="50.71437" lon="1.68077">
        <ele>61</ele>
        <time>2017-03-23T22:21:24Z</time>
      </trkpt>
      <trkpt lat="50.71422" lon="1.68058">
        <ele>60</ele>
        <time>2017-03-23T22:23:24Z</time>
      </trkpt>
      <trkpt lat="50.7141" lon="1.68049">
        <ele>59</ele>
        <time>2017-03-23T22:25:24Z</time>
      </trkpt>
      <trkpt lat="50.7139" lon="1.68032">
        <ele>57</ele>
        <time>2017-03-23T22:27:24Z</time>
      </trkpt>
      <trkpt lat="50.71346" lon="1.68">
        <ele>52</ele>
        <time>2017-03-23T22:29:24Z</time>
      </trkpt>
      <trkpt lat="50.71205" lon="1.67896">
        <ele>40</ele>
        <time>2017-03-23T22:31:24Z</time>
      </trkpt>
      <trkpt lat="50.71159" lon="1.67861">
        <ele>37</ele>
        <time>2017-03-23T22:33:24Z</time>
      </trkpt>
      <trkpt lat="50.71148" lon="1.67856">
        <ele>36</ele>
        <time>2017-03-23T22:35:24Z</time>
      </trkpt>
      <trkpt lat="50.71136" lon="1.67855">
        <ele>36</ele>
        <time>2017-03-23T22:37:24Z</time>
      </trkpt>
      <trkpt lat="50.71099" lon="1.67867">
        <ele>34</ele>
        <time>2017-03-23T22:39:24Z</time>
      </trkpt>
      <trkpt lat="50.71097" lon="1.67868">
        <ele>34</ele>
        <time>2017-03-23T22:41:24Z</time>
      </trkpt>
      <trkpt lat="50.71072" lon="1.67875">
        <ele>33</ele>
        <time>2017-03-23T22:43:24Z</time>
      </trkpt>
      <trkpt lat="50.71109" lon="1.67691">
        <ele>31</ele>
        <time>2017-03-23T22:45:24Z</time>
      </trkpt>
      <trkpt lat="50.7113" lon="1.67584">
        <ele>32</ele>
        <time>2017-03-23T22:47:24Z</time>
      </trkpt>
      <trkpt lat="50.71153" lon="1.67475">
        <ele>36</ele>
        <time>2017-03-23T22:49:24Z</time>
      </trkpt>
      <trkpt lat="50.71168" lon="1.67436">
        <ele>38</ele>
        <time>2017-03-23T22:51:24Z</time>
      </trkpt>
      <trkpt lat="50.71189" lon="1.67399">
        <ele>40</ele>
        <time>2017-03-23T22:53:24Z</time>
      </trkpt>
      <trkpt lat="50.71196" lon="1.67391">
        <ele>40</ele>
        <time>2017-03-23T22:55:24Z</time>
      </trkpt>
      <trkpt lat="50.71191" lon="1.67372">
        <ele>40</ele>
        <time>2017-03-23T22:57:24Z</time>
      </trkpt>
      <trkpt lat="50.71188" lon="1.67349">
        <ele>40</ele>
        <time>2017-03-23T22:59:24Z</time>
      </trkpt>
      <trkpt lat="50.71187" lon="1.6733">
        <ele>40</ele>
        <time>2017-03-23T23:01:24Z</time>
      </trkpt>
      <trkpt lat="50.71183" lon="1.67322">
        <ele>40</ele>
        <time>2017-03-23T23:03:24Z</time>
      </trkpt>
      <trkpt lat="50.71176" lon="1.67311">
        <ele>40</ele>
        <time>2017-03-23T23:05:24Z</time>
      </trkpt>
      <trkpt lat="50.71161" lon="1.67297">
        <ele>39</ele>
        <time>2017-03-23T23:07:24Z</time>
      </trkpt>
      <trkpt lat="50.71141" lon="1.67279">
        <ele>38</ele>
        <time>2017-03-23T23:09:24Z</time>
      </trkpt>
      <trkpt lat="50.71112" lon="1.67258">
        <ele>36</ele>
        <time>2017-03-23T23:11:24Z</time>
      </trkpt>
      <trkpt lat="50.71076" lon="1.67241">
        <ele>34</ele>
        <time>2017-03-23T23:13:24Z</time>
      </trkpt>
      <trkpt lat="50.71047" lon="1.6724">
        <ele>32</ele>
        <time>2017-03-23T23:15:24Z</time>
      </trkpt>
      <trkpt lat="50.71028" lon="1.67244">
        <ele>31</ele>
        <time>2017-03-23T23:17:24Z</time>
      </trkpt>
      <trkpt lat="50.70995" lon="1.67258">
        <ele>29</ele>
        <time>2017-03-23T23:19:24Z</time>
      </trkpt>
      <trkpt lat="50.70971" lon="1.67279">
        <ele>29</ele>
        <time>2017-03-23T23:21:24Z</time>
      </trkpt>
      <trkpt lat="50.70937" lon="1.67324">
        <ele>29</ele>
        <time>2017-03-23T23:23:24Z</time>
      </trkpt>
      <trkpt lat="50.70893" lon="1.67387">
        <ele>33</ele>
        <time>2017-03-23T23:25:24Z</time>
      </trkpt>
      <trkpt lat="50.70873" lon="1.67409">
        <ele>36</ele>
        <time>2017-03-23T23:27:24Z</time>
      </trkpt>
      <trkpt lat="50.70854" lon="1.67424">
        <ele>38</ele>
        <time>2017-03-23T23:29:24Z</time>
      </trkpt>
      <trkpt lat="50.70814" lon="1.67446">
        <ele>42</ele>
        <time>2017-03-23T23:31:24Z</time>
      </trkpt>
      <trkpt lat="50.70781" lon="1.6747">
        <ele>45</ele>
        <time>2017-03-23T23:33:24Z</time>
      </trkpt>
      <trkpt lat="50.70729" lon="1.67519">
        <ele>49</ele>
        <time>2017-03-23T23:35:24Z</time>
      </trkpt>
      <trkpt lat="50.70706" lon="1.67535">
        <ele>50</ele>
        <time>2017-03-23T23:37:24Z</time>
      </trkpt>
      <trkpt lat="50.70671" lon="1.67553">
        <ele>52</ele>
        <time>2017-03-23T23:39:24Z</time>
      </trkpt>
      <trkpt lat="50.70644" lon="1.67561">
        <ele>53</ele>
        <time>2017-03-23T23:41:24Z</time>
      </trkpt>
      <trkpt lat="50.70617" lon="1.67565">
        <ele>54</ele>
        <time>2017-03-23T23:43:24Z</time>
      </trkpt>
      <trkpt lat="50.70592" lon="1.67566">
        <ele>55</ele>
        <time>2017-03-23T23:45:24Z</time>
      </trkpt>
      <trkpt lat="50.70511" lon="1.67563">
        <ele>58</ele>
        <time>2017-03-23T23:47:24Z</time>
      </trkpt>
      <trkpt lat="50.70472" lon="1.67567">
        <ele>60</ele>
        <time>2017-03-23T23:49:24Z</time>
      </trkpt>
      <trkpt lat="50.70423" lon="1.67582">
        <ele>62</ele>
        <time>2017-03-23T23:51:24Z</time>
      </trkpt>
      <trkpt lat="50.70386" lon="1.67596">
        <ele>64</ele>
        <time>2017-03-23T23:53:24Z</time>
      </trkpt>
      <trkpt lat="50.70366" lon="1.67603">
        <ele>65</ele>
        <time>2017-03-23T23:55:24Z</time>
      </trkpt>
      <trkpt lat="50.70311" lon="1.67621">
        <ele>67</ele>
        <time>2017-03-23T23:57:24Z</time>
      </trkpt>
      <trkpt lat="50.70234" lon="1.67642">
        <ele>68</ele>
        <time>2017-03-23T23:59:24Z</time>
      </trkpt>
      <trkpt lat="50.7015" lon="1.67663">
        <ele>63</ele>
        <time>2017-03-24T00:01:24Z</time>
      </trkpt>
      <trkpt lat="50.70067" lon="1.67688">
        <ele>61</ele>
        <time>2017-03-24T00:03:24Z</time>
      </trkpt>
      <trkpt lat="50.70039" lon="1.67697">
        <ele>59</ele>
        <time>2017-03-24T00:05:24Z</time>
      </trkpt>
      <trkpt lat="50.69889" lon="1.67755">
        <ele>53</ele>
        <time>2017-03-24T00:07:24Z</time>
      </trkpt>
      <trkpt lat="50.69802" lon="1.67788">
        <ele>48</ele>
        <time>2017-03-24T00:09:24Z</time>
      </trkpt>
      <trkpt lat="50.69762" lon="1.678">
        <ele>45</ele>
        <time>2017-03-24T00:11:24Z</time>
      </trkpt>
      <trkpt lat="50.69736" lon="1.67805">
        <ele>43</ele>
        <time>2017-03-24T00:13:24Z</time>
      </trkpt>
      <trkpt lat="50.69702" lon="1.67808">
        <ele>43</ele>
        <time>2017-03-24T00:15:24Z</time>
      </trkpt>
      <trkpt lat="50.69626" lon="1.6782">
        <ele>44</ele>
        <time>2017-03-24T00:17:24Z</time>
      </trkpt>
      <trkpt lat="50.69565" lon="1.6784">
        <ele>49</ele>
        <time>2017-03-24T00:19:24Z</time>
      </trkpt>
      <trkpt lat="50.69532" lon="1.67852">
        <ele>51</ele>
        <time>2017-03-24T00:21:24Z</time>
      </trkpt>
      <trkpt lat="50.69359" lon="1.67911">
        <ele>60</ele>
        <time>2017-03-24T00:23:24Z</time>
      </trkpt>
      <trkpt lat="50.69337" lon="1.67916">
        <ele>62</ele>
        <time>2017-03-24T00:25:24Z</time>
      </trkpt>
      <trkpt lat="50.69293" lon="1.67927">
        <ele>65</ele>
        <time>2017-03-24T00:27:24Z</time>
      </trkpt>
      <trkpt lat="50.69253" lon="1.6793">
        <ele>67</ele>
        <time>2017-03-24T00:29:24Z</time>
      </trkpt>
      <trkpt lat="50.69227" lon="1.67933">
        <ele>69</ele>
        <time>2017-03-24T00:31:24Z</time>
      </trkpt>
      <trkpt lat="50.69184" lon="1.67936">
        <ele>72</ele>
        <time>2017-03-24T00:33:24Z</time>
      </trkpt>
      <trkpt lat="50.6908" lon="1.67954">
        <ele>76</ele>
        <time>2017-03-24T00:35:24Z</time>
      </trkpt>
      <trkpt lat="50.68718" lon="1.68037">
        <ele>84</ele>
        <time>2017-03-24T00:37:24Z</time>
      </trkpt>
      <trkpt lat="50.68705" lon="1.68039">
        <ele>84</ele>
        <time>2017-03-24T00:39:24Z</time>
      </trkpt>
      <trkpt lat="50.68685" lon="1.67798">
        <ele>96</ele>
        <time>2017-03-24T00:41:24Z</time>
      </trkpt>
      <trkpt lat="50.68689" lon="1.67722">
        <ele>100</ele>
        <time>2017-03-24T00:43:24Z</time>
      </trkpt>
      <trkpt lat="50.68696" lon="1.67636">
        <ele>105</ele>
        <time>2017-03-24T00:45:24Z</time>
      </trkpt>
      <trkpt lat="50.68695" lon="1.67613">
        <ele>107</ele>
        <time>2017-03-24T00:47:24Z</time>
      </trkpt>
      <trkpt lat="50.68699" lon="1.67576">
        <ele>109</ele>
        <time>2017-03-24T00:49:24Z</time>
      </trkpt>
      <trkpt lat="50.68739" lon="1.67448">
        <ele>117</ele>
        <time>2017-03-24T00:51:24Z</time>
      </trkpt>
      <trkpt lat="50.68755" lon="1.67385">
        <ele>119</ele>
        <time>2017-03-24T00:53:24Z</time>
      </trkpt>
      <trkpt lat="50.6876" lon="1.67344">
        <ele>120</ele>
        <time>2017-03-24T00:55:24Z</time>
      </trkpt>
      <trkpt lat="50.6876" lon="1.67306">
        <ele>120</ele>
        <time>2017-03-24T00:57:24Z</time>
      </trkpt>
      <trkpt lat="50.68755" lon="1.67288">
        <ele>120</ele>
        <time>2017-03-24T00:59:24Z</time>
      </trkpt>
      <trkpt lat="50.68751" lon="1.6728">
        <ele>120</ele>
        <time>2017-03-24T01:01:24Z</time>
      </trkpt>
      <trkpt lat="50.6872" lon="1.6725">
        <ele>120</ele>
        <time>2017-03-24T01:03:24Z</time>
      </trkpt>
      <trkpt lat="50.68533" lon="1.67077">
        <ele>115</ele>
        <time>2017-03-24T01:05:24Z</time>
      </trkpt>
      <trkpt lat="50.68504" lon="1.67047">
        <ele>115</ele>
        <time>2017-03-24T01:07:24Z</time>
      </trkpt>
      <trkpt lat="50.68472" lon="1.66984">
        <ele>114</ele>
        <time>2017-03-24T01:09:24Z</time>
      </trkpt>
      <trkpt lat="50.68417" lon="1.66866">
        <ele>113</ele>
        <time>2017-03-24T01:11:24Z</time>
      </trkpt>
      <trkpt lat="50.68372" lon="1.66802">
        <ele>110</ele>
        <time>2017-03-24T01:13:24Z</time>
      </trkpt>
      <trkpt lat="50.68308" lon="1.66701">
        <ele>105</ele>
        <time>2017-03-24T01:15:24Z</time>
      </trkpt>
      <trkpt lat="50.68231" lon="1.66581">
        <ele>97</ele>
        <time>2017-03-24T01:17:24Z</time>
      </trkpt>
      <trkpt lat="50.68209" lon="1.66538">
        <ele>95</ele>
        <time>2017-03-24T01:19:24Z</time>
      </trkpt>
      <trkpt lat="50.68182" lon="1.66455">
        <ele>90</ele>
        <time>2017-03-24T01:21:24Z</time>
      </trkpt>
      <trkpt lat="50.68171" lon="1.66446">
        <ele>89</ele>
        <time>2017-03-24T01:23:24Z</time>
      </trkpt>
      <trkpt lat="50.68162" lon="1.66441">
        <ele>88</ele>
        <time>2017-03-24T01:25:24Z</time>
      </trkpt>
      <trkpt lat="50.68092" lon="1.66412">
        <ele>81</ele>
        <time>2017-03-24T01:27:24Z</time>
      </trkpt>
      <trkpt lat="50.68026" lon="1.66386">
        <ele>76</ele>
        <time>2017-03-24T01:29:24Z</time>
      </trkpt>
      <trkpt lat="50.67983" lon="1.66368">
        <ele>73</ele>
        <time>2017-03-24T01:31:24Z</time>
      </trkpt>
      <trkpt lat="50.67967" lon="1.66358">
        <ele>73</ele>
        <time>2017-03-24T01:33:24Z</time>
      </trkpt>
      <trkpt lat="50.67954" lon="1.66343">
        <ele>72</ele>
        <time>2017-03-24T01:35:24Z</time>
      </trkpt>
      <trkpt lat="50.67945" lon="1.66316">
        <ele>71</ele>
        <time>2017-03-24T01:37:24Z</time>
      </trkpt>
      <trkpt lat="50.67942" lon="1.66297">
        <ele>69</ele>
        <time>2017-03-24T01:39:24Z</time>
      </trkpt>
      <trkpt lat="50.67941" lon="1.66272">
        <ele>67</ele>
        <time>2017-03-24T01:41:24Z</time>
      </trkpt>
      <trkpt lat="50.67947" lon="1.66246">
        <ele>65</ele>
        <time>2017-03-24T01:43:24Z</time>
      </trkpt>
      <trkpt lat="50.67958" lon="1.66224">
        <ele>64</ele>
        <time>2017-03-24T01:45:24Z</time>
      </trkpt>
      <trkpt lat="50.67969" lon="1.66212">
        <ele>64</ele>
        <time>2017-03-24T01:47:24Z</time>
      </trkpt>
      <trkpt lat="50.68082" lon="1.6612">
        <ele>61</ele>
        <time>2017-03-24T01:49:24Z</time>
      </trkpt>
      <trkpt lat="50.68104" lon="1.66099">
        <ele>60</ele>
        <time>2017-03-24T01:51:24Z</time>
      </trkpt>
      <trkpt lat="50.6812" lon="1.66075">
        <ele>58</ele>
        <time>2017-03-24T01:53:24Z</time>
      </trkpt>
      <trkpt lat="50.68135" lon="1.6604">
        <ele>56</ele>
        <time>2017-03-24T01:55:24Z</time>
      </trkpt>
      <trkpt lat="50.68146" lon="1.65992">
        <ele>52</ele>
        <time>2017-03-24T01:57:24Z</time>
      </trkpt>
      <trkpt lat="50.68149" lon="1.65948">
        <ele>50</ele>
        <time>2017-03-24T01:59:24Z</time>
      </trkpt>
      <trkpt lat="50.68144" lon="1.65898">
        <ele>47</ele>
        <time>2017-03-24T02:01:24Z</time>
      </trkpt>
      <trkpt lat="50.68128" lon="1.65849">
        <ele>46</ele>
        <time>2017-03-24T02:03:24Z</time>
      </trkpt>
      <trkpt lat="50.68121" lon="1.65832">
        <ele>46</ele>
        <time>2017-03-24T02:05:24Z</time>
      </trkpt>
      <trkpt lat="50.6811" lon="1.65817">
        <ele>46</ele>
        <time>2017-03-24T02:07:24Z</time>
      </trkpt>
      <trkpt lat="50.68092" lon="1.65796">
        <ele>47</ele>
        <time>2017-03-24T02:09:24Z</time>
      </trkpt>
      <trkpt lat="50.68081" lon="1.65786">
        <ele>47</ele>
        <time>2017-03-24T02:11:24Z</time>
      </trkpt>
      <trkpt lat="50.68073" lon="1.6578">
        <ele>46</ele>
        <time>2017-03-24T02:13:24Z</time>
      </trkpt>
      <trkpt lat="50.6805" lon="1.6576">
        <ele>44</ele>
        <time>2017-03-24T02:15:24Z</time>
      </trkpt>
      <trkpt lat="50.67966" lon="1.65696">
        <ele>36</ele>
        <time>2017-03-24T02:17:24Z</time>
      </trkpt>
      <trkpt lat="50.67901" lon="1.65634">
        <ele>32</ele>
        <time>2017-03-24T02:19:24Z</time>
      </trkpt>
      <trkpt lat="50.67767" lon="1.65507">
        <ele>27</ele>
        <time>2017-03-24T02:21:24Z</time>
      </trkpt>
      <trkpt lat="50.67721" lon="1.65463">
        <ele>27</ele>
        <time>2017-03-24T02:23:24Z</time>
      </trkpt>
      <trkpt lat="50.67691" lon="1.65437">
        <ele>27</ele>
        <time>2017-03-24T02:25:24Z</time>
      </trkpt>
      <trkpt lat="50.67677" lon="1.65431">
        <ele>27</ele>
        <time>2017-03-24T02:27:24Z</time>
      </trkpt>
      <trkpt lat="50.67657" lon="1.65425">
        <ele>28</ele>
        <time>2017-03-24T02:29:24Z</time>
      </trkpt>
      <trkpt lat="50.67627" lon="1.65426">
        <ele>29</ele>
        <time>2017-03-24T02:31:24Z</time>
      </trkpt>
      <trkpt lat="50.67602" lon="1.65436">
        <ele>30</ele>
        <time>2017-03-24T02:33:24Z</time>
      </trkpt>
      <trkpt lat="50.67588" lon="1.65449">
        <ele>31</ele>
        <time>2017-03-24T02:35:24Z</time>
      </trkpt>
      <trkpt lat="50.6743" lon="1.65587">
        <ele>36</ele>
        <time>2017-03-24T02:37:24Z</time>
      </trkpt>
      <trkpt lat="50.67419" lon="1.65596">
        <ele>37</ele>
        <time>2017-03-24T02:39:24Z</time>
      </trkpt>
      <trkpt lat="50.67415" lon="1.65603">
        <ele>37</ele>
        <time>2017-03-24T02:41:24Z</time>
      </trkpt>
      <trkpt lat="50.67408" lon="1.65607">
        <ele>37</ele>
        <time>2017-03-24T02:43:24Z</time>
      </trkpt>
      <trkpt lat="50.67403" lon="1.65608">
        <ele>37</ele>
        <time>2017-03-24T02:45:24Z</time>
      </trkpt>
      <trkpt lat="50.67392" lon="1.65607">
        <ele>36</ele>
        <time>2017-03-24T02:47:24Z</time>
      </trkpt>
      <trkpt lat="50.67383" lon="1.656">
        <ele>36</ele>
        <time>2017-03-24T02:49:24Z</time>
      </trkpt>
      <trkpt lat="50.67373" lon="1.65588">
        <ele>35</ele>
        <time>2017-03-24T02:51:24Z</time>
      </trkpt>
      <trkpt lat="50.67366" lon="1.65574">
        <ele>34</ele>
        <time>2017-03-24T02:53:24Z</time>
      </trkpt>
      <trkpt lat="50.67353" lon="1.65558">
        <ele>33</ele>
        <time>2017-03-24T02:55:24Z</time>
      </trkpt>
      <trkpt lat="50.6734" lon="1.65545">
        <ele>32</ele>
        <time>2017-03-24T02:57:24Z</time>
      </trkpt>
      <trkpt lat="50.67342" lon="1.65539">
        <ele>32</ele>
        <time>2017-03-24T02:59:24Z</time>
      </trkpt>
      <trkpt lat="50.67347" lon="1.65526">
        <ele>31</ele>
        <time>2017-03-24T03:01:24Z</time>
      </trkpt>
      <trkpt lat="50.67373" lon="1.65461">
        <ele>30</ele>
        <time>2017-03-24T03:03:24Z</time>
      </trkpt>
      <trkpt lat="50.67377" lon="1.65444">
        <ele>30</ele>
        <time>2017-03-24T03:05:24Z</time>
      </trkpt>
      <trkpt lat="50.67478" lon="1.652">
        <ele>23</ele>
        <time>2017-03-24T03:07:24Z</time>
      </trkpt>
      <trkpt lat="50.67475" lon="1.65193">
        <ele>22</ele>
        <time>2017-03-24T03:09:24Z</time>
      </trkpt>
      <trkpt lat="50.67474" lon="1.65188">
        <ele>22</ele>
        <time>2017-03-24T03:11:24Z</time>
      </trkpt>
      <trkpt lat="50.67474" lon="1.65177">
        <ele>22</ele>
        <time>2017-03-24T03:13:24Z</time>
      </trkpt>
      <trkpt lat="50.67477" lon="1.65167">
        <ele>21</ele>
        <time>2017-03-24T03:15:24Z</time>
      </trkpt>
      <trkpt lat="50.67483" lon="1.65162">
        <ele>21</ele>
        <time>2017-03-24T03:17:24Z</time>
      </trkpt>
      <trkpt lat="50.67489" lon="1.65162">
        <ele>21</ele>
        <time>2017-03-24T03:19:24Z</time>
      </trkpt>
      <trkpt lat="50.67493" lon="1.65163">
        <ele>22</ele>
        <time>2017-03-24T03:21:24Z</time>
      </trkpt>
      <trkpt lat="50.67545" lon="1.65041">
        <ele>15</ele>
        <time>2017-03-24T03:23:24Z</time>
      </trkpt>
      <trkpt lat="50.67696" lon="1.64685">
        <ele>22</ele>
        <time>2017-03-24T03:25:24Z</time>
      </trkpt>
      <trkpt lat="50.67698" lon="1.64681">
        <ele>22</ele>
        <time>2017-03-24T03:27:24Z</time>
      </trkpt>
      <trkpt lat="50.67696" lon="1.6468">
        <ele>22</ele>
        <time>2017-03-24T03:29:24Z</time>
      </trkpt>
    </trkseg>
  </trk>
</gpx>